[[{"header":{"parameterUnit":"m.s-1","parameterCategory":1,"la1":30.6,"la2":28.766,"lo1":-90.7593,"lo2":-88.6598,"dy":0.0162,"dx":0.0183,"nx":116,"ny":114,"refTime":"2023-10-01T12:00:00:Z","depth":0,"parameterNumber":2,"parameterNumberName":"U-component_of_WINDS"},"data":[0.0,0.0,0.0,0.0,0.0,0.0,0.0,0.0,0.0,0.0,0.0,0.0,0.0,0.0,0.0,0.0,0.0,0.0,0.0,0.0,0.0,0.0,0.0,0.0,0.0,0.0,0.0,0.0,0.0,0.0,0.0,0.0,0.0,0.0,0.0,0.0,0.0,0.0,0.0,0.0,0.0,0.0,0.0,0.0,0.0,0.0,0.0,0.0,0.0,0.0,0.0,0.0,0.0,0.0,0.0,0.0,0.0,0.0,0.0,0.0,0.0,0.0,0.0,0.0,0.0,0.0,0.0,0.0,0.0,0.0,0.0,0.0,0.0,0.0,0.0,0.0,0.0,0.0,0.0,0.0,0.0,0.0,0.0,0.0,0.0,0.0,0.0,0.0,0.0,0.0,0.0,0.0,0.0,0.0,0.0,0.0,0.0,0.0,0.0,0.0,0.0,0.0,0.0,0.0,0.0,0.0,0.0,0.0,0.0,0.0,0.0,0.0,0.0,0.0,0.0,0.0,0.0,0.0,0.0,0.0,0.0,0.0,0.0,0.0,0.0,0.0,0.0,0.0,0.0,0.0,0.0,0.0,0.0,0.0,0.0,0.0,0.0,0.0,0.0,0.0,0.0,0.0,0.0,0.0,0.0,0.0,0.0,0.0,0.0,0.0,0.0,0.0,0.0,0.0,0.0,0.0,0.0,0.0,0.0,0.0,0.0,0.0,0.0,0.0,0.0,0.0,0.0,0.0,0.0,0.0,0.0,0.0,0.0,0.0,0.0,0.0,0.0,0.0,0.0,0.0,0.0,0.0,0.0,0.0,0.0,0.0,0.0,0.0,0.0,0.0,0.0,0.0,0.0,0.0,0.0,0.0,0.0,0.0,0.0,0.0,0.0,0.0,0.0,0.0,0.0,0.0,0.0,0.0,0.0,0.0,0.0,0.0,0.0,0.0,0.0,0.0,0.0,0.0,0.0,0.0,0.0,0.0,0.0,0.0,0.0,0.0,0.0,0.0,0.0,0.0,0.0,0.0,0.0,0.0,0.0,0.0,0.0,0.0,0.0,0.0,0.0,0.0,0.0,0.0,0.0,0.0,0.0,0.0,0.0,0.0,0.0,0.0,0.0,0.0,0.0,0.0,0.0,0.0,0.0,0.0,0.0,0.0,0.0,0.0,0.0,0.0,0.0,0.0,0.0,0.0,0.0,0.0,0.0,0.0,0.0,0.0,0.0,0.0,0.0,0.0,0.0,0.0,0.0,0.0,0.0,0.0,0.0,0.0,0.0,0.0,0.0,0.0,0.0,0.0,0.0,0.0,0.0,0.0,0.0,0.0,0.0,0.0,0.0,0.0,0.0,0.0,0.0,0.0,0.0,0.0,0.0,0.0,0.0,0.0,0.0,0.0,0.0,0.0,0.0,0.0,0.0,0.0,0.0,0.0,0.0,0.0,0.0,0.0,0.0,0.0,0.0,0.0,0.0,0.0,0.0,0.0,0.0,0.0,0.0,0.0,0.0,0.0,0.0,0.0,0.0,0.0,0.0,0.0,0.0,0.0,0.0,0.0,0.0,0.0,0.0,0.0,0.0,0.0,0.0,0.0,0.0,0.0,0.0,0.0,0.0,0.0,0.0,0.0,0.0,0.0,0.0,0.0,0.0,0.0,0.0,0.0,0.0,0.0,0.0,0.0,0.0,0.0,0.0,0.0,0.0,0.0,0.0,0.0,0.0,0.0,0.0,0.0,0.0,0.0,0.0,0.0,0.0,0.0,0.0,0.0,0.0,0.0,0.0,0.0,0.0,0.0,0.0,0.0,0.0,0.0,0.0,0.0,0.0,0.0,0.0,0.0,0.0,0.0,0.0,0.0,0.0,0.0,0.0,0.0,0.0,0.0,0.0,0.0,0.0,0.0,0.0,0.0,0.0,0.0,0.0,0.0,0.0,0.0,0.0,0.0,0.0,0.0,0.0,0.0,0.0,0.0,0.0,0.0,0.0,0.0,0.0,0.0,0.0,0.0,0.0,0.0,0.0,0.0,0.0,0.0,0.0,0.0,0.0,0.0,0.0,0.0,0.0,0.0,0.0,0.0,0.0,0.0,0.0,0.0,0.0,0.0,0.0,0.0,0.0,0.0,0.0,0.0,0.0,0.0,0.0,0.0,0.0,0.0,0.0,0.0,0.0,0.0,0.0,0.0,0.0,0.0,0.0,0.0,0.0,0.0,0.0,0.0,0.0,0.0,0.0,0.0,0.0,0.0,0.0,0.0,0.0,0.0,0.0,0.0,0.0,0.0,0.0,0.0,0.0,0.0,0.0,0.0,0.0,0.0,0.0,0.0,0.0,0.0,0.0,0.0,0.0,0.0,0.0,0.0,0.0,0.0,0.0,0.0,0.0,0.0,0.0,0.0,0.0,0.0,0.0,0.0,0.0,0.0,0.0,0.0,0.0,0.0,0.0,0.0,0.0,0.0,0.0,0.0,0.0,0.0,0.0,0.0,0.0,0.0,0.0,0.0,0.0,0.0,0.0,0.0,0.0,0.0,0.0,0.0,0.0,0.0,0.0,0.0,0.0,0.0,0.0,0.0,0.0,0.0,0.0,0.0,0.0,0.0,0.0,0.0,0.0,0.0,0.0,0.0,0.0,0.0,0.0,0.0,0.0,0.0,0.0,0.0,0.0,0.0,0.0,0.0,0.0,0.0,0.0,0.0,0.0,0.0,0.0,0.0,0.0,0.0,0.0,0.0,0.0,0.0,0.0,0.0,0.0,0.0,0.0,0.0,0.0,0.0,0.0,0.0,0.0,0.0,0.0,0.0,0.0,0.0,0.0,0.0,0.0,0.0,0.0,0.0,0.0,0.0,0.0,0.0,0.0,0.0,0.0,0.0,0.0,0.0,0.0,0.0,0.0,0.0,0.0,0.0,0.0,0.0,0.0,0.0,0.0,0.0,0.0,0.0,0.0,0.0,0.0,0.0,0.0,0.0,0.0,0.0,0.0,0.0,0.0,0.0,0.0,0.0,0.0,0.0,0.0,0.0,0.0,0.0,0.0,0.0,0.0,0.0,0.0,0.0,0.0,0.0,0.0,0.0,0.0,0.0,0.0,0.0,0.0,0.0,0.0,0.0,0.0,0.0,0.0,0.0,0.0,0.0,0.0,0.0,0.0,0.0,0.0,0.0,0.0,0.0,0.0,0.0,0.0,0.0,0.0,0.0,0.0,0.0,0.0,0.0,0.0,0.0,0.0,0.0,0.0,0.0,0.0,0.0,0.0,0.0,0.0,0.0,0.0,0.0,0.0,0.0,0.0,0.0,0.0,0.0,0.0,0.0,0.0,0.0,0.0,0.0,0.0,0.0,0.0,0.0,0.0,0.0,0.0,0.0,0.0,0.0,0.0,0.0,0.0,0.0,0.0,0.0,0.0,0.0,0.0,0.0,0.0,0.0,0.0,0.0,0.0,0.0,0.0,0.0,0.0,0.0,0.0,0.0,0.0,0.0,0.0,0.0,0.0,0.0,0.0,0.0,0.0,0.0,0.0,0.0,0.0,0.0,0.0,0.0,0.0,0.0,0.0,0.0,0.0,0.0,0.0,0.0,0.0,0.0,0.0,0.0,0.0,0.0,0.0,0.0,0.0,0.0,0.0,0.0,0.0,0.0,0.0,0.0,0.0,0.0,0.0,0.0,0.0,0.0,0.0,0.0,0.0,0.0,0.0,0.0,0.0,0.0,0.0,0.0,0.0,0.0,0.0,0.0,0.0,0.0,0.0,0.0,0.0,0.0,0.0,0.0,0.0,0.0,0.0,0.0,0.0,0.0,0.0,0.0,0.0,0.0,0.0,0.0,0.0,0.0,0.0,0.0,0.0,0.0,0.0,0.0,0.0,0.0,0.0,0.0,0.0,0.0,0.0,0.0,0.0,0.0,0.0,0.0,0.0,0.0,0.0,0.0,0.0,0.0,0.0,0.0,0.0,0.0,0.0,0.0,0.0,0.0,0.0,0.0,0.0,0.0,0.0,0.0,0.0,0.0,0.0,0.0,0.0,0.0,0.0,0.0,0.0,0.0,0.0,0.0,0.0,0.0,0.0,0.0,0.0,0.0,0.0,0.0,0.0,0.0,0.0,0.0,0.0,0.0,0.0,0.0,0.0,0.0,0.0,0.0,0.0,0.0,0.0,0.0,0.0,0.0,0.0,0.0,0.0,0.0,0.0,0.0,0.0,0.0,0.0,0.0,0.0,0.0,0.0,0.0,0.0,0.0,0.0,0.0,0.0,0.0,0.0,0.0,0.0,0.0,0.0,0.0,0.0,0.0,0.0,0.0,0.0,0.0,0.0,0.0,0.0,0.0,0.0,0.0,0.0,0.0,0.0,0.0,0.0,0.0,0.0,0.0,0.0,0.0,0.0,0.0,0.0,0.0,0.0,0.0,0.0,0.0,0.0,0.0,0.0,0.0,0.0,0.0,0.0,0.0,0.0,0.0,0.0,0.0,0.0,0.0,0.0,0.0,0.0,0.0,0.0,0.0,0.0,0.0,0.0,0.0,0.0,0.0,0.0,0.0,0.0,0.0,0.0,0.0,0.0,0.0,0.0,0.0,0.0,0.0,0.0,0.0,0.0,0.0,0.0,0.0,0.0,0.0,0.0,0.0,0.0,0.0,0.0,0.0,0.0,0.0,0.0,0.0,0.0,0.0,0.0,0.0,0.0,0.0,0.0,0.0,0.0,0.0,0.0,0.0,0.0,0.0,0.0,0.0,0.0,0.0,0.0,0.0,0.0,0.0,0.0,0.0,0.0,0.0,0.0,0.0,0.0,0.0,0.0,0.0,0.0,0.0,0.0,0.0,0.0,0.0,0.0,0.0,0.0,0.0,0.0,0.0,0.0,0.0,0.0,0.0,0.0,0.0,0.0,0.0,0.0,0.0,0.0,0.0,0.0,0.0,0.0,0.0,0.0,0.0,0.0,0.0,0.0,0.0,0.0,0.0,0.0,0.0,0.0,0.0,0.0,0.0,0.0,0.0,0.0,0.0,0.0,0.0,0.0,0.0,0.0,0.0,0.0,0.0,0.0,0.0,0.0,0.0,0.0,0.0,0.0,0.0,0.0,0.0,0.0,0.0,0.0,0.0,0.0,0.0,0.0,0.0,0.0,0.0,0.0,0.0,0.0,0.0,0.0,0.0,0.0,0.0,0.0,0.0,0.0,0.0,0.0,0.0,0.0,0.0,0.0,0.0,0.0,0.0,0.0,0.0,0.0,0.0,0.0,0.0,0.0,0.0,0.0,0.0,0.0,0.0,0.0,0.0,0.0,0.0,0.0,0.0,0.0,0.0,0.0,0.0,0.0,0.0,0.0,0.0,0.0,0.0,0.0,0.0,0.0,0.0,0.0,0.0,0.0,0.0,0.0,0.0,0.0,0.0,0.0,0.0,0.0,0.0,0.0,0.0,0.0,0.0,0.0,0.0,0.0,0.0,0.0,0.0,0.0,0.0,0.0,0.0,0.0,0.0,0.0,0.0,0.0,0.0,0.0,0.0,0.0,0.0,0.0,0.0,0.0,0.0,0.0,0.0,0.0,0.0,0.0,0.0,0.0,0.0,0.0,0.0,0.0,0.0,0.0,0.0,0.0,0.0,0.0,0.0,0.0,0.0,0.0,0.0,0.0,0.0,0.0,0.0,0.0,0.0,0.0,0.0,0.0,0.0,0.0,0.0,0.0,0.0,0.0,0.0,0.0,0.0,0.0,0.0,0.0,0.0,0.0,0.0,0.0,0.0,0.0,0.0,0.0,0.0,0.0,0.0,0.0,0.0,0.0,0.0,0.0,0.0,0.0,0.0,0.0,0.0,0.0,0.0,0.0,0.0,0.0,0.0,0.0,0.0,0.0,0.0,0.0,0.0,0.0,0.0,0.0,0.0,0.0,0.0,0.0,0.0,0.0,0.0,0.0,0.0,0.0,0.0,0.0,0.0,0.0,0.0,0.0,0.0,0.0,0.0,0.0,0.0,0.0,0.0,0.0,0.0,0.0,0.0,0.0,0.0,0.0,0.0,0.0,0.0,0.0,0.0,0.0,0.0,0.0,0.0,0.0,0.0,0.0,0.0,0.0,0.0,0.0,0.0,-0.4451,0.0,0.0,0.0,0.0,0.0,0.0,0.0,0.0,0.0,0.0,0.0,0.0,0.0,0.0,0.0,0.0,0.0,0.0,0.0,0.0,0.0,0.0,0.0,0.0,0.0,0.0,0.0,0.0,0.0,0.0,0.0,0.0,0.0,0.0,0.0,0.0,0.0,0.0,-0.9177,-1.0216,-1.0924,-1.124,-0.8706,-0.5935,-0.3002,0.0,0.0,0.0,0.0,0.0,0.0,0.0,0.0,0.0,0.0,0.0,0.0,0.0,0.0,0.0,0.0,0.0,0.0,0.0,0.0,0.0,0.0,0.0,0.0,0.0,0.0,0.0,0.0,0.0,0.0,0.0,0.0,0.0,0.0,0.0,0.0,0.0,0.0,0.0,0.0,0.0,0.0,0.0,0.0,0.0,0.0,0.0,0.0,0.0,0.0,0.0,0.0,0.0,0.0,0.0,0.0,0.0,0.0,0.0,0.0,0.0,0.0,0.0,0.0,0.0,0.0,0.0,0.0,0.0,0.0,0.0,-0.581,0.0,0.0,0.0,0.0,0.0,0.0,0.0,0.0,0.0,0.0,0.0,0.0,0.0,0.0,0.0,0.0,0.0,0.0,0.0,0.0,0.0,0.0,0.0,-0.649,-0.6767,-0.7015,-0.6998,-0.6992,0.0,0.0,0.0,0.0,0.0,0.0,-0.9244,-1.0177,-1.0915,-1.1462,-1.2083,-1.2714,-1.331,-1.3065,-1.1174,-0.7789,-0.3366,0.0,0.0,0.0,0.0,0.0,0.0,0.0,0.0,0.0,0.0,0.0,0.0,0.0,0.0,0.0,0.0,0.0,0.0,0.0,0.0,0.0,0.0,0.0,0.0,0.0,0.0,0.0,0.0,0.0,0.0,0.0,0.0,0.0,0.0,0.0,0.0,0.0,0.0,0.0,0.0,0.0,0.0,0.0,0.0,0.0,0.0,0.0,0.0,0.0,0.0,0.0,0.0,0.0,0.0,0.0,0.0,0.0,0.0,0.0,0.0,0.0,0.0,0.0,-2.0598,-2.0128,-2.0136,-1.8384,-1.7627,-1.7509,-1.3359,-1.1164,-1.0481,-0.9153,0.0,0.0,0.0,0.0,0.0,0.0,0.0,0.0,0.0,0.0,0.0,0.0,0.0,0.0,0.0,0.0,0.0,0.0,0.0,-0.6556,-0.7456,-0.7684,-0.8247,-0.9415,-0.9316,-0.9275,-0.9524,0.0,0.0,0.0,0.0,-0.9944,-1.0197,-1.1416,-1.2299,-1.2852,-1.4961,-1.6172,-1.6468,-1.5525,-1.4807,-1.4031,-0.8013,-0.4405,-0.2749,0.0,0.0,0.0,0.0,0.0,0.0,0.0,0.0,0.0,0.0,0.0,0.0,0.0,0.0,0.0,0.0,0.0,0.0,0.0,0.0,0.0,0.0,0.0,0.0,0.0,0.0,0.0,0.0,0.0,0.0,0.0,0.0,0.0,0.0,0.0,0.0,0.0,0.0,0.0,0.0,0.0,-1.3257,-1.2496,0.0,0.0,0.0,0.0,0.0,0.0,0.0,0.0,0.0,0.0,0.0,0.0,0.0,-1.772,-1.809,-2.0673,-2.1973,-2.1946,-2.3643,-2.4204,-2.3677,-2.1649,-2.056,-2.0151,-1.7008,0.0,-1.3208,-1.196,0.0,0.0,0.0,0.0,0.0,0.0,0.0,0.0,0.0,0.0,0.0,0.0,0.0,0.0,0.0,0.0,0.0,0.0,0.0,0.0,0.0,-0.9246,-0.9401,-0.9128,-0.9339,-0.913,-0.8254,-0.865,0.0,0.0,-1.0018,-1.0833,-1.1235,-1.2378,-1.3609,-1.4905,-1.5846,-1.6953,-1.8203,-1.687,-1.6405,-1.6527,-1.2574,-0.9143,-0.6223,-0.4274,0.0,0.0,0.0,0.0,0.0,0.0,0.0,0.0,0.0,0.0,0.0,0.0,0.0,0.0,0.0,0.0,0.0,0.0,0.0,0.0,0.0,0.0,0.0,0.0,0.0,0.0,0.0,0.0,0.0,0.0,0.0,0.0,0.0,0.0,0.0,0.0,0.0,0.0,0.0,-1.4774,-1.5309,-1.4744,-1.4615,-1.4148,0.0,0.0,0.0,0.0,0.0,0.0,0.0,0.0,0.0,-1.6553,-1.8188,-1.9122,-1.9177,-2.1508,-2.2716,-2.2853,-2.3686,-2.3998,-2.3863,-2.2672,-2.2163,-2.2122,-2.0314,-1.8563,-1.682,-1.4273,-1.2187,-1.0552,0.0,0.0,0.0,0.0,-0.884,-0.8647,0.0,0.0,0.0,0.0,0.0,0.0,0.0,0.0,0.0,0.0,0.0,0.0,-0.9863,-1.0604,-1.077,-0.9946,-1.0,-0.9545,-0.8262,-0.8537,-0.8662,-0.8428,-0.9962,-1.1132,-1.1793,-1.3252,-1.4625,-1.593,-1.64,-1.7488,-1.9114,-1.7998,-1.7774,-1.8162,-1.62,-1.3452,-1.0073,-0.7568,-0.5974,-0.5073,0.0,0.0,0.0,0.0,0.0,0.0,0.0,0.0,0.0,0.0,0.0,0.0,0.0,0.0,0.0,0.0,0.0,0.0,0.0,0.0,0.0,0.0,0.0,0.0,0.0,0.0,0.0,0.0,0.0,0.0,0.0,0.0,0.0,0.0,0.0,0.0,0.0,-1.6223,-1.6911,-1.618,-1.6632,-1.6308,0.0,0.0,0.0,0.0,0.0,0.0,-1.626,-1.644,-1.6655,-1.6925,-1.899,-2.0004,-1.986,-2.1573,-2.2492,-2.2696,-2.2492,-2.2492,-2.2686,-2.2086,-2.1937,-2.2161,-2.1254,-2.011,-1.8685,-1.623,-1.4269,-1.2813,-1.2572,-1.1799,-1.0818,-1.081,-1.0695,-1.0468,0.0,0.0,0.0,0.0,0.0,0.0,0.0,0.0,0.0,0.0,0.0,-0.9598,-1.0626,-1.1583,-1.26,-1.3814,-1.2702,-1.1948,-1.192,-1.0544,-0.966,-0.9517,-0.9745,-1.0399,-1.1491,-1.3996,-1.5199,-1.4958,-1.7194,-1.8583,-1.9187,-1.9381,-1.9634,-1.9912,-1.835,-1.6314,-1.4079,-1.3134,-1.2173,-1.1074,-0.9229,0.0,0.0,0.0,0.0,0.0,0.0,0.0,0.0,0.0,0.0,0.0,0.0,0.0,0.0,0.0,0.0,0.0,0.0,0.0,0.0,0.0,0.0,0.0,0.0,0.0,0.0,0.0,0.0,0.0,0.0,0.0,0.0,0.0,0.0,0.0,0.0,0.0,0.0,-1.5865,-1.7822,0.0,0.0,0.0,0.0,-1.5755,-1.5778,-1.6421,-1.7812,-1.7485,-1.774,-1.8815,-1.9404,-1.9862,-2.0078,-2.0365,-2.0558,-2.0568,-2.0558,-2.0558,-2.0523,-1.9617,-1.9213,-1.9168,-1.8242,-1.7595,-1.727,-1.7759,-1.6843,-1.4974,-1.4458,-1.4232,-1.4008,-1.267,-1.2223,-1.2065,0.0,0.0,0.0,0.0,0.0,0.0,0.0,0.0,-0.6955,-0.7428,-0.9353,-1.0818,-1.1203,-1.298,-1.3604,-1.2262,-1.2025,-1.1147,-0.9168,-0.9026,-0.8962,-0.8837,-0.945,-1.0613,-1.2285,-1.2899,-1.4252,-1.638,-1.6733,-1.7686,-1.9198,-1.913,-1.9393,-1.9922,-1.9056,-1.8386,-1.7799,-1.5562,-1.4157,-1.3305,-1.1929,-1.0655,0.0,0.0,0.0,0.0,0.0,0.0,0.0,0.0,0.0,0.0,0.0,0.0,0.0,0.0,0.0,0.0,0.0,0.0,0.0,0.0,0.0,0.0,0.0,0.0,0.0,0.0,0.0,0.0,0.0,0.0,0.0,0.0,0.0,0.0,0.0,0.0,0.0,-1.6673,-1.6663,0.0,-1.43,-1.3403,-1.3387,-1.4443,-1.4862,-1.5803,-1.7519,-1.7657,-1.7884,-1.8278,-1.857,-1.8778,-1.8892,-1.896,-1.8995,-1.8995,-1.7965,-1.7504,-1.7457,-1.6053,-1.5357,-1.5304,-1.4844,-1.4551,-1.4407,-1.4491,-1.4452,-1.4268,-1.317,-1.2535,-1.2249,-1.1908,-1.1683,-1.153,0.0,0.0,0.0,0.0,0.0,0.0,0.0,-0.5807,-0.6492,-0.7184,-0.9175,-1.0538,-1.0571,-1.2357,-1.2835,-1.1115,-1.0897,-0.9989,-0.7912,-0.7847,-0.7781,-0.7525,-0.8729,-1.0158,-1.1765,-1.2419,-1.3974,-1.6477,-1.6516,-1.7321,-1.8833,-1.8642,-1.898,-1.9669,-1.9331,-1.9525,-2.005,-1.803,-1.6662,-1.5836,-1.4891,-1.3562,-1.2025,0.0,0.0,0.0,0.0,0.0,0.0,0.0,0.0,0.0,0.0,0.0,0.0,0.0,0.0,0.0,0.0,0.0,0.0,0.0,0.0,0.0,0.0,0.0,0.0,0.0,0.0,0.0,0.0,0.0,0.0,0.0,0.0,0.0,0.0,-1.5035,-1.5833,-1.5116,-1.5069,-1.4588,-1.3241,-1.2326,-1.2295,-1.3548,-1.4058,-1.4844,-1.6155,-1.6417,-1.6498,-1.6498,-1.6597,-1.6696,-1.6701,-1.6696,-1.6696,-1.6701,-1.5664,-1.5167,-1.512,-1.3992,-1.327,-1.2902,-1.3099,-1.2915,-1.2461,-1.1807,-1.1874,-1.2301,-1.1998,-1.1693,-1.1378,-1.0729,-1.0411,-1.0188,0.0,0.0,0.0,0.0,0.0,0.0,-0.4931,-0.5156,-0.5665,-0.71,-0.8032,-0.8615,-0.8748,-0.9681,-1.0461,-1.0796,-0.9572,-0.8745,-0.8629,-0.7286,-0.6284,-0.5843,-0.7578,-0.8919,-0.9776,-1.2597,-1.4388,-1.5081,-1.659,-1.7536,-1.8041,-1.8041,-1.8452,-1.9217,-1.9228,-1.9745,-2.0598,-2.0521,-1.9885,-1.8797,-1.8205,-1.6848,-1.5025,0.0,0.0,0.0,0.0,0.0,0.0,0.0,0.0,0.0,0.0,0.0,0.0,0.0,0.0,0.0,0.0,0.0,0.0,0.0,0.0,0.0,0.0,0.0,0.0,0.0,0.0,0.0,0.0,0.0,0.0,0.0,0.0,0.0,-1.0376,-1.2274,-1.3011,-1.1283,-1.3261,-1.4003,-1.196,-1.2618,-1.3202,-1.3248,-1.3488,-1.374,-1.3915,-1.3843,-1.3817,-1.3817,-1.3743,-1.3737,-1.3805,-1.3731,-1.3737,-1.3799,-1.3683,-1.3629,-1.3623,-1.3534,-1.2935,-1.2012,-1.2899,-1.2615,-1.1421,-1.0028,-0.9339,-0.9304,-1.117,-1.1902,-1.1617,-0.9205,-0.8413,-0.8171,0.0,0.0,0.0,0.0,0.0,0.0,-0.3707,-0.4081,-0.4465,-0.4892,-0.6728,-0.8042,-0.8072,-0.9614,-1.0308,-0.9456,-0.8877,-0.8151,-0.7092,-0.6516,-0.6176,-0.6086,-0.6814,-0.7922,-0.9405,-1.0327,-1.1954,-1.4379,-1.4817,-1.5602,-1.6736,-1.6736,-1.6909,-1.7283,-1.7431,-1.7696,-1.8096,-1.8415,-1.8369,-1.8188,-1.8903,-1.8475,-1.7247,0.0,0.0,0.0,0.0,0.0,0.0,0.0,0.0,0.0,0.0,0.0,0.0,0.0,0.0,0.0,0.0,0.0,0.0,0.0,0.0,0.0,0.0,0.0,0.0,0.0,0.0,0.0,0.0,0.0,0.0,0.0,-0.8155,-0.9484,-1.134,-1.218,-1.2619,-1.2657,-1.242,-1.2105,-1.1583,-1.0872,-1.0926,-1.208,-1.2192,-1.2763,-1.3957,-1.3934,-1.3861,-1.3861,-1.3825,-1.383,-1.3725,-1.378,-1.378,-1.3725,-1.264,-1.21,-1.1972,-1.0201,-0.9194,-0.8715,-0.8248,-0.7813,-0.7389,-0.688,-0.606,-0.5268,-0.6835,-0.7443,-0.7159,-0.5449,-0.416,-0.3362,0.0,0.0,0.0,0.0,0.0,0.0,-0.2269,-0.2622,-0.3058,-0.3669,-0.536,-0.6289,-0.5723,-0.7501,-0.8254,-0.7019,-0.7281,-0.7119,-0.6252,-0.594,-0.5917,-0.6142,-0.6506,-0.7536,-0.9307,-0.9564,-1.0859,-1.3246,-1.3813,-1.4552,-1.5507,-1.6016,-1.6426,-1.6745,-1.6868,-1.7029,-1.7246,-1.7625,-1.7814,-1.793,-1.862,-1.8623,-1.8145,-1.7273,-1.6747,-1.6317,-1.5515,-1.3877,-1.202,-1.1256,0.0,0.0,0.0,0.0,0.0,0.0,0.0,0.0,0.0,0.0,0.0,0.0,0.0,0.0,0.0,0.0,0.0,0.0,0.0,0.0,0.0,0.0,0.0,0.0,-0.7558,-0.9004,-1.0745,-1.0951,-1.1084,-1.1647,-1.0998,-1.0597,-1.0699,-1.0016,-0.9927,-1.0816,-1.0908,-1.1354,-1.2265,-1.2261,-1.1975,-1.1481,-1.1924,-1.1837,-1.1273,-1.1332,-1.1332,-1.1273,-0.9893,-0.9225,-0.9139,-0.7711,-0.6776,-0.625,-0.6061,-0.5318,-0.4284,-0.4189,-0.3315,0.0,0.0,0.0,0.0,0.0,-0.1227,-0.0321,0.0,0.0,0.0,0.0,0.0,0.0,-0.0706,-0.0932,-0.1471,-0.2822,-0.3721,-0.3791,-0.2618,-0.4229,-0.5082,-0.4256,-0.5186,-0.5829,-0.5868,-0.5579,-0.5643,-0.6084,-0.6482,-0.7437,-0.9065,-0.9404,-1.0277,-1.172,-1.285,-1.3613,-1.4063,-1.5272,-1.6104,-1.6582,-1.6721,-1.6851,-1.6921,-1.7306,-1.7453,-1.7462,-1.7483,-1.7846,-1.821,-1.7287,-1.7397,-1.7892,-1.6694,-1.5684,-1.4588,-1.2157,0.0,0.0,0.0,0.0,0.0,0.0,0.0,0.0,0.0,0.0,0.0,0.0,0.0,0.0,0.0,0.0,0.0,0.0,0.0,0.0,0.0,0.0,0.0,0.0,-0.7349,-0.8435,-0.8981,-0.912,-0.9261,-0.9497,-0.9525,-0.9562,-0.9702,-0.9783,-0.9832,-0.9832,-0.9751,-0.97,-0.972,0.0,0.0,0.0,0.0,-0.8804,-0.7718,-0.7718,-0.7612,-0.7404,-0.6409,-0.5812,-0.5558,-0.5466,-0.4906,-0.4028,-0.4768,-0.3845,-0.1798,-0.1795,-0.0941,0.0179,-0.1927,-0.194,-0.0679,-0.0041,0.0849,0.172,0.0,0.0,0.0,0.0,0.0,0.0,0.1157,0.0679,0.0204,-0.0421,-0.1109,-0.1439,-0.1109,-0.1808,-0.2612,-0.349,-0.3927,-0.4595,-0.559,-0.5594,-0.5737,-0.6158,-0.6456,-0.6825,-0.7225,-0.7438,-0.816,-0.9361,-0.9612,-1.0209,-1.1208,-1.2431,-1.3111,-1.3374,-1.4445,-1.4509,-1.3922,-1.5077,-1.4998,-1.4209,-1.5283,-1.6743,-1.8228,-1.7483,-1.7406,-1.7606,-1.6987,-1.5842,-1.46,-1.4585,-1.2207,-0.9351,-0.9744,-0.8313,0.0,0.0,0.0,0.0,0.0,0.0,0.0,0.0,0.0,0.0,0.0,0.0,0.0,0.0,0.0,0.0,0.0,0.0,0.0,-0.1198,-0.3866,-0.6078,-0.6304,-0.8256,-0.9706,-0.9759,-0.9763,-0.9749,-0.9838,-0.9866,-0.9875,-0.9875,-0.9061,-0.8553,-0.8675,-0.7717,-0.7049,-0.6881,-0.704,-0.6956,-0.6637,-0.6687,-0.6009,-0.4569,0.0,0.0,-0.2268,-0.1508,-0.1105,-0.0934,-0.028,0.0232,0.0643,0.0683,0.1581,0.2729,0.1193,0.1391,0.2472,0.1553,0.2595,0.4288,0.0,0.0,0.0,0.0,0.0,0.0,0.2691,0.2138,0.1601,0.1019,0.0082,-0.0256,0.055,-0.0563,-0.1353,-0.1202,-0.2647,-0.3872,-0.4594,-0.5433,-0.6035,-0.6337,-0.6612,-0.6776,-0.679,-0.6966,-0.7312,-0.7893,-0.8568,-0.9213,-0.9871,-1.1157,-1.1551,-1.1239,-1.1914,-1.1683,-1.0889,-1.1616,-1.1605,-1.1219,-1.1775,-1.2735,-1.4104,-1.6321,-1.7539,-1.8063,-1.791,-1.7088,-1.5997,-1.5724,-1.3394,-1.0571,-1.0493,-0.8937,-0.7075,0.0,0.0,0.0,0.0,0.0,0.0,0.0,0.0,0.0,0.0,0.0,0.0,0.0,0.0,0.0207,0.1669,0.0,0.0,0.0236,-0.1747,-0.3384,-0.3583,-0.4797,-0.6521,-0.8807,-0.9117,-0.8891,-0.8396,-0.7613,-0.7086,-0.7086,-0.5771,-0.495,-0.5046,-0.4428,-0.3831,-0.3307,-0.3831,-0.3745,-0.3065,-0.313,-0.2757,-0.1863,-0.136,-0.0648,0.0147,0.0588,0.0822,0.0803,0.1263,0.1853,0.2567,0.3268,0.3964,0.457,0.3878,0.3996,0.4471,0.3722,0.42,0.5161,0.0,0.0,0.0,0.0,0.0,0.0,0.4099,0.3623,0.3096,0.2438,0.1327,0.1065,0.2337,0.0695,-0.0117,0.0903,-0.1409,-0.296,-0.3143,-0.4394,-0.5237,-0.5417,-0.5648,-0.5894,-0.6112,-0.6217,-0.6396,-0.6644,-0.7734,-0.8318,-0.8463,-0.9773,-1.0025,-0.9402,-0.9636,-0.9227,-0.8408,-0.8665,-0.8767,-0.8756,-0.8833,-0.9067,-0.981,-1.3988,-1.6082,-1.6823,-1.6925,-1.6543,-1.5852,-1.488,-1.2967,-1.0865,-0.9904,-0.8558,-0.7122,-0.6058,-0.5807,0.0,0.0,0.0,0.0,0.0,0.0,0.0,0.0,-0.036,0.0449,0.1981,0.2378,0.2493,0.2784,0.2203,0.1623,0.1503,0.0352,-0.0609,-0.0785,-0.1263,-0.29,-0.6341,-0.6957,-0.6763,-0.5874,-0.4581,-0.3776,-0.3782,-0.2287,-0.1384,-0.1388,-0.1171,-0.0637,0.0317,-0.0584,-0.0528,0.0468,0.0366,0.052,0.087,0.1736,0.2325,0.2587,0.2565,0.2528,0.2569,0.242,0.298,0.4173,0.5264,0.5696,0.5696,0.5696,0.5673,0.561,0.5514,0.539,0.5327,0.0,0.0,0.0,0.0,0.0,0.0,0.0,0.0,0.512,0.4699,0.4135,0.3886,0.412,0.3276,0.2203,0.1015,-0.0322,-0.1123,-0.122,-0.1337,-0.1435,-0.1509,-0.1682,-0.2212,-0.3248,-0.333,-0.39,-0.4977,-0.5184,-0.5287,-0.5314,-0.6508,-0.7088,-0.7192,-0.8291,-0.8189,-0.7333,-0.8352,-0.8259,-0.7512,-0.8626,-0.911,-0.9314,-1.0171,-1.0469,-1.0435,-1.0446,-1.0388,-1.0315,-1.0167,-0.9131,-0.7893,-0.7866,-0.6828,-0.5542,-0.5322,-0.5128,-0.4907,-0.4631,-0.411,-0.3185,-0.1332,-0.1299,-0.1195,0.0,0.1035,0.1262,0.3319,0.3837,0.4258,0.5597,0.5831,0.5826,0.5811,0.3719,0.2093,0.2118,0.0,-0.1399,-0.0814,-0.1767,-0.2349,-0.2116,-0.2037,-0.1972,-0.1933,-0.0854,-0.0214,-0.0217,0.0751,0.1393,0.1523,0.1395,0.1383,0.1539,0.1516,0.223,0.3673,0.3716,0.4471,0.5871,0.5866,0.5773,0.5612,0.5408,0.5399,0.548,0.5654,0.5696,0.5696,0.5696,0.57,0.5682,0.5668,0.5594,0.5489,0.0,0.0,0.0,0.0,0.0,0.0,0.0,0.0,0.5562,0.5426,0.4954,0.4595,0.4404,0.3868,0.3212,0.2488,0.1204,0.0403,0.0386,-0.044,-0.0922,-0.0964,-0.1053,-0.1287,-0.1704,-0.1762,-0.2385,-0.3603,-0.3686,-0.4149,-0.4918,-0.5424,-0.5471,-0.5121,-0.5636,-0.5335,-0.4502,-0.5023,-0.4981,-0.4623,-0.5192,-0.5445,-0.5475,-0.561,-0.5643,-0.5936,-0.8696,-0.9708,0.0,-0.9645,-0.872,-0.7587,-0.7747,-0.672,-0.5373,-0.4793,-0.4006,-0.299,-0.1535,-0.0908,-0.0414,0.0645,0.0657,0.0895,0.275,0.2981,0.3347,0.5076,0.5488,0.5733,0.643,0.6611,0.669,0.6749,0.5788,0.5082,0.5127,0.4171,0.3588,0.4093,0.3672,0.2526,0.0595,0.1297,0.1888,0.1885,0.3237,0.4056,0.401,0.4469,0.4727,0.4684,0.4651,0.4685,0.4685,0.465,0.4977,0.5546,0.5505,0.5849,0.6473,0.6437,0.627,0.614,0.6629,0.6765,0.675,0.73,0.7505,0.7502,0.7411,0.7372,0.7248,0.6104,0.5641,0.5564,0.0,0.0,0.0,0.0,0.0,0.0,0.0,0.0,0.0,0.0,0.5418,0.4974,0.4642,0.4303,0.4055,0.4021,0.2939,0.2275,0.2312,0.1208,0.0581,0.0606,0.0618,0.0546,0.0312,0.0277,-0.0359,-0.1551,-0.169,-0.223,-0.3173,-0.3241,-0.2972,-0.2403,-0.2422,-0.2047,-0.1458,-0.1495,-0.1508,-0.1507,-0.1571,-0.1622,-0.1665,-0.1656,-0.1686,-0.2311,-0.6411,-0.7877,-0.7878,-0.7807,-0.711,-0.6269,-0.6049,-0.5224,-0.4142,-0.3108,-0.2037,-0.0851,0.0916,0.1448,0.1632,0.2311,0.2473,0.2871,0.4459,0.4874,0.525,0.6288,0.6605,0.6648,0.6744,0.6801,0.6861,0.6924,0.6935,0.6948,0.6992,0.7,0.6992,0.6976,0.6935,0.593,0.3441,0.4333,0.5115,0.5161,0.6273,0.6987,0.6959,0.6943,0.6913,0.6869,0.685,0.6834,0.6818,0.6801,0.6905,0.7075,0.7058,0.7199,0.744,0.7352,0.7172,0.7055,0.7803,0.7989,0.7927,0.8603,0.8886,0.8853,0.8718,0.8697,0.8525,0.7033,0.6306,0.6045,0.0,0.0,0.0,0.0,0.0,0.0,0.0,0.0,0.0,0.0,0.0,0.5442,0.5122,0.5063,0.5132,0.5325,0.4951,0.4763,0.4884,0.4612,0.4535,0.4732,0.4902,0.4502,0.3406,0.3357,0.2754,0.1569,0.1502,0.1433,0.1407,0.1407,0.1372,0.1343,0.1344,0.1396,0.1453,0.1455,0.1517,0.1544,0.1484,0.1389,0.1252,0.1182,0.1065,0.0579,-0.192,-0.283,-0.2796,-0.2729,-0.2751,-0.257,-0.1462,-0.1125,-0.0896,0.038,0.096,0.1251,0.1594,0.1676,0.2081,0.372,0.4131,0.4539,0.6103,0.6481,0.6523,0.6578,0.6728,0.6812,0.6815,0.6864,0.6927,0.6987,0.7,0.7,0.7,0.7,0.6978,0.6918,0.691,0.6832,0.0,0.6768,0.6851,0.7021,0.6981,0.7027,0.7085,0.7027,0.6992,0.6992,0.6937,0.6878,0.6818,0.6758,0.7249,0.8343,0.8276,0.8818,0.98,0.9574,0.944,0.9395,0.9354,0.921,0.9042,0.9084,0.9035,0.8998,0.8857,0.8878,0.8932,0.8615,0.7926,0.7156,0.0,0.0,0.0,0.0,0.0,0.0,0.0,0.0,0.0,0.0,0.0,0.0,0.0,0.0,0.0,0.0,0.5363,0.5411,0.5599,0.5884,0.6152,0.6414,0.6785,0.6866,0.6639,0.6657,0.6102,0.4961,0.5012,0.4564,0.3656,0.3656,0.331,0.2614,0.2633,0.228,0.1652,0.163,0.164,0.1684,0.1531,0.1435,0.1384,0.124,0.1081,0.0893,0.0,-0.0228,-0.0266,-0.0262,-0.0264,-0.0232,0.0119,0.0322,0.0687,0.2152,0.2637,0.2997,0.4097,0.4528,0.4818,0.5537,0.5765,0.596,0.6544,0.6744,0.6758,0.6758,0.6672,0.6635,0.6597,0.6637,0.6747,0.6809,0.6921,0.7014,0.7055,0.709,0.7063,0.6927,0.7686,0.0,0.0,0.0,0.0,0.7027,0.7085,0.7494,0.8251,0.8178,0.8502,0.9205,0.9125,0.9071,0.9042,0.9013,0.9187,0.9554,0.9411,0.953,0.9905,0.9731,0.9629,0.9596,1.025,1.0449,1.0418,1.1021,1.1257,1.1207,1.1016,1.0966,1.0981,1.079,1.0056,0.9082,0.0,0.0,0.0,0.0,0.0,0.0,0.0,0.0,0.0,0.0,0.0,0.0,0.0,0.0,0.0,0.0,0.0,0.6911,0.7176,0.7071,0.7178,0.7493,0.7506,0.7596,0.7819,0.8278,0.8261,0.7703,0.8255,0.8106,0.7369,0.7442,0.7143,0.6482,0.6037,0.5291,0.4387,0.3802,0.3352,0.3103,0.2914,0.2792,0.2715,0.2496,0.2375,0.0,0.2272,0.2197,0.202,0.1245,0.0976,0.1042,0.1449,0.2017,0.2722,0.3817,0.4206,0.4542,0.5652,0.6106,0.6289,0.6499,0.6608,0.6675,0.6828,0.6834,0.6823,0.6845,0.6667,0.6543,0.6508,0.6494,0.6575,0.6627,0.6812,0.6937,0.7041,0.7471,0.7712,0.7485,0.8644,0.9451,0.0,0.0,0.0,0.832,0.841,0.8773,0.9502,0.9455,0.9769,1.0499,1.0437,1.0322,1.0257,1.0253,1.0424,1.0757,1.101,1.1138,1.1134,1.1028,1.0932,1.089,1.1539,1.1753,1.1652,1.2266,1.2503,1.2395,1.215,1.2107,1.2156,1.1911,1.1406,1.0738,0.0,0.0,0.0,0.0,0.0,0.0,0.0,0.0,0.0,0.0,0.0,0.0,0.0,0.0,0.0,0.0,0.0,0.0,0.9493,0.8292,0.7784,0.8238,0.7443,0.7128,0.7374,0.8509,0.9381,0.9907,1.1123,1.1891,1.2264,1.2472,1.2483,1.2353,1.1063,0.999,0.9105,0.7582,0.6504,0.5701,0.5478,0.5297,0.5166,0.4894,0.4733,0.4605,0.4548,0.4458,0.4092,0.1998,0.1319,0.1618,0.2881,0.4211,0.5348,0.5524,0.5839,0.6218,0.6458,0.6721,0.6972,0.7104,0.7144,0.7151,0.7103,0.7072,0.7044,0.6988,0.6808,0.6636,0.6628,0.6581,0.6564,0.6751,0.6843,0.6958,0.7142,0.8207,0.8865,0.0,0.0,0.0,0.0,0.0,0.0,1.091,0.0,1.0751,1.0807,1.0807,1.0821,1.0904,1.0896,1.0795,1.0566,1.0561,1.105,1.2021,1.2959,1.3423,1.3417,1.3241,1.3178,1.3131,1.3131,1.2944,1.2732,1.2727,1.2661,1.2488,1.2297,1.2341,1.2439,1.1979,1.1993,1.2035,0.0,0.0,0.0,0.0,0.0,0.0,0.0,0.0,0.0,0.0,0.0,0.0,0.0,0.0,0.0,0.0,0.0,0.0,0.9867,0.9992,1.0193,1.0392,1.0815,1.1087,1.1264,1.1817,1.2206,1.247,1.2896,1.3125,1.3241,1.3282,1.2471,1.0908,1.0585,0.9448,0.7742,0.6856,0.6352,0.6088,0.5371,0.5095,0.5046,0.4853,0.4759,0.4677,0.466,0.4644,0.4514,0.3923,0.438,0.5375,0.6501,0.8151,0.9256,0.732,0.9381,1.1831,0.9968,1.1109,1.2926,1.2996,1.2748,1.2045,1.0326,1.0269,1.0049,0.8116,0.82,0.8565,0.8336,0.8366,0.8521,0.8881,0.9206,0.9541,0.9733,1.0197,0.0,1.0123,0.0,1.2233,1.2011,1.299,0.0,0.0,1.1839,1.1111,1.2134,1.2074,1.2469,1.3334,1.3216,1.3158,1.3096,1.2966,1.3075,1.3311,1.3363,1.3423,1.3417,1.3241,1.317,1.3194,1.3194,1.3162,1.3096,1.3009,1.296,1.2912,1.2667,1.2607,1.264,1.2379,1.2335,1.2281,0.0,0.0,0.0,0.0,0.0,0.0,0.0,0.0,0.0,0.0,0.0,0.0,0.0,0.0,0.0,0.0,0.0,0.0,0.0,1.2034,1.1913,1.217,1.1894,1.1828,1.1983,1.2796,1.3305,1.3523,1.4247,1.4641,1.4721,1.4374,1.3555,1.2395,1.1355,1.0075,0.8602,0.7552,0.6874,0.0,0.0,0.5763,0.5781,0.5634,0.5649,0.5705,0.5705,0.5867,0.6277,0.7594,0.826,0.8834,1.0302,1.1603,1.231,1.0942,1.2561,1.4465,1.2946,1.3951,1.5407,1.5372,1.4534,1.3407,1.204,1.1279,1.048,0.8879,0.8856,0.9127,0.889,0.8987,0.9198,0.9645,1.0025,1.0392,1.0684,1.1403,1.1715,0.0,1.2761,0.0,1.3532,1.4257,1.4716,0.0,1.3409,1.2886,1.3617,1.3561,1.3855,1.4477,1.4292,1.414,1.4037,1.3917,1.3917,1.3911,1.3673,1.358,1.3575,1.3455,1.3316,1.3268,0.0,1.3259,1.3162,1.3096,1.3087,1.2971,1.2781,1.2738,1.2765,1.2547,1.2526,1.2493,0.0,0.0,0.0,0.0,0.0,0.0,0.0,0.0,0.0,0.0,0.0,0.0,0.0,0.0,0.0,0.0,0.0,0.0,0.0,0.0,1.3227,1.3517,1.2054,1.1318,1.1484,1.2713,1.3481,1.3794,1.5073,1.5719,1.5758,1.5044,1.4581,1.4225,1.2223,1.0897,1.0021,0.8608,0.7601,0.6946,0.6765,0.6709,0.6767,0.0,0.6803,0.7023,0.7085,0.7465,0.8487,1.1737,1.2207,1.1776,1.388,1.4875,1.5242,1.511,1.5718,1.6263,1.5828,1.6347,1.6949,1.671,1.5341,1.3843,1.3288,1.1727,1.0197,0.953,0.9324,0.9301,0.9195,0.9287,0.9556,1.0089,1.0359,1.0743,1.1193,1.2316,1.2983,1.2839,1.3968,1.4727,1.4744,1.4744,1.4841,1.5064,1.4994,1.4997,1.4912,1.4943,1.4872,1.4673,1.4559,1.4407,1.4139,1.4048,1.4037,1.4031,1.3847,1.3787,1.3781,1.3662,1.3548,1.3444,1.3428,1.3308,1.3164,1.3136,1.3009,1.2901,1.2797,1.2808,1.2868,1.2694,1.2672,1.2716,0.0,0.0,0.0,0.0,0.0,0.0,0.0,0.0,0.0,0.0,1.5152,1.5049,0.0,0.0,0.0,0.0,0.0,0.0,0.0,0.0,0.0,1.4153,1.3688,1.3465,1.3498,1.3917,1.415,1.4183,1.4448,1.4217,1.3474,1.3347,1.2354,1.0697,1.0273,0.9602,0.8695,0.7804,0.7406,0.7349,0.6816,0.6627,0.6647,0.6914,0.0,0.0,0.7467,0.8194,0.9637,1.3598,1.4153,1.3573,1.6345,1.848,1.9487,1.7285,1.9399,2.1977,1.9667,2.0928,2.2849,2.2814,2.0987,1.8723,1.6619,1.4957,1.3156,1.0782,1.0889,1.1413,1.1159,1.1319,1.1715,1.2389,1.2792,1.3225,1.3765,1.4253,1.4495,0.0,1.4764,1.501,1.5124,1.5124,0.0,0.0,1.5401,1.5363,1.5162,1.5064,1.4896,1.4689,1.4559,1.4488,1.4445,1.4222,1.4053,1.4053,1.389,1.3787,1.3781,1.3662,1.3591,1.3564,1.3466,0.0,1.3346,1.3151,1.3109,1.3037,1.3015,1.296,1.2906,1.3008,1.3004,1.2852,0.0,0.0,0.0,0.0,0.0,0.0,0.0,1.4835,1.5209,1.6018,1.6018,1.5971,1.6077,1.6203,1.6219,0.0,0.0,0.0,0.0,0.0,0.0,1.4478,1.4061,1.3844,1.3844,1.4052,1.3853,1.3211,0.0,1.2845,1.1796,1.1271,1.0497,0.9511,0.9117,0.8681,0.8264,0.7998,0.7954,0.8061,0.7834,0.7809,0.7934,0.8141,0.0,0.0,1.0465,1.1039,1.1576,1.5455,1.6682,1.7054,1.9849,2.15,2.2101,2.0714,2.2106,2.3831,2.2246,2.3182,2.4614,2.4457,2.213,1.9453,1.7938,1.5501,1.3085,1.1377,1.1383,1.1723,1.1563,1.1737,1.2118,1.2776,1.3129,1.3602,1.439,1.4657,1.4883,1.5026,1.6138,1.6485,1.5428,1.6305,1.6548,1.5598,1.5543,1.5499,1.532,1.5135,1.4983,1.4869,1.4629,1.4504,1.4504,1.432,1.4183,1.4183,1.4053,1.3934,1.3928,1.3754,1.3667,1.3597,1.3477,1.3385,1.3268,1.3205,1.3086,1.2982,1.3047,1.2999,1.2912,1.3086,1.3042,1.2895,0.0,0.0,0.0,0.0,0.0,0.0,0.0,1.5234,1.5656,1.673,1.6911,1.6948,1.6948,1.708,1.7177,0.0,0.0,0.0,0.0,0.0,0.0,0.0,0.0,0.0,1.3384,0.0,0.0,1.193,1.2092,0.0,0.0,0.0,0.0,0.0,0.8395,0.816,0.8248,0.8345,0.8497,0.0,0.0,0.9393,0.958,0.0,0.0,0.0,0.0,1.3613,1.3404,1.6828,1.8482,1.9603,2.2122,2.3206,2.3555,2.3394,2.3805,2.4255,2.3918,2.4353,2.4844,2.4693,2.1909,1.9031,1.8416,1.5283,1.2335,1.1672,1.1537,1.151,1.1532,1.165,1.1935,1.2602,1.2868,1.3336,1.432,1.5061,1.5647,1.602,1.8152,0.0,1.7313,1.864,0.0,1.6637,1.5944,1.5532,1.5434,1.5233,1.5049,1.5022,1.4727,1.4548,1.4548,1.439,1.432,1.432,1.4139,1.408,1.4042,1.3852,1.3732,1.3635,1.3455,0.0,1.3181,1.3132,1.3053,1.2901,1.3076,1.2999,1.2906,1.3053,1.3015,1.2906,0.0,0.0,0.0,0.0,0.0,0.0,0.0,1.5668,1.6199,1.7303,1.7653,1.7798,1.7798,1.7605,1.7443,0.0,0.0,0.0,0.0,0.0,0.0,0.0,0.0,0.0,0.0,0.0,0.0,1.1125,1.114,0.0,0.0,0.0,0.0,0.0,0.0,0.8253,0.8372,0.8383,0.0,0.0,0.0,0.0,0.0,0.0,0.0,0.0,0.0,1.4141,1.4488,1.7229,1.8235,1.8718,2.0936,2.2557,2.3583,2.3564,2.3918,2.4349,2.4457,2.4684,2.4882,2.4863,2.2002,1.9091,1.8597,1.5384,1.2342,1.1889,1.1607,1.1532,1.1596,1.1594,1.1838,1.2591,1.2721,1.3113,1.4178,1.6491,1.8278,1.8838,2.1174,0.0,2.2737,2.2814,2.1841,1.9421,1.6963,1.557,1.5559,1.5434,1.5304,1.5206,1.4858,1.4657,1.4657,1.4434,1.432,1.432,1.4139,1.4085,1.4053,1.389,1.3781,1.3749,1.3406,0.0,0.0,1.3009,1.2906,1.2901,1.3076,1.2999,1.2917,1.314,1.308,1.2906,0.0,0.0,0.0,0.0,0.0,0.0,1.5378,1.5584,1.6091,1.7351,1.7738,1.7968,1.8106,1.8064,1.7691,1.6944,0.0,0.0,0.0,0.0,0.0,0.0,0.0,0.0,0.0,0.0,1.1018,1.0094,1.019,0.0,0.0,0.0,0.0,0.0,0.0,0.834,0.8388,0.8492,0.0,0.0,0.0,0.0,0.0,0.0,0.0,0.0,0.0,0.0,1.5713,1.7787,1.8763,1.9177,1.9959,2.0989,2.198,2.2416,2.3086,2.3748,2.3956,2.4438,2.4882,2.4882,2.2011,1.9076,1.8564,1.5381,1.2325,1.1778,1.1574,1.1515,1.152,1.1525,1.1688,1.2194,1.2275,1.3136,1.553,1.6814,1.8487,2.1083,2.3305,2.4324,2.3611,2.3174,2.1339,1.7392,1.6084,1.5461,1.5461,1.5418,1.5374,1.532,1.5037,1.4858,1.4844,1.4548,1.4434,1.4434,1.4309,1.415,1.4085,1.4042,1.3923,1.3776,1.3553,0.0,0.0,1.3089,1.3015,1.2901,1.3076,1.2999,1.2906,1.3075,1.3031,1.2906,0.0,0.0,0.0,0.0,0.0,1.457,1.5378,1.5559,1.6066,1.7322,1.7677,1.7919,1.8251,1.7807,1.7081,1.6008,1.566,0.0,0.0,0.0,0.0,0.0,0.0,0.0,0.0,0.0,1.0084,0.9105,0.9239,0.8977,0.0,0.0,0.8307,0.8313,0.0,0.0,0.0,0.0,0.0,0.0,0.0,0.0,0.0,0.0,0.0,0.0,0.0,0.0,0.0,0.0,0.0,2.0187,1.9997,2.0345,2.0859,2.146,2.2378,2.3313,2.3644,2.4343,2.5095,2.5423,2.2324,1.9228,1.8991,1.5582,1.2324,1.1751,1.159,1.1498,1.1504,1.1559,1.1701,1.1944,1.2556,1.3759,1.5776,1.7308,1.9325,2.2294,2.4539,2.5484,2.4494,2.2794,2.0338,1.6887,1.5848,1.5418,1.5488,1.5434,1.5374,1.5347,1.5108,1.4939,1.4915,1.4619,1.4504,1.4504,1.4379,1.431,1.436,1.4195,1.408,1.4099,1.3726,0.0,0.0,1.3165,1.3069,1.2895,1.2982,1.2966,1.2895,1.2988,1.2988,1.295,0.0,0.0,0.0,0.0,0.0,0.0,1.5378,1.5716,1.6272,1.7375,1.7491,1.7726,1.8239,1.6684,1.5338,1.4588,1.4094,0.0,0.0,0.0,0.0,0.0,0.0,0.0,0.0,0.0,0.908,0.8199,0.8356,0.8475,0.8584,0.8584,0.8584,0.8584,0.0,0.0,0.0,0.0,0.0,0.0,0.0,0.0,1.8537,0.0,0.0,0.0,0.0,0.0,0.0,0.0,0.0,0.0,0.0,2.1128,2.0695,2.1082,2.2047,2.3153,2.3838,2.457,2.5479,2.6569,2.3132,1.9523,2.0153,1.6208,1.2301,1.1895,1.1675,1.1596,1.1521,1.165,1.1851,1.1971,1.3964,1.5109,1.4177,1.8255,2.1609,2.2252,2.4732,2.6342,2.627,2.2114,1.9468,1.9543,1.6959,0.0,1.5805,1.5516,1.5331,1.5222,1.4983,1.4915,1.4915,1.4619,1.4504,1.4504,1.4379,1.4531,1.4963,1.4365,1.4348,1.4756,0.0,0.0,0.0,1.3167,1.2999,1.289,1.289,1.289,1.289,1.289,1.2966,1.3104,0.0,0.0,0.0,0.0,0.0,0.0,0.0,1.504,1.5403,1.6284,1.5881,1.563,1.5946,1.4807,1.3854,1.344,1.2853,0.0,0.0,0.0,0.0,0.0,0.0,0.0,0.0,0.0,0.8479,0.8204,0.8661,0.8916,0.8984,1.0167,1.0723,1.0756,1.1739,1.2324,0.0,0.0,0.0,0.0,0.0,1.8611,1.9418,0.0,0.0,0.0,0.0,0.0,0.0,0.0,0.0,0.0,0.0,0.0,0.0,2.1801,2.2333,2.2984,2.4036,2.4928,2.5543,2.59,2.3818,2.1722,2.1925,1.9485,1.7111,1.6764,1.5488,1.4442,1.4496,1.4459,1.4597,1.4973,1.6639,1.8519,2.0325,2.2092,2.4232,2.7095,2.7307,2.6492,2.4579,2.1369,1.8705,1.7006,1.5874,1.5304,1.5391,1.5233,1.5206,1.5331,1.5195,1.5064,1.4983,1.4825,1.4757,1.4619,1.4504,1.462,1.4963,1.4448,1.4431,0.0,0.0,0.0,1.3526,1.3287,1.3162,1.3118,1.3042,1.3065,1.3065,1.3065,1.3037,1.3064,0.0,0.0,0.0,0.0,0.0,0.0,0.0,1.4322,1.4579,1.5077,1.4374,1.4013,1.4522,1.3118,1.2078,1.2012,1.1154,0.0,0.0,0.0,0.0,0.0,0.0,0.0,0.7903,0.8111,0.829,0.8495,0.9522,1.0143,1.0396,1.2026,1.2754,1.2682,1.3574,1.4167,0.0,0.0,0.0,0.0,1.9187,1.9674,2.0164,0.0,0.0,0.0,0.0,0.0,0.0,0.0,0.0,0.0,0.0,0.0,0.0,0.0,2.3184,2.338,2.4254,2.5099,2.5805,2.625,2.4546,2.2868,2.3339,2.0664,1.8097,1.8085,1.6978,1.5824,1.5066,1.625,1.6886,1.5542,1.8197,2.0676,2.1256,2.2409,2.3843,2.5635,2.5078,2.3747,2.1801,1.9385,1.7272,1.5812,1.5331,1.5206,1.5347,1.5151,1.5108,1.5249,1.5189,1.5108,1.4979,1.4912,1.4855,1.4673,1.4559,1.4664,1.4963,1.4492,1.4492,0.0,0.0,1.3906,0.0,1.3406,1.323,1.3181,1.3162,1.3134,1.3134,1.3134,1.3162,1.32,0.0,0.0,0.0,0.0,0.0,0.0,0.0,1.363,1.3733,1.3765,1.2878,1.2623,1.3567,1.15,1.0127,1.0297,0.0,0.0,0.0,0.0,0.0,0.0,0.0,0.0,0.7913,0.8117,0.8553,0.9133,1.0845,1.1973,1.2593,1.4138,1.4643,1.4279,1.4345,1.4887,0.0,0.0,0.0,0.0,1.9612,1.9782,0.0,0.0,0.0,0.0,0.0,0.0,0.0,0.0,0.0,0.0,0.0,0.0,0.0,0.0,0.0,0.0,0.0,2.511,2.6129,2.7017,2.5089,2.3157,2.4212,2.0315,0.0,1.7102,1.7041,1.6314,1.4421,1.7351,1.8687,1.4712,1.907,2.1767,1.8378,2.0181,2.1358,1.9933,1.9505,1.9114,1.8639,1.6686,1.5505,1.5789,1.532,1.5206,1.5543,1.5233,1.4979,1.4963,1.4963,1.4963,1.4963,1.4912,1.4844,1.4719,1.4615,1.472,1.5006,1.4531,1.4531,0.0,0.0,1.3949,1.3781,1.3526,1.3305,1.3213,1.3203,1.3197,1.3197,1.3197,1.3273,1.3406,0.0,0.0,0.0,0.0,0.0,0.0,0.0,0.0,0.0,0.0,1.1028,1.0118,1.0509,0.9386,0.8533,0.0,0.0,0.0,0.0,0.0,0.0,0.0,0.0,0.0,0.8039,0.8439,0.9281,1.0545,1.1803,1.3058,1.4276,1.615,1.6312,1.5072,1.5893,1.5672,0.0,0.0,0.0,0.0,1.9277,2.0153,0.0,0.0,0.0,0.0,2.1947,2.1873,0.0,0.0,0.0,0.0,0.0,0.0,0.0,0.0,2.3886,2.2771,2.3064,0.0,2.5532,2.4384,2.3531,2.3107,0.0,2.264,2.2148,2.3891,2.1834,2.018,2.1592,2.0946,2.0042,1.9548,2.1677,2.2751,2.0907,2.1865,2.2902,2.3209,2.1039,1.9537,1.9625,1.7283,1.5718,1.5674,1.5418,1.5347,1.5434,1.5179,1.4994,1.4954,1.4896,1.4896,1.4896,1.4926,1.4978,1.5152,1.4834,1.4921,1.5422,1.4658,1.4531,0.0,1.4281,1.3993,1.3944,1.3558,1.3461,1.351,1.3412,1.3327,1.3327,1.3327,1.3395,1.3406,0.0,0.0,0.0,0.0,0.0,0.0,0.0,0.0,0.0,0.0,0.0,0.8755,0.9022,0.8303,0.0,0.0,0.0,0.0,0.0,0.0,0.0,0.0,0.0,0.8017,0.8083,0.8927,1.0019,1.1352,1.3228,1.4696,1.5779,1.7211,1.7143,1.5769,1.5818,1.5332,0.0,0.0,0.0,1.6578,1.8529,0.0,0.0,0.0,0.0,0.0,2.0823,2.0636,0.0,2.0676,2.1286,2.1641,0.0,0.0,0.0,0.0,2.1863,2.1239,2.1361,2.2378,2.3148,2.218,2.1906,2.1961,2.2286,2.2042,2.1958,2.2487,2.1663,2.094,2.1494,2.1198,2.1001,2.1175,2.2066,2.2206,2.0714,2.1798,2.2332,2.1102,1.9373,1.8318,1.8404,1.676,1.5673,1.5718,1.5488,1.5418,1.5472,1.5249,1.5037,1.4915,1.4855,1.4855,1.4915,1.4855,1.4963,1.5281,1.4847,1.4848,1.5301,1.4619,1.4448,0.0,1.4473,1.4226,1.3988,1.3894,1.3758,1.3597,1.3531,1.3504,1.3504,1.3504,1.3471,1.3412,0.0,0.0,0.0,0.0,0.0,0.0,0.0,0.0,0.0,0.0,0.0,0.0,0.0,0.0,0.0,0.0,0.0,0.0,0.0,0.0,0.0,0.0,0.8094,0.8187,0.8361,0.9467,1.0762,1.22,1.4627,1.6267,1.7093,1.7631,1.7096,1.5645,1.4588,1.4004,0.0,0.0,0.0,1.4924,1.7203,0.0,0.0,0.0,0.0,0.0,0.0,0.0,0.0,1.8151,1.8441,1.8708,1.8808,0.0,0.0,0.0,0.0,0.0,1.9512,1.9586,1.9753,2.0079,2.0122,2.0085,2.0437,2.0029,1.929,1.8499,1.9522,2.0152,1.8968,2.0381,2.1628,2.1293,2.129,2.085,1.9506,2.0488,2.0278,1.728,1.6742,1.6609,1.6455,1.5916,1.5674,1.5772,1.5516,1.5434,1.5543,1.5331,1.5092,1.4899,1.4784,1.4716,1.4855,1.4757,1.4874,1.5281,1.4775,1.4664,1.4963,1.4492,1.432,1.4309,0.0,0.0,1.3993,1.4201,1.4047,1.3602,1.3602,1.3602,1.3602,1.3602,1.3526,1.3417,0.0,0.0,0.0,0.0,0.0,0.0,0.0,0.0,0.0,0.0,0.0,0.0,0.0,0.0,0.0,0.0,0.0,0.0,0.0,0.0,0.0,0.8183,0.8137,0.854,0.9532,1.0054,1.1552,1.3988,1.5257,1.6564,1.7837,1.7605,1.5839,1.288,1.233,1.1284,1.0101,0.0,0.0,1.274,1.4348,0.0,0.0,0.0,0.0,0.0,0.0,0.0,0.0,1.7995,1.8793,1.9085,1.9017,0.0,0.0,0.0,0.0,0.0,1.7811,1.6879,1.6155,1.7494,1.7806,1.7798,1.7856,1.7879,1.835,2.007,1.9558,1.9385,2.1323,2.182,2.1937,2.1937,2.0284,1.9216,1.9743,1.8023,1.6748,1.6866,1.6351,1.602,1.6123,1.581,1.5586,1.5603,1.5472,1.5401,1.5418,1.5293,1.5064,1.4716,1.4689,1.4686,1.4559,1.4548,1.4802,1.5281,1.4775,1.4664,1.4963,1.4492,1.432,1.4309,0.0,1.4108,1.3999,1.3921,1.3806,1.3602,1.3602,1.3602,1.3602,1.3602,1.3526,1.3395,0.0,0.0,0.0,0.0,0.0,0.0,0.0,0.0,0.0,0.0,0.0,0.0,0.0,0.0,0.0,0.0,0.0,0.0,0.0,0.0,0.8361,0.8302,0.828,0.8788,0.9871,1.0758,1.235,1.4709,1.6004,1.6695,1.6823,1.4993,1.3103,1.1156,1.0657,1.0027,0.9418,1.0785,1.1302,1.139,0.0,0.0,0.0,0.0,0.0,0.0,0.0,0.0,0.0,0.0,1.6025,1.6145,1.6099,0.0,0.0,0.0,0.0,0.0,1.5742,1.5281,1.4954,1.5833,1.6147,1.6236,1.6104,1.6947,1.7781,1.7805,1.8134,1.8815,2.0173,2.0718,2.106,2.1466,2.1319,2.0388,1.8356,1.7968,1.7511,1.6529,1.6171,1.6044,1.6303,1.5871,1.5603,1.5673,1.5499,1.5418,1.5488,1.532,1.5081,1.4844,1.4757,1.4619,1.4504,1.4434,1.4675,1.5245,1.4692,1.4592,1.4963,1.4492,1.4276,1.4211,0.0,1.4243,1.3911,1.4058,1.3921,1.3613,1.3678,1.3662,1.3597,1.3531,1.3428,1.3246,0.0,0.0,0.0,0.0,0.0,0.0,0.0,0.0,0.0,0.0,0.0,0.0,0.0,0.0,0.0,0.0,0.0,0.0,0.0,0.8302,0.8383,0.8383,0.8644,0.9308,1.0411,1.1443,1.3076,1.5266,1.6548,1.6586,1.5448,1.2778,1.1007,1.0075,0.9808,0.9661,0.965,0.9969,1.0374,1.092,0.0,0.0,0.0,0.0,0.0,0.0,0.0,0.0,0.0,0.0,0.0,0.0,0.0,0.0,0.0,1.4034,1.4183,1.4319,1.4387,1.4482,1.4618,1.4855,1.5059,1.5187,1.514,1.6263,1.7117,1.6303,1.7451,1.8834,1.9681,2.0351,2.1033,2.1674,2.2213,2.1372,1.7815,1.8265,1.8194,1.6034,1.5914,1.6079,1.6238,1.5839,1.557,1.5718,1.5472,1.5374,1.5445,1.5276,1.5053,1.4787,1.4689,1.4575,1.4461,1.4363,1.4564,1.5032,1.4564,1.4492,1.48,1.4448,1.4265,1.4178,1.4489,1.4366,1.3873,1.4178,1.3999,1.3613,1.3705,1.3689,1.3591,1.3466,1.3363,1.3208,0.0,0.0,0.0,0.0,0.0,0.0,0.0,0.0,0.0,0.0,0.0,0.0,0.0,0.0,0.0,0.0,0.0,0.0,0.0,0.8285,0.8383,0.8383,0.9356,1.0457,1.1747,1.2037,1.3456,1.6096,1.6773,1.6162,1.429,1.2628,1.1126,0.9856,1.0118,1.0185,1.0093,1.073,1.1225,1.1651,1.1901,0.0,0.0,0.0,0.0,0.0,0.0,0.0,0.0,0.0,0.0,0.0,0.0,0.0,1.4098,1.4112,1.4183,1.436,1.4586,1.4667,1.4681,1.4708,1.462,1.4753,1.5391,1.5472,1.6052,1.8407,1.9045,1.9874,2.2332,2.3106,2.343,2.3638,2.1902,2.0308,1.9731,1.7812,1.6185,1.5329,1.5467,1.5565,1.5478,1.5461,1.5401,1.5418,1.5304,1.513,1.5022,1.5006,1.4896,1.4548,1.4515,1.4461,1.4336,1.432,1.4379,1.455,1.4379,1.432,1.4364,1.432,1.4264,1.4309,1.4178,1.4108,1.3988,1.3873,1.3758,1.3607,1.3613,1.3613,1.3591,1.3466,1.3417,1.3374,0.0,0.0,0.0,0.0,0.0,0.0,0.0,0.0,0.0,0.0,0.0,0.0,0.0,0.0,0.0,0.0,0.0,0.0,0.0,0.822,0.834,0.8519,0.9958,1.1344,1.2604,1.3621,1.498,1.6718,1.5463,1.4507,1.3768,1.2122,1.099,1.0442,1.0589,1.0648,1.0624,1.1034,1.1458,1.185,1.1863,1.22,0.0,0.0,0.0,0.0,0.0,0.0,0.0,0.0,1.3754,1.3795,1.3795,1.3835,1.3946,1.4041,1.4159,1.4204,1.4414,1.4552,1.4694,1.4694,1.4835,1.5004,1.5289,1.5628,1.656,1.8944,1.8632,1.8706,2.1156,2.0746,2.0599,2.2197,2.0493,1.8727,1.8248,1.7106,1.6092,1.5379,1.5472,1.5586,1.5674,1.5543,1.5499,1.5499,1.5331,1.5162,1.5037,1.4967,1.4798,1.4515,1.4504,1.445,1.432,1.432,1.4347,1.439,1.4291,1.432,1.432,1.432,1.4221,1.4195,1.408,1.3961,1.3895,1.3722,1.3645,1.3602,1.3602,1.3651,1.3705,1.358,1.3488,1.3406,0.0,0.0,0.0,0.0,0.0,0.0,0.0,0.0,0.0,0.0,0.0,0.0,0.0,0.0,0.0,0.0,0.0,0.0,0.8451,0.8909,0.9279,0.9503,1.1454,1.3095,1.4361,1.5813,1.6666,1.6946,1.4696,1.3542,1.3426,1.1792,1.0942,1.0888,1.1033,1.1139,1.1233,1.1529,1.1843,1.2076,1.2076,1.2389,0.0,0.0,0.0,0.0,0.0,0.0,0.0,0.0,1.3734,1.3747,1.3842,1.3808,1.3768,1.4014,1.4119,1.4139,1.4197,1.4414,1.4746,1.5421,1.5384,1.5577,1.6934,1.737,1.8139,2.0561,2.0714,2.0394,2.0388,1.9555,1.9196,2.025,1.9069,1.7805,1.7209,1.6686,1.6138,1.5352,1.5445,1.5619,1.5532,1.5516,1.5472,1.5363,1.5195,1.5037,1.4827,1.4787,1.4657,1.445,1.445,1.4407,1.432,1.432,1.4309,1.4265,1.4265,1.4276,1.432,1.4276,1.4167,1.4069,1.3972,1.3857,1.3776,1.3656,1.3602,1.3602,1.3602,1.3656,1.3722,1.3635,1.3553,1.3471,0.0,0.0,0.0,0.0,0.0,0.0,0.0,0.0,0.0,0.0,0.0,0.0,0.0,0.0,0.0,0.0,0.0,0.0,0.9019,1.0451,1.1361,1.1501,1.4035,1.5971,1.7164,1.8483,1.8389,1.6787,1.4773,1.3575,1.3175,1.1696,1.1028,1.1137,1.1384,1.1662,1.1921,1.2347,1.2501,1.2501,1.2501,1.2684,1.2982,0.0,0.0,0.0,0.0,0.0,0.0,0.0,1.3592,1.3639,1.398,1.3871,1.3653,1.3994,1.4119,1.4119,1.4119,1.419,1.482,1.696,1.6354,1.6339,2.0684,2.0808,2.0773,2.3567,2.5783,2.5686,2.0612,2.0377,2.0279,1.8226,1.7844,1.7632,1.7132,1.6686,1.6016,1.5123,1.5347,1.5434,1.5022,1.5249,1.5233,1.4943,1.4915,1.4754,1.4515,1.4504,1.445,1.432,1.432,1.432,1.432,1.432,1.4249,1.4085,1.4085,1.4195,1.4309,1.4139,1.4085,1.4069,1.389,1.3787,1.3776,1.3656,1.3602,1.3602,1.3602,1.3602,1.3602,1.3602,1.3602,1.3586,0.0,0.0,0.0,0.0,0.0,0.0,0.0,0.0,0.0,0.0,0.0,0.0,0.0,0.0,0.0,0.0,0.0,0.0,1.0489,1.0847,1.1556,1.2764,1.4798,1.6154,1.6716,1.6779,1.6852,1.6927,1.4298,1.2825,1.2415,1.1998,1.17,1.1608,1.2023,1.2213,1.2213,1.2498,1.2603,1.2501,1.2501,1.2623,1.2807,0.0,0.0,0.0,0.0,0.0,0.0,0.0,0.0,0.0,1.4007,1.4156,1.4265,1.4353,1.438,1.438,1.438,1.4489,1.4708,1.5376,1.6791,1.7988,1.7901,1.8865,2.0159,2.1403,2.2367,2.2008,1.869,1.8467,1.8452,1.7369,1.7016,1.6752,1.6396,1.5828,1.5333,1.5162,1.526,1.5276,1.5179,1.5233,1.5151,1.4926,1.4915,1.4754,1.4515,1.4504,1.445,1.432,1.4238,1.4139,1.4139,1.4108,1.4048,1.401,1.401,1.4031,1.4069,1.4026,1.401,1.4004,1.3852,1.3787,1.3776,1.3656,1.3602,1.3602,1.3602,1.3602,1.3602,1.3602,1.3602,1.3597,0.0,0.0,0.0,0.0,0.0,0.0,0.0,0.0,0.0,0.0,0.8275,0.8512,0.0,0.0,0.0,0.0,0.0,0.0,0.0,1.2392,1.342,1.4525,1.5676,1.6242,1.612,1.5424,1.529,1.5756,1.3588,1.2386,1.2098,1.2159,1.2162,1.2165,1.2535,1.2637,1.2608,1.2745,1.2732,1.2589,1.2528,1.263,1.2827,0.0,0.0,0.0,0.0,0.0,0.0,0.0,0.0,0.0,1.3912,1.4102,1.4258,1.4319,1.438,1.4606,1.5394,1.5778,1.6408,1.8196,1.8928,1.9151,1.8923,2.0247,2.1561,2.1897,2.2912,2.2767,1.9341,1.8972,1.9002,1.8468,1.7309,1.635,1.5976,1.5412,1.5021,1.501,1.5135,1.5162,1.5021,1.5092,1.5026,1.4744,1.4716,1.4629,1.4445,1.4434,1.4379,1.4194,1.4123,1.4108,1.4069,1.4048,1.3988,1.3944,1.3944,1.3863,1.3819,1.3922,1.3944,1.3885,1.3765,1.3716,1.3711,1.3635,1.3602,1.3602,1.3602,1.3602,1.3602,1.3602,1.3602,1.3602,0.0,0.0,0.0,0.0,0.0,0.0,0.0,0.0,0.0,0.0,0.8421,0.8719,0.0,0.0,0.0,0.0,0.0,0.0,0.0,1.4424,1.5962,1.6229,1.6392,1.6094,1.5323,1.4371,1.3882,1.3915,1.2829,1.2189,1.2084,1.2223,1.2531,1.2908,1.3134,1.3316,1.3394,1.3394,1.3184,1.2834,1.2729,1.2782,1.2969,1.2786,0.0,0.0,0.0,0.0,0.0,0.0,0.0,0.0,1.3714,1.3829,1.3883,1.4068,1.4342,1.4983,1.6844,1.7603,1.8882,2.303,2.1655,1.9999,2.2807,2.3929,2.4366,2.4236,2.5918,2.6133,2.1853,2.1066,2.0935,2.0597,1.8213,1.6257,1.5768,1.5293,1.4923,1.47,1.4967,1.5037,1.4689,1.4852,1.4795,1.4515,1.4488,1.4434,1.4309,1.4264,1.4265,1.4124,1.4069,1.4069,1.3999,1.3982,1.3874,1.377,1.377,1.3711,1.3607,1.3722,1.377,1.3765,1.3651,1.3602,1.3602,1.3602,1.3602,1.3602,1.3602,1.3602,1.3602,1.3602,1.3602,1.3602,0.0,0.0,0.0,0.0,0.0,0.0,0.0,0.0,0.0,0.0,0.0,0.0,0.0,0.0,0.0,0.0,0.0,0.0,0.0,1.3715,1.4745,1.4886,1.5232,1.4955,1.3964,1.3704,1.3676,1.3915,1.2713,1.207,1.1854,1.2277,1.3221,1.4608,1.4891,1.5574,1.6445,1.633,1.5459,1.4113,1.4075,1.3544,1.2779,1.2706,1.2915,0.0,0.0,0.0,0.0,0.0,0.0,0.0,1.3781,1.4038,1.4373,1.4407,1.5497,1.6821,1.7685,1.7755,1.7993,1.9759,1.9922,2.114,2.6953,2.6929,2.5701,2.5786,2.5658,2.5097,2.3814,2.2143,2.0776,2.0173,1.7645,1.563,1.5181,1.4918,1.4727,1.473,1.4744,1.4727,1.4559,1.4586,1.4548,1.4379,1.4363,1.4309,1.4123,1.4265,1.4222,1.4059,1.3993,1.3939,1.3825,1.3727,1.3667,1.3645,1.3645,1.3629,1.3607,1.3629,1.3645,1.364,1.3613,1.3602,1.3602,1.3602,1.3602,1.3602,1.3602,1.3602,1.3602,1.3602,1.3602,1.3602,0.0,0.0,0.0,0.0,0.0,0.0,0.0,0.0,0.0,0.0,0.0,0.0,0.0,0.0,0.0,0.0,0.0,0.0,0.0,0.0,1.401,1.3626,1.4699,1.4411,1.2535,1.3974,1.4453,1.3915,1.412,1.4212,1.4204,1.4776,1.5579,1.6506,1.683,1.7154,1.7501,1.7479,1.6812,1.5716,1.4995,1.4361,1.3811,1.2917,1.2759,1.2969,1.3084,0.0,0.0,0.0,0.0,0.0,0.0,0.0,1.4319,1.4387,1.5118,1.6264,1.7649,1.87,1.9837,2.1728,2.3363,2.5101,2.7324,2.784,2.787,2.7781,2.7707,2.6898,2.4533,2.3175,2.1886,2.0177,1.7501,1.5384,1.4874,1.4673,1.4575,1.4515,1.4559,1.4548,1.4434,1.4477,1.4434,1.4194,1.4183,1.4178,1.4053,1.4113,1.4069,1.3933,1.3874,1.3819,1.37,1.3635,1.3602,1.3602,1.3602,1.3602,1.3602,1.3602,1.3602,1.3602,1.3602,1.3602,1.3602,1.3602,1.3602,1.3602,1.3602,1.3602,1.3602,1.3602,1.3602,1.3602,0.0,0.0,0.0,0.0,0.0,0.0,0.0,0.0,0.0,0.0,0.0,0.0,0.0,0.0,0.0,0.0,0.0,0.0,0.0,0.0,0.0,1.2708,1.4,1.383,1.1839,1.4383,1.5407,1.4741,1.6226,1.7107,1.7353,1.7376,1.7829,1.8561,1.8425,1.8358,1.8326,1.8425,1.8067,1.734,1.6092,1.5357,1.4872,1.345,1.2809,1.2672,1.2868,1.3071,1.3431,1.4978,0.0,0.0,0.0,0.0,1.4034,1.4211,1.4541,1.5311,1.7357,1.9718,2.2241,2.4973,2.7124,2.818,2.6628,2.7741,2.9139,2.9282,2.967,2.882,2.51,2.3817,2.2579,2.0237,1.7369,1.5299,1.4787,1.4559,1.4434,1.4336,1.4407,1.4434,1.4336,1.439,1.4363,1.4096,1.4069,1.4053,1.3988,1.3999,1.3949,1.376,1.3776,1.3727,1.3607,1.3602,1.3602,1.3602,1.3602,1.3602,1.3602,1.3602,1.3602,1.3602,1.3602,1.3602,1.3602,1.3602,1.3602,1.3602,1.3602,1.3602,1.3602,1.3602,1.3602,1.3602,0.0,0.0,0.0,0.0,0.0,0.0,0.0,0.0,0.0,0.0,0.9228,0.0,0.0,0.0,0.0,0.0,0.0,0.0,1.0562,0.0,0.0,1.2893,1.2183,1.2293,1.3367,1.3924,1.5479,1.8133,1.8615,1.9128,1.9603,1.7075,1.7691,2.0854,1.9085,1.9429,2.1318,2.1094,1.9991,1.8439,1.843,1.6822,1.4434,1.4525,1.3737,1.2556,1.2705,1.2942,1.3254,1.3479,1.3583,0.0,0.0,0.0,1.3743,1.4021,1.5175,1.6537,1.7604,1.9905,2.2577,2.4937,2.4641,2.4557,2.7833,2.7369,2.6764,2.8676,2.8172,2.7261,2.6898,2.3269,2.0152,1.9785,1.6953,1.4787,1.473,1.4488,1.4336,1.432,1.4336,1.4336,1.432,1.4238,1.4123,1.4085,1.4042,1.3988,1.3814,1.3955,1.3911,1.3635,1.3732,1.3727,1.3607,1.3602,1.3602,1.3602,1.3602,1.3602,1.3602,1.3602,1.3602,1.3602,1.3602,1.3602,1.3602,1.3602,1.3602,1.3602,1.3602,1.3602,1.3602,1.3602,1.3602,1.3602,0.0,0.0,0.0,0.0,0.0,0.0,0.0,0.0,0.0,0.0,0.0,0.9673,0.0,0.0,0.0,0.9792,0.9994,1.0222,1.0385,1.0602,1.1378,1.2925,1.345,1.4079,1.4814,1.6737,1.805,1.8792,1.9759,2.0486,2.0832,1.8385,1.8757,2.1477,1.959,2.019,2.2512,2.1176,2.0467,2.0099,1.8451,1.6938,1.5541,1.4028,1.2984,0.0,0.0,0.0,0.0,1.4238,1.4073,1.3569,1.469,0.0,0.0,0.0,1.4836,1.6172,1.9643,2.0415,2.1511,2.6775,2.538,2.3879,2.8571,2.7794,2.686,2.9347,2.7279,2.5033,2.4898,2.2289,1.9574,1.7879,1.6223,1.4965,1.4632,1.4434,1.432,1.432,1.432,1.4292,1.4222,1.4112,1.4026,1.395,1.389,1.3809,1.3689,1.3732,1.3711,1.3607,1.3656,1.3662,1.3602,1.3602,1.3602,1.3602,1.3602,1.3602,1.3602,1.3602,1.3602,1.3602,1.3602,1.3602,1.3602,1.3602,1.3602,1.3602,1.3602,1.3602,1.3602,1.3602,1.3602,1.3602,0.0,0.0,0.0,0.0,0.0,0.0,0.0,0.0,0.0,0.0,0.0,0.0,0.0,0.0,0.0,0.0,0.9954,1.0301,1.0984,1.1155,1.1921,1.3428,1.487,1.5802,1.6113,1.8748,1.9842,1.9273,2.0556,2.1259,2.1294,1.9518,1.9685,2.14,1.9919,2.0565,2.2658,2.0824,2.0531,2.1077,1.805,1.6526,1.583,1.3678,0.0,0.0,0.0,0.0,0.0,0.0,0.0,0.0,1.5334,1.4934,0.0,0.0,0.0,1.5706,2.0473,2.0373,2.0404,2.662,2.5022,2.3031,2.7152,2.6427,2.5612,2.8109,2.5515,2.2709,2.241,2.0775,1.872,1.6538,1.5729,1.5224,1.4775,1.4507,1.4309,1.4221,1.4221,1.4222,1.4108,1.4097,1.4021,1.3841,1.3803,1.3749,1.3656,1.3624,1.3602,1.3602,1.3635,1.3651,1.3651,1.3651,1.3635,1.3602,1.3602,1.3602,1.3602,1.3602,1.3602,1.3602,1.3602,1.3602,1.3602,1.3602,1.3602,1.3602,1.3602,1.3602,1.3602,1.3602,1.3602,1.3602,0.0,0.0,0.0,0.0,0.0,0.0,0.0,0.0,0.0,0.0,0.0,0.0,0.997,0.9879,0.9846,0.9994,0.9984,1.0702,1.2395,1.262,1.3309,1.4726,1.5266,0.0,1.729,1.8125,1.9192,2.062,2.1209,2.1297,2.0911,1.9713,1.9755,2.0795,2.0036,2.0514,2.1886,2.0809,2.0557,2.0625,0.0,0.0,0.0,0.0,0.0,0.0,0.0,0.0,0.0,0.0,0.0,0.0,0.0,0.0,1.4675,0.0,0.0,0.0,1.847,1.9231,1.9889,2.2376,2.1553,2.0611,2.2291,2.1573,2.1077,2.3101,2.2003,2.0671,2.0629,1.8556,1.6824,1.6673,1.5953,1.5393,1.5337,1.4731,1.4221,1.4112,1.4096,1.4097,1.4031,1.402,1.4015,1.4004,1.3847,1.3787,1.3776,1.3667,1.3602,1.3602,1.3716,1.3776,1.3776,1.3776,1.3722,1.3602,1.3602,1.3602,1.3602,1.3602,1.3602,1.3602,1.3602,1.3602,1.3602,1.3602,1.3602,1.3602,1.3602,1.3602,1.3602,1.3602,1.3602,1.3602,0.0,0.0,0.0,0.0,0.0,0.0,0.0,0.0,0.0,0.0,0.0,0.0,0.0,0.9879,0.9852,0.997,1.1004,1.1932,1.2564,1.3557,1.4772,1.6203,1.6734,1.7624,1.8961,1.9587,2.0215,2.0954,2.0978,2.0808,2.0516,2.018,2.0016,1.9882,1.7737,1.874,2.1821,1.8817,1.8529,0.0,0.0,0.0,0.0,0.0,0.0,0.0,0.0,0.0,0.0,0.0,0.0,0.0,0.0,0.0,0.0,1.6798,1.6209,1.6071,1.889,1.8426,1.8161,2.25,2.0654,1.8833,2.2586,2.2009,2.1267,2.3209,2.2174,2.0857,2.0503,1.8618,1.7013,1.6627,1.6487,1.6256,1.582,1.549,1.526,1.5071,1.5059,1.5061,1.4986,1.5045,1.5062,1.498,1.4851,1.4656,1.4364,1.4124,1.3893,1.3602,1.3645,1.3705,1.3787,1.3911,1.3836,1.3722,1.3722,1.3678,1.3602,1.3602,1.3602,1.3602,1.3602,1.3602,1.3602,1.3602,1.3602,1.3602,1.3602,1.3602,1.3602,1.3602,1.3602,1.3602,0.0,0.0,0.0,0.0,0.0,0.0,0.0,0.0,0.0,0.9761,0.0,0.0,0.0,0.0,0.9988,1.0089,1.2059,1.3337,1.3438,1.4795,1.6308,1.7903,1.8305,1.8933,1.9881,2.035,2.0652,2.0833,2.0749,2.0741,2.083,2.0485,1.9963,1.9259,1.6551,1.7786,2.1568,1.7966,0.0,1.8893,0.0,0.0,1.425,0.0,0.0,0.0,0.0,0.0,0.0,0.0,0.0,0.0,0.0,0.0,0.0,0.0,0.0,1.6111,1.8124,1.7432,1.7013,2.0594,1.9078,1.7539,2.0709,2.0637,2.0299,2.1557,2.1036,2.0234,1.9735,1.8485,1.7357,1.686,1.682,1.6705,1.6277,1.5966,1.5717,1.559,1.5571,1.5516,1.5436,1.5588,1.5656,1.5564,1.5515,1.5367,1.5129,1.4786,1.4528,1.4245,1.429,1.4352,1.4437,1.4394,1.4286,1.4115,1.3916,1.3765,1.3722,1.364,1.3629,1.3662,1.3624,1.3602,1.3602,1.3602,1.3602,1.3602,1.3602,1.3602,1.3602,1.3602,1.3602,1.3602,0.0,0.0,0.0,0.0,0.0,0.0,0.0,0.0,0.9508,0.9685,0.0,0.0,0.0,0.0,0.0,1.0463,1.3114,1.4907,1.5163,1.6386,1.7936,1.9823,1.9893,1.9905,1.9905,2.0158,2.0325,2.0325,2.0579,2.1111,2.186,2.0501,1.9594,1.9032,1.6768,1.7759,2.0998,1.8431,1.7657,1.7758,0.0,1.3538,1.3872,0.0,0.0,0.0,1.9503,1.9644,0.0,0.0,0.0,0.0,0.0,0.0,0.0,0.0,0.0,0.0,0.0,0.0,0.0,1.6333,1.6606,1.6758,1.6223,1.7033,1.782,1.7731,1.8233,1.8544,1.8163,1.7952,1.7692,1.7465,1.6927,1.6601,1.6791,1.6152,1.5637,1.5556,1.5538,1.5483,1.5354,1.5587,1.574,1.574,1.5857,1.5924,1.5943,1.5637,1.5497,1.5497,1.5625,1.5698,1.5705,1.5227,1.496,1.4827,1.4175,1.3906,1.4053,1.3769,1.3726,1.3829,1.3709,1.3655,1.3655,1.3602,1.3602,1.3602,1.3602,1.3602,1.3602,1.3602,1.3602,1.3602,0.0,0.0,0.0,0.0,0.0,0.9038,0.9408,0.9771,1.0044,0.0,0.0,0.0,1.0344,1.166,1.3021,1.4245,1.6114,1.7168,1.7074,1.8338,1.9359,1.9881,2.0108,2.0204,2.0204,2.0458,2.0591,2.0591,2.0664,2.0918,2.1293,1.9988,1.9514,1.9691,1.8116,1.7469,1.733,1.5355,0.0,1.8764,1.5056,1.5478,0.0,0.0,0.0,0.0,0.0,2.0969,0.0,0.0,2.0786,1.918,0.0,0.0,0.0,0.0,0.0,0.0,1.5958,0.0,0.0,0.0,0.0,0.0,1.6468,1.6811,1.7188,1.7243,1.7741,1.809,1.7961,1.7734,1.76,1.7699,1.7383,1.7163,1.7203,1.6975,1.6723,1.6584,1.6565,1.6551,1.6505,1.667,1.6776,0.0,1.6716,1.6615,1.6439,1.5944,1.5637,1.5637,1.5674,1.5741,1.5833,1.5699,1.5645,1.5615,1.5415,1.5266,1.5058,1.4987,1.4922,1.4862,1.4827,1.4809,1.4756,1.3919,1.3813,1.4188,1.4188,1.4188,1.4188,1.4188,1.3924,1.3655,0.0,0.0,0.0,0.0,0.0,0.9282,0.9583,0.9979,1.0364,0.0,0.0,0.0,1.1692,1.3492,1.5027,1.5898,1.7868,1.8755,1.8021,1.9192,1.9989,2.0241,2.0289,2.0362,2.047,2.0628,2.07,2.07,2.07,2.0785,2.093,2.0295,1.9821,1.9468,1.8709,1.7457,1.5751,1.4536,0.0,0.0,1.6091,0.0,0.0,2.064,2.1055,0.0,0.0,0.0,2.3645,2.4525,2.3023,0.0,0.0,0.0,0.0,0.0,0.0,0.0,0.0,0.0,0.0,0.0,0.0,0.0,1.646,1.7378,1.8337,1.8676,1.9079,1.9447,1.9502,1.8516,1.7763,1.7987,1.7653,1.7326,1.7297,1.7195,1.7073,1.6992,1.6978,1.6978,1.6978,1.7107,1.7195,1.7195,1.7175,1.7076,1.6921,1.661,1.6369,1.6311,1.6369,1.6407,1.642,1.626,1.6214,1.6277,1.5887,1.5698,1.565,1.5478,1.5393,1.5368,1.5307,1.532,1.5316,1.4686,1.4545,1.4768,1.4827,1.4845,1.4851,1.491,1.4714,1.4495,0.0,0.0,0.8683,0.8871,0.9143,0.9434,0.9631,1.0122,1.053,0.0,1.1062,1.2069,1.3999,1.5767,1.68,1.6797,1.9059,1.9932,1.8614,1.9491,2.0241,2.0688,2.0507,2.0507,2.0736,2.0599,2.0611,2.0797,2.0587,2.0587,2.0797,2.0826,2.0128,1.8876,1.8878,1.7622,1.5542,1.5567,0.0,1.4307,1.7195,1.8854,0.0,0.0,2.4826,0.0,2.7902,2.8129,2.6484,2.7632,2.5615,0.0,0.0,0.0,0.0,0.0,1.72,0.0,0.0,0.0,0.0,0.0,0.0,0.0,1.6657,1.839,2.0259,2.0796,2.0933,2.1078,2.1299,1.9436,1.7926,1.8092,1.7734,1.7343,1.7245,1.7138,1.7003,1.6951,1.6971,1.6978,1.6978,1.7093,1.7168,1.7168,1.7311,1.7399,1.7399,1.7412,1.7358,1.7222,1.7331,1.7338,1.7216,1.6795,1.6656,1.6846,1.6055,1.584,1.6045,1.5685,1.558,1.5673,1.5549,1.5574,1.5704,1.5704,1.5583,1.5444,1.5573,1.5616,1.5634,1.5757,1.5752,1.5674,0.0,0.8699,0.8911,0.9377,0.9556,0.9877,1.0679,1.0796,1.094,1.1333,1.2929,1.4762,1.6665,1.8425,1.9909,2.0978,2.1413,2.1294,2.0567,2.0754,2.0821,2.07,2.0857,2.0966,2.1015,1.9925,2.0002,2.1353,1.9787,1.9823,2.1317,1.9915,1.9242,1.9286,1.9266,1.7735,1.5335,1.8368,0.0,1.4005,1.6476,0.0,2.5706,2.5266,2.5073,2.5411,2.8434,2.816,2.6426,0.0,2.6353,2.4936,0.0,0.0,0.0,0.0,0.0,0.0,0.0,0.0,0.0,0.0,0.0,0.0,1.8575,1.9258,2.0062,2.0151,1.8981,1.8031,1.8306,1.8096,1.7728,1.7232,1.7597,1.7822,1.7477,1.7425,1.7255,1.6795,1.6904,1.6978,1.6978,1.7005,1.7019,1.7019,1.7154,1.7236,1.7236,1.7351,1.7405,1.7378,1.7283,1.7283,1.7372,1.7176,1.715,1.7298,1.7136,1.7022,1.6956,1.6869,1.6783,1.6703,1.6676,1.6743,1.6876,1.6876,1.6656,1.6365,1.6391,1.6404,1.641,1.6436,1.6124,1.5734,0.9215,0.9353,0.9573,0.9977,1.0244,1.0629,1.1308,1.1457,1.1627,1.1989,1.39,1.613,1.8527,1.9684,2.0799,2.1991,2.1982,2.168,0.0,2.1099,2.0978,2.0712,2.0954,2.1099,2.1099,2.0681,2.0726,2.1305,2.0459,2.0401,2.1076,2.0474,2.0157,2.0133,2.0603,1.957,1.7584,1.9604,1.9438,1.801,1.9886,0.0,2.5042,2.6443,2.7221,2.7744,2.9163,2.9015,2.7934,2.6675,2.6496,0.0,0.0,2.1212,1.9761,0.0,1.7298,1.6428,0.0,0.0,0.0,1.692,0.0,0.0,0.0,2.0893,2.2192,2.1638,2.0628,1.966,1.9284,1.8277,1.7507,1.7554,1.7825,1.7943,1.7719,1.7902,1.7914,1.759,1.7457,1.7398,1.7398,1.7136,1.6978,1.6978,1.7046,1.7121,1.7188,1.7263,1.7304,1.7304,1.7236,1.7195,1.7202,1.7127,1.7161,1.7304,1.7236,1.7195,1.7188,1.7121,1.7046,1.6985,1.7053,1.7168,1.7311,1.7392,1.7345,1.7254,1.7127,1.71,1.7107,1.7228,1.709,1.6804,0.9899,1.0038,1.0244,1.0556,1.0957,1.135,1.1738,1.2021,1.2402,1.3046,1.4616,1.6775,1.9582,1.9962,0.0,0.0,0.0,0.0,0.0,0.0,2.1135,2.0724,2.1002,2.1172,2.1172,2.1353,2.1376,2.1329,2.1198,2.109,2.1035,2.1546,2.1608,2.1264,2.1687,2.1321,2.0392,2.032,2.0932,2.2028,0.0,2.3953,2.3488,2.7447,2.9118,2.9322,2.9365,2.9092,2.8424,2.6158,0.0,2.6262,2.476,2.2611,0.0,0.0,0.0,0.0,0.0,0.0,0.0,0.0,0.0,2.2182,0.0,0.0,0.0,2.3083,2.2299,2.1486,2.029,1.844,1.7238,1.7716,1.7859,1.7867,1.7804,1.826,1.8541,1.8268,1.7893,1.7742,1.7874,1.7332,1.704,1.7129,1.6976,1.6971,1.7141,1.7154,1.7154,1.7154,1.7154,1.71,1.6985,1.6978,1.7039,1.7148,1.7032,1.7039,1.7148,1.7032,1.6978,1.6985,1.7127,1.7277,1.7433,1.7534,1.7738,1.7902,1.7738,1.7684,1.7704,1.7826,1.7915,1.7846,1.0187,1.0179,1.0426,1.0934,1.1347,1.1776,1.217,1.2348,1.3138,1.5058,1.5812,1.7022,0.0,0.0,0.0,0.0,0.0,0.0,1.9714,0.0,0.0,2.0749,2.1196,2.1462,2.1438,2.0292,2.0518,2.2163,2.0598,2.0617,2.2189,2.2388,2.2642,2.2863,2.1408,2.127,2.2055,2.1376,2.1199,0.0,2.4966,2.61,0.0,2.7582,2.8403,2.8589,2.7665,2.6196,2.4604,0.0,2.4116,2.4116,0.0,2.2003,0.0,0.0,0.0,0.0,0.0,0.0,0.0,0.0,2.0192,0.0,0.0,0.0,2.4425,2.2146,0.0,1.8995,1.7004,0.0,0.0,1.6403,1.7206,1.7808,1.7493,1.8189,1.8427,1.7767,1.7393,1.7393,1.799,1.7473,1.726,1.7677,1.6986,1.67,1.6992,1.7005,1.7005,1.7005,1.7005,1.6998,1.6978,1.6978,1.6992,1.7005,1.6985,1.6992,1.7005,1.6985,1.6978,1.6985,1.7127,1.7277,1.7433,1.7534,1.7738,1.7915,1.7846,1.7846,1.7846,1.786,1.7915,1.7846,1.1162,1.1074,1.1204,1.161,1.1876,1.2154,1.2483,1.2895,1.3805,1.5722,1.6211,1.7121,0.0,0.0,0.0,0.0,0.0,2.099,0.0,0.0,0.0,0.0,0.0,0.0,2.151,2.1058,2.1274,2.219,2.121,2.1341,2.2512,2.264,2.2885,2.3184,2.2662,2.3036,2.3954,2.363,2.3554,0.0,0.0,0.0,0.0,2.8078,2.8265,2.7288,2.4572,2.4588,2.5503,0.0,2.4206,0.0,0.0,0.0,0.0,0.0,0.0,0.0,0.0,0.0,0.0,0.0,0.0,0.0,0.0,0.0,2.5459,0.0,0.0,0.0,0.0,0.0,0.0,0.0,1.8875,1.9275,1.9,1.8517,1.8198,1.8119,1.7535,1.7245,1.7393,1.7113,1.7041,1.7384,1.6945,1.6706,1.67,1.6714,1.6795,1.6978,1.6897,1.689,1.6978,1.6978,1.6978,1.6978,1.6978,1.6978,1.6978,1.6978,1.6978,1.6992,1.7222,1.7358,1.7439,1.767,1.7812,1.8033,1.935,1.906,1.8033,1.9405,1.906,1.8074,1.2149,0.0,1.1769,1.2111,1.2288,1.2461,1.28,1.3131,1.4021,1.59,0.0,0.0,1.8504,1.807,0.0,0.0,1.9594,2.038,0.0,0.0,2.2397,0.0,0.0,0.0,0.0,2.2032,2.2166,2.2466,2.2187,2.2365,2.2996,2.3197,2.3402,2.3576,2.3582,2.4277,2.5438,0.0,2.5437,2.64,2.7019,2.718,2.7228,2.8508,2.8201,2.6616,2.3843,2.4432,2.6006,2.2087,2.4419,0.0,2.4606,0.0,0.0,0.0,0.0,0.0,2.1038,0.0,0.0,0.0,0.0,0.0,0.0,0.0,0.0,0.0,0.0,0.0,0.0,0.0,0.0,0.0,0.0,2.0891,2.0735,1.9356,1.8362,1.8277,1.8239,1.7896,1.7123,1.74,1.7573,1.734,1.687,1.6595,1.6584,1.6493,1.6605,1.691,1.6757,1.6822,1.6978,1.6978,1.6978,1.6978,1.6978,1.6978,1.6985,1.7019,1.7019,1.6998,1.729,1.7399,1.7385,1.7684,1.7812,1.8074,2.0411,2.0317,1.9122,2.1423,2.0811,1.906,1.2907,1.2332,0.0,1.223,1.24,1.2644,1.3132,1.2883,1.3469,0.0,0.0,0.0,0.0,0.0,0.0,0.0,0.0,1.6903,1.6502,0.0,2.0909,0.0,0.0,2.2543,0.0,0.0,2.2718,2.3339,2.3241,2.3435,2.3968,2.4375,2.4559,2.4512,2.3492,2.4278,2.6267,2.4895,2.5937,2.8537,2.8815,2.9268,2.97,0.0,2.7956,2.7003,2.7165,0.0,0.0,2.4178,2.4215,0.0,0.0,0.0,0.0,0.0,0.0,0.0,0.0,0.0,0.0,2.276,0.0,0.0,0.0,0.0,2.7013,0.0,0.0,0.0,0.0,0.0,0.0,0.0,0.0,0.0,0.0,0.0,0.0,0.0,0.0,0.0,0.0,1.8862,1.9251,1.7976,1.6814,1.6305,1.6772,1.649,1.6449,1.6696,1.6702,1.6822,1.6978,1.6978,1.6978,1.6978,1.6978,1.6978,1.6985,1.7121,1.7114,1.6998,1.729,1.7338,1.7222,1.7473,1.7595,1.7841,2.031,2.1305,2.1532,2.3856,2.3202,2.1187,0.0,0.0,0.0,0.0,0.0,1.2651,1.3146,1.3224,1.3606,0.0,0.0,0.0,0.0,1.5901,1.6139,0.0,0.0,1.9104,2.1046,2.1861,0.0,0.0,0.0,2.3821,0.0,0.0,0.0,0.0,2.3398,2.3825,2.4984,2.4711,2.4943,2.5518,2.5137,2.574,2.7001,0.0,0.0,0.0,0.0,2.8075,3.0018,0.0,2.7332,2.6867,2.5742,2.5936,0.0,2.4688,2.6052,2.8403,2.7353,2.6516,2.6392,2.8716,2.7015,0.0,0.0,0.0,2.6305,2.5399,0.0,0.0,0.0,0.0,0.0,0.0,0.0,0.0,0.0,0.0,0.0,0.0,0.0,0.0,0.0,0.0,1.7315,0.0,0.0,0.0,0.0,1.7475,1.763,1.7445,1.6804,1.6311,1.6081,1.6202,1.6291,1.63,1.6497,1.672,1.6978,1.6978,1.6978,1.6978,1.6978,1.7032,1.7121,1.7073,1.708,1.7127,1.7222,1.8081,1.9424,1.9762,2.0767,2.2343,2.4912,2.4998,2.3747,2.4509,2.3311,2.1305,1.4706,0.0,0.0,0.0,0.0,1.2895,1.3342,0.0,0.0,0.0,1.532,0.0,1.584,0.0,1.6748,0.0,1.8462,1.9363,2.0714,2.1977,0.0,2.2926,2.399,0.0,0.0,0.0,0.0,0.0,2.4249,2.4593,2.5699,2.5308,2.5358,2.585,2.6158,2.652,2.7068,2.8072,2.8457,0.0,0.0,2.7593,0.0,0.0,2.7513,2.8207,0.0,2.7558,2.8544,2.708,2.8398,3.0385,2.8807,2.833,2.8632,3.0194,2.8842,2.7176,2.8563,2.8875,0.0,2.7873,2.8323,0.0,2.7923,0.0,0.0,0.0,0.0,0.0,0.0,0.0,0.0,0.0,0.0,0.0,0.0,1.8922,0.0,0.0,0.0,0.0,0.0,1.7371,1.7496,1.7113,1.6648,1.6203,1.5705,1.5946,1.607,1.6037,1.6341,1.6673,1.6978,1.6978,1.6978,1.6978,1.6978,1.7026,1.7114,1.7073,1.708,1.7121,1.7168,1.8419,2.0483,2.084,2.233,2.4491,2.634,2.6136,2.488,2.5757,2.4563,2.2555,0.0,0.0,0.0,0.0,1.4375,0.0,0.0,0.0,1.6235,0.0,1.6705,1.7407,1.6044,1.5954,1.6148,1.6538,1.7724,0.0,1.6153,1.9934,0.0,0.0,2.2201,2.4221,2.3359,0.0,0.0,0.0,0.0,2.5726,2.6102,2.6043,2.5837,2.5558,2.644,2.668,2.6507,2.8241,2.8958,2.8723,2.7194,2.7837,2.9586,2.7506,2.8415,3.0795,3.0755,3.0581,3.0493,3.0996,3.0822,3.0426,3.0426,3.0426,3.0426,3.0426,3.0581,3.0808,3.0808,3.0667,3.04,3.0034,0.0,0.0,0.0,0.0,2.9606,0.0,0.0,0.0,0.0,0.0,0.0,0.0,0.0,0.0,0.0,0.0,0.0,0.0,0.0,0.0,0.0,1.852,1.8714,1.6922,1.6353,1.5989,0.0,1.5805,1.5886,1.5916,1.6316,1.6653,1.6965,1.6971,1.6971,1.6978,1.6978,1.6985,1.6998,1.7127,1.7121,1.6998,1.724,1.8519,2.0512,2.1024,2.2495,2.4557,2.4817,2.4825,2.4889,2.711,2.6569,2.4617,1.5499,1.6817,1.7335,0.0,1.4804,1.3666,0.0,0.0,0.0,0.0,1.7041,1.7462,1.8541,1.7918,1.8265,2.035,1.9725,0.0,0.0,0.0,0.0,2.0756,2.3272,2.4426,2.3918,2.558,0.0,2.6178,0.0,2.5805,2.6102,2.6043,2.5837,2.5558,2.6667,2.6867,2.6507,2.8241,2.832,2.7105,2.5131,2.5869,2.8054,0.0,2.8415,3.0728,3.0301,3.0234,3.0426,3.0574,3.0621,3.0675,3.0675,3.0675,3.0675,3.0675,3.0889,3.1116,3.1116,3.1223,3.1256,3.0688,3.0354,3.0025,0.0,0.0,0.0,0.0,0.0,0.0,0.0,0.0,0.0,0.0,0.0,0.0,0.0,0.0,0.0,1.6637,0.0,0.0,1.6877,1.7176,1.7153,1.6692,1.6392,1.6201,1.6076,1.6437,1.6454,1.6129,1.6496,1.6743,1.6802,1.6757,1.687,1.6978,1.6978,1.7032,1.7141,1.7175,1.7175,1.7247,1.891,2.0817,2.2883,2.4862,2.6973,2.8806,2.7589,2.5071,2.229,2.2883,2.2711,2.2446,1.5292,0.0,0.0,1.6798,0.0,0.0,1.5668,1.6038,0.0,1.7233,1.7748,0.0,1.8596,1.8125,1.8387,1.9935,2.0334,0.0,2.2255,0.0,0.0,2.2151,2.4615,2.547,2.4204,2.6139,0.0,2.6425,0.0,2.619,2.636,2.6096,2.5437,2.4495,2.5468,2.5256,2.4286,2.6896,2.7479,2.6625,2.555,2.6527,0.0,2.7333,2.844,3.0568,3.0234,3.014,3.0207,3.0507,3.0488,3.0434,3.0568,3.0654,3.0654,3.0654,3.0902,3.1176,3.1176,3.1436,3.1631,3.1263,3.1095,3.0624,2.9189,2.809,2.7331,0.0,0.0,0.0,0.0,0.0,0.0,0.0,0.0,0.0,0.0,0.0,0.0,0.0,1.6535,0.0,1.6722,1.6357,1.6178,1.6332,1.6105,1.5842,1.5583,1.6107,1.631,1.6078,1.6576,1.6942,1.711,1.6995,1.7038,1.7242,1.6981,1.7026,1.729,1.7222,1.7229,1.7397,1.9668,2.182,2.3894,2.6411,2.8709,3.0339,2.7504,2.4277,2.1305,2.1305,2.1945,2.3147,0.0,0.0,0.0,0.0,0.0,0.0,0.0,1.8063,0.0,1.7094,0.0,1.9299,1.8308,1.811,1.8311,1.8889,0.0,2.2076,2.1054,2.4694,2.5613,2.269,2.5773,2.6525,2.438,2.658,0.0,0.0,0.0,2.6111,2.587,2.547,2.4391,2.2763,2.3432,2.3051,2.2036,2.5003,2.6431,2.675,2.7062,2.8108,2.9354,2.8076,2.8692,3.036,3.0386,3.0221,3.01,3.0581,3.0421,3.0074,3.0333,3.04,3.04,3.036,3.0688,3.1116,3.1156,3.1383,3.1576,3.1365,3.1284,3.0682,2.8318,2.7712,2.7133,2.5174,2.4347,2.3443,0.0,0.0,0.0,0.0,0.0,0.0,0.0,0.0,0.0,0.0,0.0,0.0,0.0,1.6008,1.5723,1.5983,1.5715,1.5401,0.0,0.0,1.595,1.6062,1.6594,1.7111,1.7546,1.73,1.7279,1.7449,1.6982,1.6939,1.7385,1.7611,1.7732,1.8004,2.0679,2.276,2.4532,2.7091,2.8972,2.9918,2.6253,2.3575,2.1798,2.2118,2.3529,2.554,0.0,0.0,0.0,0.0,0.0,2.2145,1.9339,1.8136,1.8049,1.9458,1.8921,1.9668,2.2997,2.1816,2.2172,2.5775,2.6129,0.0,0.0,0.0,0.0,2.3,2.5051,2.5742,2.4627,2.6701,2.6722,0.0,0.0,0.0,2.1579,2.1598,2.1262,2.0665,2.151,2.3116,2.5116,2.4209,0.0,2.675,2.7062,2.7218,2.7405,2.8867,2.9671,3.002,3.0319,3.0488,3.0621,3.0533,3.0574,3.0608,3.0467,3.04,3.036,3.006,3.0234,3.0614,3.0808,3.1076,3.0933,2.9527,2.9147,2.8596,2.6424,2.5729,2.5425,2.4891,2.3354,2.1905,2.1281,0.0,0.0,0.0,0.0,0.0,0.0,0.0,0.0,0.0,0.0,1.6712,0.0,0.0,0.0,1.6023,1.595,0.0,0.0,0.0,1.6574,0.0,1.6855,1.6926,0.0,0.0,1.6762,1.7095,1.699,1.7039,1.7289,1.9432,2.0392,2.0503,2.4817,2.6795,2.7165,2.9492,2.9607,2.832,2.7547,2.6001,2.44,2.6353,2.7326,2.7757,0.0,0.0,0.0,0.0,0.0,0.0,0.0,2.2247,0.0,1.8947,1.9169,2.0396,2.2663,2.3316,2.4394,2.6604,2.7226,2.7565,2.7628,2.8047,2.7834,2.6764,2.7374,0.0,2.6313,2.6291,2.5528,2.4019,0.0,0.0,2.0482,2.0309,1.9644,1.8648,1.9624,2.1097,2.2956,0.0,0.0,2.6852,2.8274,2.8635,2.8508,2.9705,3.0234,3.0368,3.0413,3.0648,3.0955,3.056,3.0493,3.0515,3.0221,3.0127,3.01,2.9953,3.0234,3.0667,3.0755,3.0355,2.9652,2.8823,2.7792,2.6431,2.4348,2.369,2.3163,2.2011,2.0831,1.987,1.9531,1.8551,0.0,0.0,0.0,0.0,0.0,0.0,0.0,0.0,0.0,0.0,0.0,0.0,0.0,0.0,0.0,0.0,0.0,0.0,1.6333,0.0,0.0,0.0,1.7377,0.0,1.7152,1.7463,1.7199,1.7249,1.7595,1.8744,1.9317,1.9535,2.2971,2.4399,2.4459,2.7808,2.8695,2.7898,2.7898,2.6646,2.5106,2.7434,2.8307,2.8468,0.0,2.1232,0.0,0.0,2.5604,0.0,2.6201,2.6229,2.4578,1.9546,2.0663,2.2224,2.2913,2.4973,2.6499,2.7059,2.8121,2.873,2.8564,2.9716,3.025,2.9972,2.915,2.8314,2.7322,2.5301,2.3718,0.0,0.0,0.0,0.0,1.8913,1.8298,1.7548,1.9105,0.0,0.0,0.0,2.7035,2.7576,2.9585,3.0181,2.994,3.0181,3.0408,3.0595,3.0488,3.0702,3.0982,3.049,3.0402,3.0453,3.0181,2.997,2.9827,2.9827,3.006,3.0267,3.005,2.9124,2.8081,2.7468,2.6045,2.431,2.2221,2.1612,2.1047,1.9329,1.8776,1.8483,1.8184,1.8282,0.0,0.0,0.0,0.0,0.0,0.0,0.0,0.0,0.0,0.0,0.0,0.0,0.0,0.0,0.0,0.0,1.5357,0.0,0.0,0.0,0.0,1.7124,1.7514,0.0,1.759,1.7776,1.7403,1.7439,1.7868,1.8197,1.8422,1.8686,2.0989,2.2158,2.2794,2.6213,2.8034,2.8677,2.8187,2.7009,2.5757,2.7595,2.8307,2.8629,0.0,0.0,0.0,0.0,0.0,0.0,2.5328,2.6628,2.7197,2.4873,2.5031,2.6179,2.831,2.866,2.9415,3.1081,3.1606,3.1092,2.9431,3.0341,3.0383,2.9175,2.7498,2.6343,2.5748,2.3254,2.0997,0.0,0.0,0.0,0.0,0.0,0.0,0.0,0.0,0.0,0.0,2.6726,2.8173,2.9631,3.0189,3.0181,2.9913,2.994,2.998,3.006,3.0568,3.0621,3.0429,3.0215,3.0419,3.0742,3.0715,3.0194,2.9606,2.9606,2.9203,2.8529,2.7596,2.7239,2.6498,2.3674,2.2848,2.2172,2.0038,1.9585,1.9478,1.9061,1.8834,1.8736,1.8858,1.8509,1.8231,0.0,0.0,0.0,0.0,0.0,0.0,0.0,0.0,0.0,0.0,1.6389,0.0,0.0,1.5228,0.0,0.0,0.0,0.0,1.6992,1.7067,1.7169,1.7351,1.7422,1.7489,1.7453,1.7399,1.7494,1.7725,1.9806,2.0775,2.0937,2.3135,2.5383,2.7483,2.7887,2.9371,3.1225,2.9091,2.8124,2.7973,2.8188,2.8307,2.8629,0.0,0.0,0.0,0.0,0.0,0.0,0.0,3.0316,3.0902,2.9623,2.8201,2.7718,2.881,2.89,2.9229,3.0124,2.8999,2.7807,2.6829,2.6986,2.6839,2.6041,2.5023,2.4277,2.3869,2.1481,1.9682,0.0,0.0,0.0,0.0,0.0,0.0,0.0,0.0,2.5604,2.6643,2.8055,2.9115,2.9927,3.0047,2.984,2.9496,2.9496,2.939,2.932,2.9385,2.9436,2.9501,2.9435,2.969,2.9985,2.9541,2.9183,2.8957,2.8957,2.7971,2.6972,2.6969,2.5334,2.3372,2.2585,2.1446,2.0325,1.9503,1.9224,1.9151,1.9192,1.9143,1.9037,1.8988,1.8899,1.8874,0.0,0.0,0.0,0.0,0.0,0.0,0.0,0.0,0.0,0.0,0.0,0.0,0.0,0.0,0.0,0.0,0.0,0.0,1.6799,0.0,1.7278,1.7444,1.7685,1.7776,1.7684,1.7684,1.7724,1.7827,1.876,1.9192,1.9287,2.1429,2.3762,2.6213,2.7483,2.8636,2.9619,2.8683,2.7434,2.6353,2.7757,2.8307,2.8651,2.3938,0.0,2.7854,0.0,3.1409,3.1964,3.1928,3.2688,3.2978,3.2181,2.9963,2.8576,2.8792,2.8824,2.8497,2.7671,2.6299,2.5171,2.4356,2.4457,2.4306,2.3771,2.2852,0.0,2.2015,1.9584,1.8251,1.8037,1.6029,0.0,0.0,0.0,0.0,0.0,2.5025,2.7009,2.754,2.907,2.9618,2.9523,2.9557,2.9403,2.9145,2.9222,2.915,2.8996,2.8881,2.892,2.9021,2.8972,2.9021,2.913,2.88,2.8574,2.8317,2.7715,2.6545,2.5346,2.4906,2.2978,2.1096,2.1268,2.0318,1.9306,1.9306,1.9208,1.9151,1.9281,1.9306,1.9265,1.9086,1.9265,1.9346,1.9249,0.0,0.0,0.0,0.0,0.0,0.0,0.0,1.6714,1.6446,1.6064,0.0,0.0,0.0,0.0,0.0,0.0,0.0,0.0,0.0,0.0,1.7508,1.7925,1.8077,1.7915,1.7915,1.7915,1.7915,1.7826,1.8569,1.9974,2.065,2.2855,2.6008,2.7407,2.8091,2.8242,2.7757,2.6082,2.4345,2.6677,2.7583,2.81,2.5395,2.7748,2.9433,3.0025,3.1919,3.313,3.2314,3.2652,3.2743,3.1916,3.0101,2.8962,2.9083,2.9083,2.7757,2.434,2.4778,2.451,2.2868,2.3806,2.4037,0.0,0.0,2.025,2.013,1.7618,1.6307,1.6357,0.0,0.0,1.5735,0.0,2.1067,2.3206,2.6595,2.8356,2.8817,2.971,2.9475,2.8545,2.8825,2.8927,2.892,2.9187,2.9288,2.9327,2.9606,2.953,2.9246,2.9068,2.8595,2.8277,2.9061,2.8775,2.7815,2.5798,2.478,2.3629,2.0531,2.0024,2.0127,1.902,1.9038,1.9306,1.9306,1.9306,1.9306,1.9306,1.9306,1.9306,1.9306,1.9394,1.9394,1.9045,0.0,0.0,0.0,0.0,0.0,0.0,1.7486,1.7031,1.6096,1.6365,0.0,0.0,0.0,0.0,0.0,0.0,0.0,1.708,1.7416,0.0,1.7516,1.8218,1.8337,1.7915,1.7915,1.7915,1.786,1.7663,2.0233,2.4567,2.2013,2.3751,2.8457,2.8219,2.8209,2.8145,2.6407,2.43,2.2501,2.4889,2.5894,2.6644,2.6843,2.8544,2.9536,2.9306,3.0173,3.0172,2.8077,2.805,2.8168,2.7696,2.7015,2.5969,2.4446,2.4114,2.3495,0.0,2.2255,2.1433,0.0,2.0901,2.1099,1.9341,1.849,1.8044,1.7993,1.7068,1.6506,1.6456,0.0,0.0,0.0,1.9768,2.235,2.4638,2.6789,2.8587,2.9925,2.9486,2.9205,2.9034,2.8932,2.8779,2.8631,2.8719,2.8557,2.829,2.8376,2.8352,2.829,2.8189,2.711,2.5849,2.6069,2.5875,2.5427,2.4988,2.2755,2.0309,1.9754,1.8801,1.8122,1.861,1.8775,1.8986,1.9335,1.9395,1.9306,1.9306,1.9306,1.9346,1.941,1.9475,1.9516,1.9532,1.9524,0.0,0.0,0.0,0.0,0.0,1.6909,1.6487,1.6039,1.6104,0.0,0.0,0.0,0.0,0.0,0.0,0.0,0.0,2.1742,0.0,2.2276,2.2812,2.2912,2.2593,2.2593,2.2593,2.2593,2.2541,2.3331,2.4829,2.5424,2.6671,2.8393,2.8539,2.7781,2.6353,2.4627,2.3527,2.3083,2.3854,2.5239,2.699,2.8462,2.9276,2.9314,2.8203,2.8214,2.769,2.5863,2.5884,2.5978,2.562,2.4832,2.3727,2.2168,2.1014,0.0,2.001,1.9896,1.9272,1.7868,1.8966,1.9041,1.7643,1.7358,1.7202,1.7148,1.7053,0.0,1.6863,1.6958,1.7242,1.7692,2.0594,2.3014,2.5009,2.6857,2.8426,2.9696,2.9174,2.8867,2.8731,2.8669,2.8557,2.8403,2.8501,2.8361,2.8113,2.8113,2.8113,2.7972,2.7192,2.6043,2.4817,2.4125,2.3239,2.2403,2.2469,2.07,1.8649,1.8407,1.7665,1.7178,1.8139,1.8571,1.8814,1.9366,1.9427,1.9403,1.9403,1.9354,1.9363,1.9484,1.9573,1.9678,1.9865,1.9735,1.9532,1.9346,0.0,0.0,0.0,0.0,0.0,0.0,1.6647,1.7118,0.0,0.0,0.0,0.0,0.0,0.0,2.3154,2.3844,0.0,2.4633,2.4996,2.5069,2.478,2.478,2.5269,2.6082,2.5215,2.5796,2.7613,2.8016,2.8791,2.9743,2.9263,2.7778,2.5667,2.4138,2.3127,2.2633,2.3468,2.4864,2.6393,2.9694,2.9541,2.8771,0.0,2.5966,2.5618,2.4928,2.5252,2.5439,2.4928,2.3277,2.2041,2.1759,1.9651,1.8179,1.7936,0.0,0.0,0.0,1.8101,1.8074,1.7915,1.7717,1.7514,1.7426,1.7419,1.7426,1.7439,1.8168,1.8566,1.8683,2.135,2.3385,2.4859,2.6871,2.8105,2.8647,2.8882,2.855,2.792,2.8137,2.8234,2.8258,2.8524,2.862,2.8572,2.8428,2.838,2.8079,2.5981,2.5108,2.4615,2.2911,2.089,1.9086,1.8914,1.876,1.8301,1.6741,1.668,1.7192,1.7804,1.8351,1.8896,1.9432,1.9532,1.9524,1.9516,1.9394,1.9395,1.95,1.9687,1.9865,2.0104,1.9906,1.9638,1.9322,0.0,0.0,0.0,0.0,0.0,0.0,1.7869,1.8773,0.0,0.0,0.0,0.0,0.0,2.1351,2.4025,2.4546,2.4967,2.5348,2.5578,2.5525,2.5269,2.5269,2.6407,2.8468,2.6299,2.783,3.2061,2.9837,3.0076,3.1869,3.011,2.8028,2.58,2.4587,2.289,2.1365,2.3557,2.4515,2.4951,0.0,0.0,2.6044,2.3231,2.3069,2.2621,2.0662,2.0426,2.0506,2.0367,1.9813,1.9362,1.9178,1.8544,1.8077,1.7936,1.9327,1.9593,1.8067,1.9404,1.9538,1.7977,1.7616,1.7406,1.7419,1.7419,1.7426,1.7541,1.9946,2.102,2.0853,2.3625,2.5775,2.7342,2.7403,2.8285,2.9761,2.9225,2.8886,2.8717,2.8572,2.8524,2.8524,2.8596,2.862,2.838,2.6792,2.6249,2.5944,2.3955,2.219,2.0738,2.0477,1.8878,1.7458,1.9036,1.8308,1.6982,1.6551,1.6609,1.7058,1.8034,1.9009,1.9745,1.976,1.9727,1.9687,1.954,1.9597,1.9678,1.9719,1.9873,2.006,2.0231,1.9873,1.941,1.8923,1.846,0.0,0.0,1.7567,1.7811,1.7497,1.9046,2.0355,0.0,0.0,0.0,2.6132,2.5645,2.6153,2.797,2.8918,2.9577,2.9856,3.0134,3.0212,3.0113,3.0113,3.0446,3.0928,3.0393,3.0803,3.185,3.1302,3.0697,3.0002,2.8236,2.6474,2.4688,2.3096,2.2251,2.201,2.252,2.2872,2.3137,2.4055,2.4019,2.3553,2.0805,2.059,2.0305,1.898,1.9741,2.0428,2.0428,2.124,2.175,2.1582,2.1399,2.0787,1.9577,1.9536,1.9082,1.7957,1.8987,1.9082,1.7977,1.7704,1.8106,1.9186,1.9186,1.9713,2.0887,2.2693,2.3456,2.3344,2.5941,2.7469,2.797,2.8584,2.9198,2.9787,2.9225,2.9079,2.9175,2.891,2.8801,2.8656,2.7712,2.7324,2.701,2.4827,2.414,2.3967,2.1858,2.0493,1.9506,1.8716,1.7701,1.703,1.8218,1.76,1.6486,1.6554,1.6635,1.6955,1.81,1.9236,2.0095,1.9938,1.9914,1.989,1.9784,1.9776,1.9841,2.0003,2.0044,2.0144,2.019,1.9752,1.9207,1.8671,1.829,0.0,1.7624,1.8005,1.8369,1.8379,2.022,2.1735,2.2433,2.3339,0.0,2.7766,2.7756,2.8376,2.9898,3.0745,3.1312,3.1578,3.1735,3.1807,3.1807,3.1807,3.1807,3.1807,3.1807,3.1879,3.1934,3.1233,3.0482,2.9503,2.702,2.5469,2.4459,2.2728,2.2172,2.2318,2.2318,2.2383,2.2506,2.2826,2.2424,2.1848,2.0204,1.9907,1.9907,1.9907,2.1625,2.2949,2.2949,2.4615,2.5704,2.5543,2.5307,2.4284,2.2025,2.005,1.8791,1.8412,1.8412,1.8564,1.8949,1.8949,1.9823,2.1798,2.1853,2.282,2.478,2.5527,2.5814,2.5868,2.8192,2.8917,2.8342,2.9905,3.0203,2.9574,2.9308,2.9296,2.9441,2.9224,2.8908,2.8371,2.6584,2.5638,2.4965,2.2688,2.2066,2.1999,1.9789,1.9182,1.9133,1.7527,1.708,1.7161,1.7161,1.689,1.6619,1.6696,1.6833,1.7197,1.8181,1.9275,2.0101,2.0101,2.0101,2.0101,2.0128,1.9963,1.9963,2.0263,2.019,2.0136,2.012,1.9639,1.9086,1.8573,0.0,1.816,1.854,1.8934,1.936,1.9858,2.1853,2.3525,2.4591,2.5373,2.6916,2.9557,2.911,2.9365,3.0669,3.1203,3.1566,3.1807,3.1807,3.1807,3.1807,3.1807,3.1807,3.1807,3.1807,3.1952,3.2097,3.0544,2.9734,2.9314,2.6163,2.4686,2.4308,2.2765,2.2302,2.2464,2.2407,2.2407,2.2407,2.2481,2.2424,2.2941,2.4662,2.4939,2.4939,2.4939,2.5283,2.5559,2.5559,2.5816,2.5884,2.5561,2.543,2.514,2.4319,2.391,2.2883,2.0921,2.0756,2.168,2.3638,2.3747,2.391,2.4237,2.4237,2.4454,2.478,2.6853,2.7866,2.792,3.0012,3.0977,3.0813,3.0645,3.0506,3.0407,3.0141,2.9912,2.9731,2.9695,2.8421,2.6518,2.6171,2.4926,2.2976,2.0871,2.0149,1.9894,1.8026,1.7283,1.721,1.7179,1.7093,1.7012,1.7012,1.6965,1.6917,1.6937,1.7618,1.8343,1.8499,1.9438,2.0279,2.0279,2.0279,2.0239,2.0093,2.0158,2.0255,2.0312,2.0296,2.0231,2.0144,1.9534,1.8939,1.8556,0.0,1.8671,1.8874,2.0859,2.2322,2.2583,2.5173,2.722,2.8066,2.8906,2.9908,3.1046,3.0982,3.1054,3.1264,3.1578,3.1759,3.1807,3.1807,3.1807,3.1807,3.1807,3.1807,3.1807,3.1807,3.1952,3.2085,3.0319,2.8908,2.7698,2.5658,2.4046,2.2801,2.2375,2.2302,2.2481,2.2123,2.2107,2.2212,2.4318,2.4495,2.4759,2.5902,2.6082,2.6082,2.6082,2.7212,2.8017,2.8017,2.9102,2.9695,2.9347,2.9174,2.8465,2.6816,2.6677,2.6245,2.5151,2.391,2.3692,2.478,2.478,2.5378,2.6677,2.793,2.8587,2.8587,2.9673,3.0167,3.0209,3.1183,3.1457,3.1167,3.0926,3.066,3.0383,3.0105,3.0008,2.9908,2.8584,2.7342,2.6067,2.3741,2.2171,2.096,1.8824,1.8174,1.8122,1.7297,1.6931,1.6924,1.7222,1.727,1.7236,1.7317,1.7168,1.6978,1.6978,1.7758,1.8589,1.8589,1.9477,2.032,2.032,2.032,2.0296,2.0214,2.0344,2.0499,2.0588,2.0531,2.0442,2.0369,1.9713,0.0,0.0,1.8956,1.911,1.9386,2.1567,2.3139,2.3341,2.6254,2.8268,2.8665,2.9896,3.0853,3.136,3.1384,3.1457,3.1614,3.1747,3.1807,3.1807,3.1807,3.1807,3.1807,3.1807,3.1807,3.1807,3.1952,3.1588,3.0719,2.9032,2.7438,2.5843,2.4123,2.2919,2.2188,2.2188,2.2188,2.2172,2.1945,2.1977,2.2017,2.674,2.7102,2.7098,2.7677,2.78,2.78,2.78,2.9399,3.0541,3.0541,3.2011,3.2954,3.2628,3.241,3.1443,2.9308,2.9124,2.9124,2.9124,2.7444,2.6407,2.6407,2.6407,2.7282,2.9071,3.0874,3.1807,3.1807,3.1807,3.1807,3.1807,3.1807,3.159,3.1179,3.1119,3.0829,3.0383,3.0105,2.9766,2.9264,2.7373,2.5999,2.4767,2.1432,1.9811,1.9124,1.7471,1.6978,1.7087,1.7127,1.7114,1.7127,1.7392,1.7446,1.7446,1.7507,1.7351,1.708,1.708,1.7843,1.8648,1.8648,1.9508,2.032,2.032,2.0353,2.0385,2.0385,2.0531,2.071,2.0889,2.0775,2.0629,2.0547,0.0,0.0,0.0,1.9468,1.9639,1.9987,2.2361,2.3996,2.4202,2.7303,2.9278,2.9278,3.0446,3.1276,3.1481,3.1481,3.159,3.1807,3.1807,3.1807,3.1807,3.1807,3.1807,3.1807,3.1867,3.1677,3.1248,3.1503,3.0688,2.8999,2.7291,2.5875,2.4547,2.285,2.2066,2.1936,2.2042,2.2017,2.188,2.1831,2.1711,2.1615,2.9055,2.9456,3.0134,3.2443,3.2848,3.2848,3.2848,3.3028,3.3152,3.3152,3.3252,3.3147,3.2652,3.2555,3.2296,3.1576,3.154,3.154,3.154,3.1368,3.1261,3.1261,3.1261,3.1368,3.154,3.17,3.1807,3.1807,3.1807,3.1807,3.1807,3.1807,3.1783,3.1735,3.1481,3.1203,3.0926,3.066,2.9219,2.7152,2.6926,2.451,2.0928,2.0568,1.925,1.7586,1.7425,1.7378,1.7412,1.75,1.7453,1.7419,1.7527,1.748,1.7419,1.7433,1.7412,1.7392,1.7392,1.8085,1.8872,1.8872,1.9602,2.032,2.032,2.045,2.0572,2.0572,2.0718,2.0942,2.1075,2.0962,2.0779,2.0393,0.0,0.0,1.9776,1.9898,2.025,2.0763,2.3936,2.6136,2.6347,2.952,3.1533,3.1533,3.1693,3.1759,3.1771,3.1771,3.1783,3.1807,3.1807,3.1807,3.1807,3.1807,3.1807,3.1807,3.206,3.1292,2.9696,2.9773,2.8966,2.7372,2.537,2.4596,2.4585,2.2715,2.1896,2.1912,2.1766,2.179,2.1839,2.1555,2.1207,2.0834,3.1739,3.2133,3.2287,3.324,3.3376,3.3376,3.3376,3.3376,3.3376,3.3376,3.3376,3.3171,3.2652,3.2592,3.2374,3.1855,3.1807,3.1807,3.1807,3.1807,3.1807,3.1807,3.1807,3.1807,3.1807,3.1807,3.1807,3.1807,3.1807,3.1807,3.1807,3.1807,3.171,3.1488,2.9929,2.9101,2.8708,2.7185,2.5982,2.496,2.3607,2.2082,2.0452,1.9082,1.9012,1.9394,1.8008,1.8406,1.9355,1.8024,1.7494,1.7446,1.7548,1.7554,1.7527,1.767,1.7704,1.7704,1.7704,1.8333,1.9029,1.8924,1.9695,2.0458,2.0344,2.0466,2.0596,2.0596,2.0824,2.1043,2.1116,2.1067,2.101,2.0986,0.0,2.0442,2.0596,2.058,2.1093,2.2474,2.4931,2.692,2.8091,3.0393,3.1807,3.1807,3.1807,3.1807,3.1807,3.1807,3.1807,3.1807,3.1807,3.1807,3.1807,3.1807,3.1891,3.2048,3.0889,3.006,2.9512,2.8465,2.7039,2.5399,2.467,2.3785,2.2753,2.2092,2.1701,2.1595,2.1691,2.1406,2.1017,2.089,2.0489,2.0054,3.3327,3.3497,3.3376,3.3376,3.3376,3.3376,3.3376,3.3376,3.3376,3.3376,3.3304,3.3074,3.2628,3.2519,3.2326,3.1964,3.1855,3.1843,3.1928,3.1855,3.1807,3.1807,3.1807,3.1807,3.1807,3.1807,3.1807,3.1807,3.1807,3.1807,3.1754,3.1035,3.0994,3.1411,2.9094,2.8312,2.862,2.7007,2.5847,2.5048,2.3522,2.2077,2.0637,1.9146,1.9122,1.9769,1.8216,1.8672,1.9715,1.8216,1.765,1.7575,1.7684,1.7663,1.7738,1.7881,1.7915,1.7915,1.7915,1.8532,1.9206,1.9088,1.9867,2.0645,2.0515,2.0629,2.0759,2.0767,2.1051,2.1278,2.1222,2.1254,2.1295,2.1295,2.1043,2.1119,2.1795,2.1869,2.2561,2.4411,2.6283,2.7886,2.9071,3.0767,3.1807,3.1807,3.1807,3.1807,3.1807,3.1807,3.1843,3.1928,3.1928,3.166,3.1111,3.1111,3.1205,3.137,2.951,2.8369,2.7875,2.6724,2.5203,2.3561,2.3484,2.2804,2.1716,2.1651,2.1395,2.1118,2.1246,2.0898,2.0238,2.0238,1.9845,1.9309,3.3529,3.3376,3.3376,3.3376,3.3376,3.3376,3.3376,3.3376,3.3376,3.3376,3.3147,3.2881,3.2628,3.2362,3.2205,3.2205,3.1964,3.1928,3.2181,3.1952,3.1807,3.1807,3.1807,3.1807,3.1807,3.1807,3.1807,3.1807,3.1807,3.1807,3.17,2.9393,2.9554,3.1647,2.9339,2.9473,3.1397,3.1332,2.9955,2.7701,2.7701,2.5025,2.1138,2.1138,1.9796,1.7977,1.7922,1.7922,1.7922,1.7915,1.7915,1.7915,1.7915,1.7915,1.7915,1.7915,1.7915,1.7915,1.7915,1.8757,1.954,1.9424,2.0178,2.091,2.091,2.0994,2.1078,2.1078,2.1408,2.1651,2.1425,2.1585,2.1555,2.1189,2.1278,2.1929,2.3512,2.3864,2.469,2.6417,2.8166,2.92,2.9232,3.0767,3.1807,3.1807,3.1807,3.1807,3.1807,3.1807,3.1928,3.2193,3.2193,3.137,2.9621,2.9555,2.9501,2.9566,2.8039,2.6251,2.4293,2.4357,2.3468,2.1856,2.1555,2.149,2.1699,2.1465,2.1063,2.0505,2.0505,2.0128,1.9577,1.9577,1.9192,1.8702,3.34,3.3376,3.3376,3.3376,3.3376,3.3376,3.3376,3.3376,3.3376,3.3376,3.3304,3.313,3.2628,3.2519,3.2398,3.2217,3.2133,3.2109,3.2193,3.1952,3.1807,3.1807,3.1807,3.1807,3.1807,3.1807,3.1807,3.1807,3.1807,3.0981,2.9339,3.0327,3.0274,2.9286,2.8629,2.864,2.9121,2.7501,2.632,2.5669,2.5669,2.4845,2.3711,2.3711,2.3312,2.2555,2.0866,2.0317,2.005,1.8412,1.7915,1.7915,1.7915,1.7915,1.7915,1.7915,1.7915,1.7915,1.7915,1.8412,1.9045,1.9315,2.0217,2.0903,2.0406,2.0496,2.0654,2.0654,2.0977,2.1326,2.167,2.1701,2.1675,2.1569,2.2476,2.3374,2.3856,2.5033,2.6481,2.822,2.8867,2.9673,3.0928,3.1474,3.1807,3.1807,3.1807,3.1807,3.1807,3.1807,3.1928,3.2193,3.0804,3.0009,2.9865,2.9655,2.8967,2.7755,2.5903,2.476,2.4293,2.2947,2.2107,2.1725,2.149,2.149,2.1636,2.1032,2.0678,2.045,2.001,1.9515,1.8964,1.8964,1.864,1.815,3.34,3.3376,3.3376,3.3376,3.3376,3.3376,3.3376,3.3376,3.3376,3.3376,3.3335,3.3106,3.2628,3.2495,3.2374,3.2217,3.229,3.2314,3.2205,3.2048,3.1916,3.1807,3.1807,3.1807,3.1807,3.1807,3.1368,3.0435,3.0435,2.9232,2.6948,2.766,2.8102,2.8253,2.7595,2.8145,2.9619,2.8145,2.7552,2.7552,2.7552,2.7002,2.6181,2.6181,2.5052,2.3202,2.1798,2.0694,1.9728,1.8357,1.7915,1.7915,1.7915,1.7915,1.7915,1.7915,1.7915,1.7936,1.7935,1.8392,1.8891,1.9235,1.9917,2.0404,2.0046,2.0122,2.0306,2.0311,2.0757,2.1428,2.2443,2.2794,2.3173,2.3874,2.4633,2.5423,2.6122,2.7019,2.8263,3.0017,3.0232,3.066,3.17,3.1807,3.1807,3.1807,3.1807,3.1807,3.1807,3.1904,3.1713,3.1207,3.0108,2.8967,2.7798,2.7608,2.6988,2.5955,2.4,2.3158,2.3147,2.1919,2.149,2.166,2.1237,2.1167,2.1255,2.0473,2.001,1.975,1.9405,1.8909,1.8357,1.8357,1.8205,1.7915,3.3437,3.3376,3.3376,3.3376,3.3376,3.3376,3.3376,3.3376,3.3376,3.3376,3.3171,3.2917,3.2652,3.241,3.2266,3.2266,3.2483,3.2519,3.229,3.2229,3.2109,3.1891,3.1831,3.1831,3.1879,3.1831,3.0767,2.8629,2.8414,2.7218,2.5106,2.3483,2.4726,2.8253,2.684,2.8317,3.1807,3.1807,3.1807,3.1807,3.1807,3.0542,2.8576,2.836,2.554,2.1571,2.136,1.9823,1.7915,1.7915,1.7915,1.7915,1.7915,1.7915,1.7915,1.7915,1.7936,1.7914,1.8057,1.8496,1.8979,1.9065,1.9286,1.9556,1.9808,1.9845,1.996,2.0279,2.094,2.1993,2.3778,2.4654,2.5667,2.7151,2.7326,2.7786,2.9403,2.954,3.0063,3.1629,3.1843,3.1843,3.1843,3.1819,3.1807,3.1807,3.1807,3.1754,3.1593,3.1809,3.113,2.9403,2.9415,2.7832,2.4412,2.4238,2.4155,2.4118,2.2468,2.1555,2.1384,2.1329,2.1434,2.1525,2.0741,2.0496,2.0635,1.9865,1.9192,1.8702,1.864,1.8357,1.7915,1.7915,1.7915,1.7915,3.3432,3.3376,3.3376,3.3376,3.3376,3.3376,3.3376,3.3376,3.3376,3.3376,3.336,3.3239,3.2917,3.2845,3.2821,3.2821,3.2912,3.2881,3.2821,3.2423,3.2266,3.241,3.2024,3.2,3.241,3.2012,3.154,3.1035,2.9178,2.8027,2.7542,2.7164,2.7434,2.836,2.9845,3.0993,3.1807,3.1807,3.1807,3.1807,3.1807,3.1474,3.0821,2.9017,2.6515,2.3801,2.1954,1.9823,1.7915,1.7915,1.7915,1.7915,1.7915,1.7915,1.7915,1.7915,1.7948,1.8057,1.8077,1.8291,1.8443,1.8477,1.8556,1.874,1.922,1.9433,2.0095,2.205,2.2653,2.3734,2.647,2.7071,2.7207,2.7606,2.8626,2.9382,2.9589,3.0889,3.1958,3.2091,3.2109,3.2109,3.2109,3.1928,3.1807,3.1807,3.1807,3.1207,2.9833,2.9836,2.9139,2.7635,2.6092,2.4997,2.4412,2.2828,2.2037,2.2037,2.1653,2.1425,2.1384,2.089,2.0702,2.0717,2.0088,1.982,1.9788,1.9158,1.8813,1.864,1.826,1.7977,1.7915,1.7915,1.7915,1.7915,3.3759,3.3589,3.3456,3.3589,3.3473,3.3376,3.3376,3.3376,3.3376,3.3376,3.3376,3.328,3.3014,3.2978,3.2978,3.2978,3.2978,3.2978,3.2978,3.2724,3.2592,3.2592,3.2326,3.2314,3.2592,3.2326,3.1629,3.0533,2.9261,2.8085,2.6992,2.7153,2.7709,2.8576,2.9944,3.1035,3.1807,3.1807,3.1807,3.1807,3.1807,3.1154,2.9994,2.8791,2.6136,2.2992,2.1743,1.9883,1.8024,1.835,1.8462,1.8517,1.8448,1.8406,1.8371,1.8168,1.8091,1.8124,1.8267,1.8355,1.8443,1.8511,1.8531,1.8575,1.8836,1.917,1.982,2.1182,2.2703,2.4539,2.7004,2.8389,2.9408,3.0297,3.0978,3.1357,3.1059,3.1842,3.235,3.2217,3.2085,3.2012,3.2012,3.1891,3.1807,3.1807,3.1047,3.0167,2.9243,2.8533,2.735,2.5625,2.4686,2.38,2.3002,2.1919,2.1266,2.0945,2.1266,2.1266,2.0945,2.0623,2.0333,2.001,1.9405,1.9192,1.9136,1.853,1.8302,1.8316,1.8033,1.7915,1.7915,1.7915,1.7915,1.7915,3.4016,3.3726,3.3493,3.369,3.3533,3.3376,3.3376,3.3456,3.3493,3.3493,3.3529,3.34,3.3147,3.3074,3.305,3.305,3.305,3.305,3.305,3.3014,3.2917,3.2724,3.2628,3.2628,3.2724,3.2688,3.1695,2.9679,2.9293,2.8299,2.6773,2.6619,2.7549,2.9304,2.9559,3.0435,3.1754,3.1368,3.1207,3.1154,3.0767,2.9458,2.7649,2.7272,2.4672,2.125,2.0866,1.9611,1.8202,1.8727,1.8994,1.9199,1.9071,1.9014,1.8937,1.8556,1.831,1.8213,1.8464,1.8552,1.8599,1.8786,1.8878,1.8902,1.8721,1.9139,1.9699,2.0348,2.2547,2.5006,2.7241,2.9332,3.1274,3.3024,3.3166,3.2881,3.2628,3.241,3.229,3.2326,3.1827,3.1475,3.138,3.11,3.094,3.094,2.9565,2.864,2.8328,2.7153,2.559,2.3601,2.3772,2.3066,2.1266,2.1266,2.0945,2.034,2.0835,2.0827,2.0333,2.0238,1.99,1.9405,1.8813,1.8585,1.853,1.8088,1.7915,1.7915,1.7915,1.7915,1.7915,1.7915,1.7915,1.7915,3.3787,3.3593,3.3432,3.3437,3.34,3.3376,3.3376,3.3626,3.3726,3.3726,3.3919,3.3992,3.3702,3.3473,3.336,3.336,3.336,3.336,3.336,3.3111,3.3074,3.3299,3.2876,3.2821,3.3299,3.305,3.2699,3.2142,3.0064,2.9976,3.1625,2.9382,2.9533,3.1737,3.154,3.1593,3.1647,2.9619,2.8791,2.8576,2.6569,2.554,2.5052,2.2992,2.1853,2.1039,1.906,1.8239,1.8111,1.8346,1.8754,1.922,1.9199,1.9185,1.9142,1.91,1.878,1.8477,1.8511,1.864,1.8742,1.8762,1.9161,1.956,1.9546,1.9589,2.0406,2.3122,2.3983,2.552,2.9456,3.0439,3.1217,3.2797,3.3014,3.2881,3.2628,3.2555,3.2628,3.2845,3.1299,3.0037,2.9599,2.821,2.7282,2.7282,2.7066,2.6309,2.4799,2.4501,2.3574,2.1823,2.1784,2.1408,2.0623,2.0623,2.0333,1.9743,1.9805,1.9805,1.9687,1.9192,1.893,1.8813,1.826,1.8033,1.7977,1.7922,1.7915,1.7915,1.7915,1.7915,1.7915,1.7915,1.7915,1.7915,3.3956,3.3666,3.3437,3.3626,3.3529,3.3376,3.3376,3.3662,3.3726,3.3626,3.3919,3.4016,3.3593,3.3493,3.3376,3.3376,3.3376,3.3376,3.3376,3.3268,3.3299,3.3376,3.3147,3.3147,3.3376,3.3268,3.3147,3.3069,3.2003,3.2003,3.3014,3.1691,3.1629,3.2628,3.2205,3.1313,2.9972,2.8792,2.7542,2.6245,2.5215,2.4019,2.2711,2.1688,2.049,1.9309,1.8441,1.8213,1.8398,1.8765,1.9405,1.9955,1.9787,1.9787,1.9804,1.9405,1.8934,1.8494,1.864,1.8708,1.8878,1.9219,1.9502,1.9864,2.0566,2.0724,2.1064,2.2448,2.3734,2.522,2.7279,2.8286,2.9428,3.119,3.1397,3.16,3.2494,3.1617,3.0542,2.9557,2.8758,2.8148,2.781,2.7066,2.6579,2.6579,2.5713,2.4799,2.4037,2.3056,2.2198,2.1439,2.1063,2.0772,2.0505,2.0183,1.9687,1.9081,1.9081,1.9081,1.9081,1.8813,1.853,1.826,1.7977,1.7915,1.7915,1.7915,1.7915,1.7915,1.7915,1.7915,1.7915,1.7915,1.7915,1.7915]},{"header":{"parameterUnit":"m.s-1","parameterCategory":1,"la1":30.6,"la2":28.766,"lo1":-90.7593,"lo2":-88.6598,"dy":0.0162,"dx":0.0183,"nx":116,"ny":114,"refTime":"2023-10-01T12:00:00:Z","depth":0,"parameterNumber":3,"parameterNumberName":"V-component_of_WINDS"},"data":[0.0,0.0,0.0,0.0,0.0,0.0,0.0,0.0,0.0,0.0,0.0,0.0,0.0,0.0,0.0,0.0,0.0,0.0,0.0,0.0,0.0,0.0,0.0,0.0,0.0,0.0,0.0,0.0,0.0,0.0,0.0,0.0,0.0,0.0,0.0,0.0,0.0,0.0,0.0,0.0,0.0,0.0,0.0,0.0,0.0,0.0,0.0,0.0,0.0,0.0,0.0,0.0,0.0,0.0,0.0,0.0,0.0,0.0,0.0,0.0,0.0,0.0,0.0,0.0,0.0,0.0,0.0,0.0,0.0,0.0,0.0,0.0,0.0,0.0,0.0,0.0,0.0,0.0,0.0,0.0,0.0,0.0,0.0,0.0,0.0,0.0,0.0,0.0,0.0,0.0,0.0,0.0,0.0,0.0,0.0,0.0,0.0,0.0,0.0,0.0,0.0,0.0,0.0,0.0,0.0,0.0,0.0,0.0,0.0,0.0,0.0,0.0,0.0,0.0,0.0,0.0,0.0,0.0,0.0,0.0,0.0,0.0,0.0,0.0,0.0,0.0,0.0,0.0,0.0,0.0,0.0,0.0,0.0,0.0,0.0,0.0,0.0,0.0,0.0,0.0,0.0,0.0,0.0,0.0,0.0,0.0,0.0,0.0,0.0,0.0,0.0,0.0,0.0,0.0,0.0,0.0,0.0,0.0,0.0,0.0,0.0,0.0,0.0,0.0,0.0,0.0,0.0,0.0,0.0,0.0,0.0,0.0,0.0,0.0,0.0,0.0,0.0,0.0,0.0,0.0,0.0,0.0,0.0,0.0,0.0,0.0,0.0,0.0,0.0,0.0,0.0,0.0,0.0,0.0,0.0,0.0,0.0,0.0,0.0,0.0,0.0,0.0,0.0,0.0,0.0,0.0,0.0,0.0,0.0,0.0,0.0,0.0,0.0,0.0,0.0,0.0,0.0,0.0,0.0,0.0,0.0,0.0,0.0,0.0,0.0,0.0,0.0,0.0,0.0,0.0,0.0,0.0,0.0,0.0,0.0,0.0,0.0,0.0,0.0,0.0,0.0,0.0,0.0,0.0,0.0,0.0,0.0,0.0,0.0,0.0,0.0,0.0,0.0,0.0,0.0,0.0,0.0,0.0,0.0,0.0,0.0,0.0,0.0,0.0,0.0,0.0,0.0,0.0,0.0,0.0,0.0,0.0,0.0,0.0,0.0,0.0,0.0,0.0,0.0,0.0,0.0,0.0,0.0,0.0,0.0,0.0,0.0,0.0,0.0,0.0,0.0,0.0,0.0,0.0,0.0,0.0,0.0,0.0,0.0,0.0,0.0,0.0,0.0,0.0,0.0,0.0,0.0,0.0,0.0,0.0,0.0,0.0,0.0,0.0,0.0,0.0,0.0,0.0,0.0,0.0,0.0,0.0,0.0,0.0,0.0,0.0,0.0,0.0,0.0,0.0,0.0,0.0,0.0,0.0,0.0,0.0,0.0,0.0,0.0,0.0,0.0,0.0,0.0,0.0,0.0,0.0,0.0,0.0,0.0,0.0,0.0,0.0,0.0,0.0,0.0,0.0,0.0,0.0,0.0,0.0,0.0,0.0,0.0,0.0,0.0,0.0,0.0,0.0,0.0,0.0,0.0,0.0,0.0,0.0,0.0,0.0,0.0,0.0,0.0,0.0,0.0,0.0,0.0,0.0,0.0,0.0,0.0,0.0,0.0,0.0,0.0,0.0,0.0,0.0,0.0,0.0,0.0,0.0,0.0,0.0,0.0,0.0,0.0,0.0,0.0,0.0,0.0,0.0,0.0,0.0,0.0,0.0,0.0,0.0,0.0,0.0,0.0,0.0,0.0,0.0,0.0,0.0,0.0,0.0,0.0,0.0,0.0,0.0,0.0,0.0,0.0,0.0,0.0,0.0,0.0,0.0,0.0,0.0,0.0,0.0,0.0,0.0,0.0,0.0,0.0,0.0,0.0,0.0,0.0,0.0,0.0,0.0,0.0,0.0,0.0,0.0,0.0,0.0,0.0,0.0,0.0,0.0,0.0,0.0,0.0,0.0,0.0,0.0,0.0,0.0,0.0,0.0,0.0,0.0,0.0,0.0,0.0,0.0,0.0,0.0,0.0,0.0,0.0,0.0,0.0,0.0,0.0,0.0,0.0,0.0,0.0,0.0,0.0,0.0,0.0,0.0,0.0,0.0,0.0,0.0,0.0,0.0,0.0,0.0,0.0,0.0,0.0,0.0,0.0,0.0,0.0,0.0,0.0,0.0,0.0,0.0,0.0,0.0,0.0,0.0,0.0,0.0,0.0,0.0,0.0,0.0,0.0,0.0,0.0,0.0,0.0,0.0,0.0,0.0,0.0,0.0,0.0,0.0,0.0,0.0,0.0,0.0,0.0,0.0,0.0,0.0,0.0,0.0,0.0,0.0,0.0,0.0,0.0,0.0,0.0,0.0,0.0,0.0,0.0,0.0,0.0,0.0,0.0,0.0,0.0,0.0,0.0,0.0,0.0,0.0,0.0,0.0,0.0,0.0,0.0,0.0,0.0,0.0,0.0,0.0,0.0,0.0,0.0,0.0,0.0,0.0,0.0,0.0,0.0,0.0,0.0,0.0,0.0,0.0,0.0,0.0,0.0,0.0,0.0,0.0,0.0,0.0,0.0,0.0,0.0,0.0,0.0,0.0,0.0,0.0,0.0,0.0,0.0,0.0,0.0,0.0,0.0,0.0,0.0,0.0,0.0,0.0,0.0,0.0,0.0,0.0,0.0,0.0,0.0,0.0,0.0,0.0,0.0,0.0,0.0,0.0,0.0,0.0,0.0,0.0,0.0,0.0,0.0,0.0,0.0,0.0,0.0,0.0,0.0,0.0,0.0,0.0,0.0,0.0,0.0,0.0,0.0,0.0,0.0,0.0,0.0,0.0,0.0,0.0,0.0,0.0,0.0,0.0,0.0,0.0,0.0,0.0,0.0,0.0,0.0,0.0,0.0,0.0,0.0,0.0,0.0,0.0,0.0,0.0,0.0,0.0,0.0,0.0,0.0,0.0,0.0,0.0,0.0,0.0,0.0,0.0,0.0,0.0,0.0,0.0,0.0,0.0,0.0,0.0,0.0,0.0,0.0,0.0,0.0,0.0,0.0,0.0,0.0,0.0,0.0,0.0,0.0,0.0,0.0,0.0,0.0,0.0,0.0,0.0,0.0,0.0,0.0,0.0,0.0,0.0,0.0,0.0,0.0,0.0,0.0,0.0,0.0,0.0,0.0,0.0,0.0,0.0,0.0,0.0,0.0,0.0,0.0,0.0,0.0,0.0,0.0,0.0,0.0,0.0,0.0,0.0,0.0,0.0,0.0,0.0,0.0,0.0,0.0,0.0,0.0,0.0,0.0,0.0,0.0,0.0,0.0,0.0,0.0,0.0,0.0,0.0,0.0,0.0,0.0,0.0,0.0,0.0,0.0,0.0,0.0,0.0,0.0,0.0,0.0,0.0,0.0,0.0,0.0,0.0,0.0,0.0,0.0,0.0,0.0,0.0,0.0,0.0,0.0,0.0,0.0,0.0,0.0,0.0,0.0,0.0,0.0,0.0,0.0,0.0,0.0,0.0,0.0,0.0,0.0,0.0,0.0,0.0,0.0,0.0,0.0,0.0,0.0,0.0,0.0,0.0,0.0,0.0,0.0,0.0,0.0,0.0,0.0,0.0,0.0,0.0,0.0,0.0,0.0,0.0,0.0,0.0,0.0,0.0,0.0,0.0,0.0,0.0,0.0,0.0,0.0,0.0,0.0,0.0,0.0,0.0,0.0,0.0,0.0,0.0,0.0,0.0,0.0,0.0,0.0,0.0,0.0,0.0,0.0,0.0,0.0,0.0,0.0,0.0,0.0,0.0,0.0,0.0,0.0,0.0,0.0,0.0,0.0,0.0,0.0,0.0,0.0,0.0,0.0,0.0,0.0,0.0,0.0,0.0,0.0,0.0,0.0,0.0,0.0,0.0,0.0,0.0,0.0,0.0,0.0,0.0,0.0,0.0,0.0,0.0,0.0,0.0,0.0,0.0,0.0,0.0,0.0,0.0,0.0,0.0,0.0,0.0,0.0,0.0,0.0,0.0,0.0,0.0,0.0,0.0,0.0,0.0,0.0,0.0,0.0,0.0,0.0,0.0,0.0,0.0,0.0,0.0,0.0,0.0,0.0,0.0,0.0,0.0,0.0,0.0,0.0,0.0,0.0,0.0,0.0,0.0,0.0,0.0,0.0,0.0,0.0,0.0,0.0,0.0,0.0,0.0,0.0,0.0,0.0,0.0,0.0,0.0,0.0,0.0,0.0,0.0,0.0,0.0,0.0,0.0,0.0,0.0,0.0,0.0,0.0,0.0,0.0,0.0,0.0,0.0,0.0,0.0,0.0,0.0,0.0,0.0,0.0,0.0,0.0,0.0,0.0,0.0,0.0,0.0,0.0,0.0,0.0,0.0,0.0,0.0,0.0,0.0,0.0,0.0,0.0,0.0,0.0,0.0,0.0,0.0,0.0,0.0,0.0,0.0,0.0,0.0,0.0,0.0,0.0,0.0,0.0,0.0,0.0,0.0,0.0,0.0,0.0,0.0,0.0,0.0,0.0,0.0,0.0,0.0,0.0,0.0,0.0,0.0,0.0,0.0,0.0,0.0,0.0,0.0,0.0,0.0,0.0,0.0,0.0,0.0,0.0,0.0,0.0,0.0,0.0,0.0,0.0,0.0,0.0,0.0,0.0,0.0,0.0,0.0,0.0,0.0,0.0,0.0,0.0,0.0,0.0,0.0,0.0,0.0,0.0,0.0,0.0,0.0,0.0,0.0,0.0,0.0,0.0,0.0,0.0,0.0,0.0,0.0,0.0,0.0,0.0,0.0,0.0,0.0,0.0,0.0,0.0,0.0,0.0,0.0,0.0,0.0,0.0,0.0,0.0,0.0,0.0,0.0,0.0,0.0,0.0,0.0,0.0,0.0,0.0,0.0,0.0,0.0,0.0,0.0,0.0,0.0,0.0,0.0,0.0,0.0,0.0,0.0,0.0,0.0,0.0,0.0,0.0,0.0,0.0,0.0,0.0,0.0,0.0,0.0,0.0,0.0,0.0,0.0,0.0,0.0,0.0,0.0,0.0,0.0,0.0,0.0,0.0,0.0,0.0,0.0,0.0,0.0,0.0,0.0,0.0,0.0,0.0,0.0,0.0,0.0,0.0,0.0,0.0,0.0,0.0,0.0,0.0,0.0,0.0,0.0,0.0,0.0,0.0,0.0,0.0,0.0,0.0,0.0,0.0,0.0,0.0,0.0,0.0,0.0,0.0,0.0,0.0,0.0,0.0,0.0,0.0,0.0,0.0,0.0,0.0,0.0,0.0,0.0,0.0,0.0,0.0,0.0,0.0,0.0,0.0,0.0,0.0,0.0,0.0,0.0,0.0,0.0,0.0,0.0,0.0,0.0,0.0,0.0,0.0,0.0,0.0,0.0,0.0,0.0,0.0,0.0,0.0,0.0,0.0,0.0,0.0,0.0,0.0,0.0,0.0,0.0,0.0,0.0,0.0,0.0,0.0,0.0,0.0,0.0,0.0,0.0,0.0,0.0,0.0,0.0,0.0,0.0,0.0,0.0,0.0,0.0,0.0,0.0,0.0,0.0,0.0,0.0,0.0,0.0,0.0,0.0,0.0,0.0,0.0,0.0,0.0,0.0,0.0,0.0,0.0,0.0,0.0,0.0,0.0,0.0,0.0,0.0,0.0,0.0,0.0,0.0,0.0,0.0,0.0,0.0,0.0,0.0,0.0,0.0,0.0,0.0,0.0,0.0,0.0,0.0,0.0,0.0,0.0,0.0,0.0,0.0,0.0,0.0,0.0,0.0,0.0,0.0,0.0,0.0,0.0,0.0,0.0,0.0,0.0,0.0,0.0,0.0,0.0,0.0,0.0,0.0,0.0,0.0,0.0,0.0,0.0,0.0,0.0,0.0,0.0,0.0,0.0,0.0,0.0,0.0,0.0,0.0,0.0,0.0,0.0,0.0,0.0,0.0,0.0,0.0,0.0,0.0,0.0,0.0,0.0,0.0,0.0,0.0,0.0,0.0,5.3212,0.0,0.0,0.0,0.0,0.0,0.0,0.0,0.0,0.0,0.0,0.0,0.0,0.0,0.0,0.0,0.0,0.0,0.0,0.0,0.0,0.0,0.0,0.0,0.0,0.0,0.0,0.0,0.0,0.0,0.0,0.0,0.0,0.0,0.0,0.0,0.0,0.0,0.0,4.3176,4.3384,4.4539,4.6593,4.6973,4.6655,4.58,0.0,0.0,0.0,0.0,0.0,0.0,0.0,0.0,0.0,0.0,0.0,0.0,0.0,0.0,0.0,0.0,0.0,0.0,0.0,0.0,0.0,0.0,0.0,0.0,0.0,0.0,0.0,0.0,0.0,0.0,0.0,0.0,0.0,0.0,0.0,0.0,0.0,0.0,0.0,0.0,0.0,0.0,0.0,0.0,0.0,0.0,0.0,0.0,0.0,0.0,0.0,0.0,0.0,0.0,0.0,0.0,0.0,0.0,0.0,0.0,0.0,0.0,0.0,0.0,0.0,0.0,0.0,0.0,0.0,0.0,0.0,5.4142,0.0,0.0,0.0,0.0,0.0,0.0,0.0,0.0,0.0,0.0,0.0,0.0,0.0,0.0,0.0,0.0,0.0,0.0,0.0,0.0,0.0,0.0,0.0,4.5279,4.5792,4.5912,4.5796,4.5758,0.0,0.0,0.0,0.0,0.0,0.0,4.42,4.3433,4.3374,4.4121,4.5291,4.7346,5.0219,5.1211,5.0017,4.7015,4.7028,0.0,0.0,0.0,0.0,0.0,0.0,0.0,0.0,0.0,0.0,0.0,0.0,0.0,0.0,0.0,0.0,0.0,0.0,0.0,0.0,0.0,0.0,0.0,0.0,0.0,0.0,0.0,0.0,0.0,0.0,0.0,0.0,0.0,0.0,0.0,0.0,0.0,0.0,0.0,0.0,0.0,0.0,0.0,0.0,0.0,0.0,0.0,0.0,0.0,0.0,0.0,0.0,0.0,0.0,0.0,0.0,0.0,0.0,0.0,0.0,0.0,0.0,0.0,6.2925,6.3118,6.2787,6.3201,6.3294,6.3003,6.0415,5.9509,5.9633,5.5817,0.0,0.0,0.0,0.0,0.0,0.0,0.0,0.0,0.0,0.0,0.0,0.0,0.0,0.0,0.0,0.0,0.0,0.0,0.0,4.4362,4.4259,4.5013,4.5747,4.6278,4.5661,4.5589,4.6296,0.0,0.0,0.0,0.0,4.4968,4.4952,4.5262,4.5799,4.6539,4.9222,5.1096,5.2231,5.3374,5.3618,5.3059,5.1134,5.0354,5.0355,0.0,0.0,0.0,0.0,0.0,0.0,0.0,0.0,0.0,0.0,0.0,0.0,0.0,0.0,0.0,0.0,0.0,0.0,0.0,0.0,0.0,0.0,0.0,0.0,0.0,0.0,0.0,0.0,0.0,0.0,0.0,0.0,0.0,0.0,0.0,0.0,0.0,0.0,0.0,0.0,0.0,5.4304,5.5365,0.0,0.0,0.0,0.0,0.0,0.0,0.0,0.0,0.0,0.0,0.0,0.0,0.0,6.2051,6.361,6.6837,6.8516,6.8688,7.1176,7.1688,7.0382,7.095,7.0826,7.0131,6.9673,0.0,6.1807,5.9115,0.0,0.0,0.0,0.0,0.0,0.0,0.0,0.0,0.0,0.0,0.0,0.0,0.0,0.0,0.0,0.0,0.0,0.0,0.0,0.0,0.0,4.6352,4.7397,4.7371,4.8325,4.8523,4.757,4.7103,0.0,0.0,4.5072,4.5124,4.5589,4.5697,4.6975,4.9524,5.2341,5.4494,5.6023,5.6276,5.686,5.7638,5.5428,5.3561,5.209,5.213,0.0,0.0,0.0,0.0,0.0,0.0,0.0,0.0,0.0,0.0,0.0,0.0,0.0,0.0,0.0,0.0,0.0,0.0,0.0,0.0,0.0,0.0,0.0,0.0,0.0,0.0,0.0,0.0,0.0,0.0,0.0,0.0,0.0,0.0,0.0,0.0,0.0,0.0,0.0,5.4073,5.6639,5.6628,5.7548,5.7142,0.0,0.0,0.0,0.0,0.0,0.0,0.0,0.0,0.0,6.6083,6.7879,6.969,7.1415,7.3194,7.43,7.4748,7.5554,7.5824,7.5539,7.4885,7.4671,7.4683,7.3251,7.1618,6.9558,6.5054,6.2335,6.081,0.0,0.0,0.0,0.0,5.7646,5.7004,0.0,0.0,0.0,0.0,0.0,0.0,0.0,0.0,0.0,0.0,0.0,0.0,4.5426,4.7463,4.8706,4.8482,4.9986,5.0274,4.856,4.7957,4.7021,4.5475,4.5284,4.5494,4.6013,4.6792,4.9078,5.2928,5.5478,5.7762,5.9711,5.9567,6.0123,6.119,5.9676,5.7269,5.4348,5.4713,5.2434,4.8524,0.0,0.0,0.0,0.0,0.0,0.0,0.0,0.0,0.0,0.0,0.0,0.0,0.0,0.0,0.0,0.0,0.0,0.0,0.0,0.0,0.0,0.0,0.0,0.0,0.0,0.0,0.0,0.0,0.0,0.0,0.0,0.0,0.0,0.0,0.0,0.0,0.0,5.8008,6.0087,5.8466,6.1137,6.1265,0.0,0.0,0.0,0.0,0.0,0.0,6.7081,6.8644,7.0561,7.2945,7.4774,7.649,7.802,7.8455,7.8928,7.9479,7.8928,7.8928,7.9441,7.8312,7.811,7.8575,7.6801,7.6381,7.6541,7.0299,6.6773,6.5158,6.3932,6.233,6.0962,6.2708,6.2648,6.1934,0.0,0.0,0.0,0.0,0.0,0.0,0.0,0.0,0.0,0.0,0.0,4.64,4.6256,4.7675,4.883,4.9394,4.9005,4.8712,4.8598,4.7316,4.6188,4.526,4.5971,4.6308,4.6089,4.9626,5.3224,5.6814,5.899,6.09,6.2512,6.327,6.3601,6.3637,6.3861,6.1829,5.8084,5.5779,5.3796,5.1958,4.8902,0.0,0.0,0.0,0.0,0.0,0.0,0.0,0.0,0.0,0.0,0.0,0.0,0.0,0.0,0.0,0.0,0.0,0.0,0.0,0.0,0.0,0.0,0.0,0.0,0.0,0.0,0.0,0.0,0.0,0.0,0.0,0.0,0.0,0.0,0.0,0.0,0.0,0.0,6.247,6.8299,0.0,0.0,0.0,0.0,6.8244,6.9201,7.0776,7.3136,7.4258,7.5522,7.7072,7.8738,8.0033,8.0905,8.1679,8.2074,8.2111,8.2074,8.2074,8.2123,8.2304,8.2399,8.2409,8.2499,8.1681,7.9753,7.3269,7.0837,7.1017,6.857,6.75,6.7347,6.6936,6.7178,6.7564,0.0,0.0,0.0,0.0,0.0,0.0,0.0,0.0,4.5684,4.561,4.649,4.7094,4.7004,4.9741,5.1556,5.157,5.2347,5.2302,5.1019,4.9298,4.7919,4.7108,4.671,4.7381,4.9273,5.1857,5.4616,5.7599,5.9082,6.08,6.2672,6.2448,6.3185,6.4657,6.3695,6.3078,6.2718,6.1136,5.8547,5.5417,5.4371,5.1088,0.0,0.0,0.0,0.0,0.0,0.0,0.0,0.0,0.0,0.0,0.0,0.0,0.0,0.0,0.0,0.0,0.0,0.0,0.0,0.0,0.0,0.0,0.0,0.0,0.0,0.0,0.0,0.0,0.0,0.0,0.0,0.0,0.0,0.0,0.0,0.0,0.0,6.7341,7.1642,0.0,6.8563,7.0177,7.2008,7.3238,7.5146,7.7028,7.8819,8.0268,8.1298,8.1811,8.2907,8.3621,8.3915,8.422,8.4372,8.4372,8.4518,8.4615,8.4624,8.4305,8.3879,8.3333,8.286,8.2,8.0677,7.7246,7.5226,7.4267,7.3517,7.2241,7.0823,7.1159,7.0761,7.0073,0.0,0.0,0.0,0.0,0.0,0.0,0.0,4.5845,4.5831,4.6005,4.7202,4.8157,4.843,5.1226,5.3079,5.3147,5.371,5.341,5.1782,5.025,4.8956,4.7849,4.8121,4.9515,5.2126,5.4061,5.6179,5.8546,5.9427,6.0905,6.2824,6.231,6.3187,6.5224,6.4102,6.4492,6.5965,6.529,6.2868,5.9491,5.8768,5.5556,5.0944,0.0,0.0,0.0,0.0,0.0,0.0,0.0,0.0,0.0,0.0,0.0,0.0,0.0,0.0,0.0,0.0,0.0,0.0,0.0,0.0,0.0,0.0,0.0,0.0,0.0,0.0,0.0,0.0,0.0,0.0,0.0,0.0,0.0,0.0,6.9246,7.235,7.1306,7.5543,7.7069,7.3226,7.5682,7.7903,7.8844,8.1016,8.286,8.4087,8.4952,8.5373,8.5373,8.5633,8.5892,8.617,8.5892,8.5892,8.617,8.6086,8.6017,8.6025,8.5622,8.4986,8.4133,8.3589,8.2708,8.1553,8.0506,7.9153,7.7665,7.6565,7.515,7.3657,7.3715,7.3209,7.2491,0.0,0.0,0.0,0.0,0.0,0.0,4.5947,4.5922,4.6138,4.6808,4.8321,4.9649,5.0418,5.1918,5.32,5.397,5.2772,5.1568,5.0716,5.0058,4.8973,4.7375,5.0331,5.2767,5.4402,5.6383,5.8249,5.9928,6.046,6.1534,6.3177,6.3177,6.3954,6.5399,6.5436,6.6261,6.7636,6.7782,6.6464,6.4098,6.1584,5.974,5.7967,0.0,0.0,0.0,0.0,0.0,0.0,0.0,0.0,0.0,0.0,0.0,0.0,0.0,0.0,0.0,0.0,0.0,0.0,0.0,0.0,0.0,0.0,0.0,0.0,0.0,0.0,0.0,0.0,0.0,0.0,0.0,0.0,0.0,6.8911,7.4345,7.7232,7.4383,8.0319,8.2848,7.8271,8.228,8.5154,8.5147,8.6691,8.7996,8.8799,8.802,8.7549,8.7549,8.677,8.6731,8.7472,8.6693,8.6731,8.7433,8.67,8.6353,8.6314,8.6368,8.5906,8.5133,8.5043,8.4098,8.2573,8.2793,8.2363,8.1266,7.7638,7.6225,7.6031,7.463,7.4566,7.4986,0.0,0.0,0.0,0.0,0.0,0.0,4.614,4.6069,4.6112,4.6305,4.8638,5.0417,5.061,5.3002,5.4781,5.5212,5.3764,5.2575,5.19,5.0558,4.9853,5.0022,5.2647,5.5058,5.7161,5.8946,6.0789,6.2749,6.2927,6.3462,6.4424,6.4424,6.4944,6.5937,6.6503,6.7363,6.8429,6.9637,6.9771,6.893,6.6059,6.3256,6.052,0.0,0.0,0.0,0.0,0.0,0.0,0.0,0.0,0.0,0.0,0.0,0.0,0.0,0.0,0.0,0.0,0.0,0.0,0.0,0.0,0.0,0.0,0.0,0.0,0.0,0.0,0.0,0.0,0.0,0.0,0.0,7.2276,7.554,7.5876,7.7446,7.9394,8.1642,8.4364,8.5791,8.5114,8.6979,8.8193,8.8042,8.85,8.9051,8.9702,8.8915,8.8452,8.8452,8.822,8.7626,8.6654,8.7001,8.7001,8.6654,8.7174,8.7132,8.6559,8.7414,8.7015,8.5612,8.5658,8.5032,8.3933,8.28,8.2159,8.1744,8.0139,7.9104,7.8384,7.6721,7.5432,7.4221,0.0,0.0,0.0,0.0,0.0,0.0,4.6194,4.6176,4.6266,4.6614,4.9437,5.1453,5.148,5.4013,5.5641,5.5416,5.4161,5.2961,5.1851,5.0904,5.0946,5.2139,5.4968,5.724,5.876,6.0815,6.258,6.4035,6.3955,6.4472,6.5534,6.5452,6.6034,6.7162,6.7655,6.83,6.9171,7.0526,7.1284,7.1416,6.934,6.6869,6.4204,6.1892,6.0133,5.859,5.6664,5.6846,5.7786,5.6108,0.0,0.0,0.0,0.0,0.0,0.0,0.0,0.0,0.0,0.0,0.0,0.0,0.0,0.0,0.0,0.0,0.0,0.0,0.0,0.0,0.0,0.0,0.0,0.0,7.717,8.0592,8.3373,8.2834,8.3486,8.6997,8.7987,8.8705,8.9558,9.0541,9.1101,9.0961,9.1304,9.1643,9.1998,9.1211,9.0579,9.0249,9.0192,8.9533,8.8228,8.8693,8.8693,8.8228,8.855,8.823,8.7414,8.814,8.7315,8.5357,8.5332,8.4677,8.3484,8.2511,8.2081,0.0,0.0,0.0,0.0,0.0,7.499,7.3632,0.0,0.0,0.0,0.0,0.0,0.0,4.6205,4.6201,4.65,4.7416,5.0449,5.2559,5.2708,5.4876,5.5981,5.5227,5.4166,5.2961,5.1503,5.1456,5.2314,5.4191,5.7448,5.9498,5.9983,6.246,6.3984,6.4411,6.4235,6.4916,6.6338,6.615,6.6917,6.841,6.8496,6.9027,6.9975,7.0726,7.1494,7.2215,7.1447,7.0269,6.856,6.537,6.4087,6.3707,6.1363,6.0782,6.1055,6.043,0.0,0.0,0.0,0.0,0.0,0.0,0.0,0.0,0.0,0.0,0.0,0.0,0.0,0.0,0.0,0.0,0.0,0.0,0.0,0.0,0.0,0.0,0.0,0.0,8.1937,8.4698,9.0179,8.9105,8.8579,9.0833,9.1105,9.1454,9.2304,9.3081,9.3547,9.3547,9.4262,9.4778,9.4972,0.0,0.0,0.0,0.0,9.1962,9.108,9.108,9.101,9.091,9.0241,8.942,8.8497,8.8581,8.7245,8.4826,8.4788,8.3857,8.2402,8.2285,8.2182,8.1953,8.0289,7.9039,7.7848,7.5547,7.4136,7.3339,0.0,0.0,0.0,0.0,0.0,0.0,4.6118,4.6128,4.6679,4.824,5.0808,5.2754,5.3504,5.5244,5.6306,5.6063,5.4037,5.2847,5.3183,5.3222,5.4582,5.768,6.0477,6.2323,6.3103,6.4966,6.5863,6.5822,6.5786,6.5854,6.6088,6.5868,6.6294,6.7237,6.7775,6.8999,7.0593,7.0555,7.1131,7.205,7.171,7.1985,7.2268,6.9636,6.901,6.9323,6.7505,6.7943,6.9059,6.6825,6.6268,6.6533,6.6438,6.423,0.0,0.0,0.0,0.0,0.0,0.0,0.0,0.0,0.0,0.0,0.0,0.0,0.0,0.0,0.0,0.0,0.0,0.0,0.0,8.1358,8.5342,8.9011,9.158,9.2052,9.2343,9.2848,9.2887,9.3242,9.4096,9.4368,9.4446,9.4446,9.4645,9.5359,9.6721,9.5391,9.4855,9.5416,9.4739,9.3609,9.2026,9.2023,9.1678,9.0979,0.0,0.0,8.8447,8.9206,8.8118,8.5659,8.5702,8.5195,8.4216,8.3513,8.2797,8.1986,8.1007,7.9675,7.8125,7.6937,7.5502,7.4095,0.0,0.0,0.0,0.0,0.0,0.0,4.6054,4.6083,4.6574,4.788,5.0312,5.2226,5.3083,5.4333,5.51,5.5104,5.388,5.3689,5.4925,5.5791,5.7418,5.9979,6.2581,6.4135,6.4605,6.6275,6.7103,6.6997,6.7348,6.7696,6.8077,6.8274,6.8565,6.9012,6.9335,7.0048,7.1006,7.1326,7.2,7.2891,7.2804,7.3633,7.4735,7.2682,7.2358,7.2953,7.2508,7.3107,7.3873,7.2614,7.2047,7.1804,7.1815,7.0254,6.8031,0.0,0.0,0.0,0.0,0.0,0.0,0.0,0.0,0.0,0.0,0.0,0.0,0.0,0.0,7.5859,7.8459,0.0,8.3125,8.664,8.8967,9.1187,9.3799,9.4487,9.4737,9.4708,9.4679,9.5054,9.5961,9.6066,9.6067,9.6067,9.6077,9.6474,9.7291,9.6578,9.6173,9.6193,9.6173,9.5317,9.3622,9.4049,9.3592,9.2286,9.2334,9.1443,8.9804,8.9842,8.8668,8.6559,8.5733,8.4901,8.4023,8.3178,8.2522,8.206,8.1666,8.0447,7.874,7.7489,7.6173,7.4979,0.0,0.0,0.0,0.0,0.0,0.0,4.5989,4.6029,4.6459,4.7515,4.9631,5.1356,5.2213,5.3081,5.3515,5.3391,5.381,5.4764,5.6436,5.8272,6.0241,6.2304,6.4558,6.5713,6.5732,6.7252,6.7981,6.7839,6.8549,6.9307,7.0195,7.0655,7.1054,7.1415,7.1384,7.1595,7.205,7.2531,7.3384,7.433,7.4281,7.5197,7.6443,7.5472,7.5254,7.5492,7.6149,7.6393,7.642,7.6774,7.6209,7.5511,7.6195,7.5847,7.4386,7.0129,7.0817,0.0,0.0,0.0,0.0,0.0,0.0,0.0,0.0,7.3241,7.4842,7.7279,7.9261,8.1602,8.5032,8.5909,8.7524,9.1862,9.2265,9.3006,9.5934,9.6476,9.6636,9.6745,9.6468,9.6717,9.7792,9.7588,9.7466,9.7622,9.7512,9.7568,9.7881,9.761,9.7302,9.6991,9.7264,9.6795,9.5428,9.578,9.5272,9.3863,9.3577,9.2666,9.1174,9.0432,8.9105,8.7189,8.5317,8.4009,8.3098,8.2371,8.2107,8.2107,8.2107,8.113,7.9607,7.8243,7.7077,7.6181,0.0,0.0,0.0,0.0,0.0,0.0,0.0,0.0,4.6516,4.8248,4.9437,5.0436,5.128,5.2163,5.2415,5.167,5.3632,5.5653,5.7331,5.979,6.264,6.5881,6.701,6.7581,6.7617,6.8552,6.8678,6.7982,6.875,6.9604,7.0464,7.0403,7.1171,7.2613,7.2417,7.3294,7.4876,7.4022,7.4662,7.6271,7.6075,7.6609,7.7607,7.8917,7.8524,7.7307,7.7384,7.6958,7.6416,7.7224,7.7511,7.7961,8.0319,8.0061,7.8633,7.7317,7.5098,7.2451,6.9494,6.9057,7.0318,7.4011,7.4442,7.5576,0.0,8.2532,8.2646,8.4466,8.679,8.8648,8.9121,9.0476,9.1964,9.3335,9.4653,9.5914,9.7086,9.7851,9.8623,9.945,9.8187,9.7862,9.9469,9.826,9.7714,9.8418,9.7848,9.8125,9.9648,9.8356,9.8232,9.9715,9.8349,9.749,9.7292,9.5847,9.5052,9.4811,9.3285,9.204,9.11,9.1022,8.958,8.7085,8.4632,8.3067,8.2239,8.2149,8.2107,8.2107,8.2107,8.1519,8.062,8.0425,7.9373,7.7893,0.0,0.0,0.0,0.0,0.0,0.0,0.0,0.0,4.6347,4.7621,4.8144,4.9121,5.0982,5.2044,5.2049,5.0642,5.3815,5.6795,5.8983,6.199,6.5032,6.7962,6.8937,6.9402,6.9393,7.0212,7.0506,7.022,7.1076,7.1677,7.202,7.2453,7.3077,7.3807,7.42,7.4536,7.4943,7.6006,7.6635,7.697,7.7913,7.8483,7.8912,7.9607,7.9448,7.8722,7.7836,7.7322,0.0,7.6819,7.7283,7.8344,8.0919,8.0344,7.8684,7.8369,7.724,7.6113,7.6078,7.5697,7.5975,7.8825,8.0349,8.2026,8.5424,8.6706,8.7631,8.9387,9.1359,9.2909,9.3412,9.4535,9.5665,9.6522,9.725,9.7993,9.8851,9.9248,9.9623,9.9994,9.8955,9.8522,9.9256,9.9093,9.8888,9.8732,9.8892,9.9096,9.9294,9.8649,9.8402,9.8639,9.7936,9.7544,9.7544,9.6802,9.5965,9.4916,9.4214,9.3137,9.1842,9.1336,8.9664,8.7127,8.6034,8.4769,8.3438,8.2921,8.2668,8.2629,8.2127,8.1699,8.1318,8.0942,8.0036,7.8945,0.0,0.0,0.0,0.0,0.0,0.0,0.0,0.0,0.0,0.0,4.6875,4.7828,5.0215,5.1108,5.1168,5.0387,5.3826,5.7103,5.9682,6.327,6.6599,6.945,7.0857,7.156,7.1562,7.2616,7.3085,7.2913,7.377,7.4302,7.4542,7.5164,7.5645,7.5938,7.6524,7.6574,7.6392,7.8306,7.9009,7.8931,7.9984,8.0374,8.0334,7.9865,7.924,7.8442,7.7156,7.6549,7.6156,7.5064,7.5565,7.6972,7.9066,7.9046,7.8211,7.8024,7.7786,7.8042,7.9995,8.0416,8.0843,8.3054,8.5511,8.7687,8.8794,9.0181,9.1568,9.2834,9.4457,9.5824,9.6444,9.7262,9.812,9.9016,9.9172,9.9367,9.999,10.0107,9.999,9.9756,9.9172,9.8728,9.8533,9.9241,9.9673,9.9514,9.9881,9.9912,9.9522,9.9289,9.886,9.8236,9.7964,9.773,9.7496,9.7262,9.6472,9.5206,9.4972,9.41,9.2592,9.1502,8.987,8.7803,8.7543,8.6428,8.4747,8.4053,8.367,8.3359,8.2509,8.2315,8.2412,8.1415,8.0691,8.0163,0.0,0.0,0.0,0.0,0.0,0.0,0.0,0.0,0.0,0.0,0.0,4.6637,4.848,4.8683,4.9343,5.0933,5.3561,5.6205,5.8782,6.2995,6.6956,7.0427,7.296,7.4278,7.4297,7.5941,7.6474,7.5687,7.6509,7.7291,7.8151,7.8151,7.8621,7.9442,7.9481,7.9949,8.0729,8.0807,8.1783,8.3228,8.2447,8.2137,8.1943,8.0265,7.8078,7.5818,7.4897,7.4086,7.3189,7.1432,7.2018,7.3588,7.4439,7.6398,7.8237,7.7382,7.6556,7.6435,7.8968,8.0842,8.2942,8.6287,8.9045,9.1372,9.312,9.4152,9.4776,9.4811,9.621,9.7418,9.7457,9.8159,9.9055,9.9912,10.0107,10.0107,10.0107,10.0107,9.9795,9.8938,9.8821,9.8474,0.0,9.8322,9.953,10.1202,10.0617,10.0497,10.1315,10.0497,9.999,9.999,9.9211,9.8353,9.7496,9.6639,9.6133,9.5966,9.5188,9.4276,9.3236,9.1571,9.0289,8.939,8.853,8.7171,8.5578,8.5534,8.5068,8.4286,8.3398,8.3592,8.4097,8.2402,8.1844,8.1797,0.0,0.0,0.0,0.0,0.0,0.0,0.0,0.0,0.0,0.0,0.0,0.0,0.0,0.0,0.0,0.0,5.2971,5.5243,5.7815,6.2536,6.6552,6.9392,7.2535,7.4724,7.5882,7.7057,7.8082,7.8985,7.9804,8.0378,8.0698,8.0698,8.087,8.1208,8.1793,8.196,8.1858,8.2992,8.3499,8.342,8.2564,8.2214,8.1824,7.8388,7.6203,7.4448,0.0,6.9609,6.9687,6.8515,6.9257,7.1015,7.3008,7.3827,7.4137,7.4422,7.6712,7.9592,8.1577,8.3784,8.6506,9.0534,9.2594,9.4069,9.5831,9.6444,9.6639,9.6639,9.6175,9.5629,9.5084,9.5668,9.6483,9.7379,9.8977,10.0302,10.0886,10.1393,10.1003,9.9055,9.9743,0.0,0.0,0.0,0.0,10.0497,10.1315,10.1599,10.1305,10.0409,9.9677,9.8987,9.8131,9.7548,9.7237,9.6925,9.6517,9.5931,9.4493,9.3618,9.3264,9.2104,9.1133,9.0351,8.9965,8.9116,8.8018,8.7394,8.697,8.6582,8.511,8.4723,8.4839,8.3721,8.3026,8.2509,0.0,0.0,0.0,0.0,0.0,0.0,0.0,0.0,0.0,0.0,0.0,0.0,0.0,0.0,0.0,0.0,0.0,5.4091,5.6657,6.088,6.4563,6.7397,7.0303,7.2651,7.4395,7.521,7.6587,7.8647,7.9376,8.0059,8.068,8.0987,8.1131,8.1226,8.1848,8.2095,8.1992,8.2921,8.3018,8.2402,8.0924,7.9951,7.8977,7.4997,7.2539,0.0,6.7149,6.6018,6.6102,6.5222,6.6282,6.8234,6.9907,7.1104,7.2292,7.4394,7.7816,8.1553,8.4812,8.7326,8.9936,9.3681,9.524,9.6214,9.7652,9.773,9.7574,9.7886,9.6097,9.4304,9.3798,9.3603,9.4028,9.5512,9.7418,9.9211,10.0691,10.1287,10.0799,9.8544,9.9429,9.9866,0.0,0.0,0.0,10.079,10.188,10.2202,10.1588,10.1082,10.0306,9.9369,9.8786,9.8209,9.7587,9.7548,9.7137,9.6276,9.4792,9.4109,9.407,9.3178,9.2363,9.1581,9.1502,9.0805,8.9636,8.9042,8.8614,8.8196,8.6455,8.6145,8.6494,8.4753,8.4152,8.4043,0.0,0.0,0.0,0.0,0.0,0.0,0.0,0.0,0.0,0.0,0.0,0.0,0.0,0.0,0.0,0.0,0.0,0.0,5.5245,5.8083,6.1186,6.4476,6.6617,6.8536,7.016,7.0897,7.2481,7.4934,7.5553,7.6701,7.8263,7.9022,7.9376,7.9396,7.9665,8.0279,8.1092,8.0581,8.0401,8.0266,7.7737,7.5752,7.3882,7.0533,6.7686,6.5346,6.4527,6.375,6.2953,6.2077,6.3619,6.5917,6.5992,6.8856,7.3046,7.7185,7.9747,8.2461,8.8201,9.1119,9.3138,9.5596,9.6846,9.7668,9.8494,9.8065,9.7676,9.8385,9.5852,9.3436,9.3319,9.1952,9.1718,9.4329,9.5615,9.7212,9.9784,10.0094,9.9449,0.0,0.0,0.0,0.0,0.0,0.0,10.2192,0.0,10.2288,10.2282,10.2282,10.1888,10.1093,10.1015,10.0083,9.8458,9.8419,9.7933,9.7031,9.6004,9.5506,9.5468,9.4585,9.3766,9.3062,9.3062,9.2102,9.0594,9.0555,9.0091,8.9208,8.7499,8.7809,8.886,8.5572,8.5333,8.6313,0.0,0.0,0.0,0.0,0.0,0.0,0.0,0.0,0.0,0.0,0.0,0.0,0.0,0.0,0.0,0.0,0.0,0.0,5.2598,5.6308,5.9128,6.0679,6.4846,6.7612,6.8692,7.0144,7.1505,7.2807,7.3605,7.4199,7.4615,7.4846,7.5025,7.5229,7.5314,7.5583,7.6052,7.598,7.5946,7.5771,7.3907,7.2869,7.2167,6.9401,6.7528,6.6359,6.6125,6.5891,6.5587,6.4725,6.7397,7.1282,7.2482,7.5184,7.8204,7.9664,8.3144,8.6933,8.8778,9.1712,9.4589,9.5881,9.6426,9.6792,9.7226,9.7193,9.6627,9.5162,9.2567,8.9984,8.8083,8.7884,8.9007,9.2229,9.5612,9.8523,10.0506,10.2384,0.0,9.9447,0.0,10.2397,10.1007,10.2107,0.0,0.0,10.2915,10.2485,10.2998,10.2494,10.2014,10.1708,10.0384,9.9524,9.906,9.8486,9.8077,9.7809,9.6225,9.5506,9.5468,9.4585,9.4082,9.3882,9.3882,9.365,9.3186,9.2567,9.2218,9.187,9.013,8.9704,8.9936,8.8434,8.777,8.7383,0.0,0.0,0.0,0.0,0.0,0.0,0.0,0.0,0.0,0.0,0.0,0.0,0.0,0.0,0.0,0.0,0.0,0.0,0.0,5.4707,5.6652,5.7875,6.0482,6.2484,6.3687,6.4883,6.6136,6.7407,6.8495,6.925,6.9633,7.0064,7.0346,7.052,7.0695,7.1126,7.1673,7.1477,7.1388,0.0,0.0,6.89,6.8663,6.648,6.5813,6.6043,6.6043,6.748,6.9561,7.0765,7.2853,7.5343,7.76,8.0022,8.2366,8.4174,8.7304,9.0373,9.1392,9.4049,9.6591,9.6715,9.6885,9.6929,9.632,9.5744,9.4734,9.274,8.9916,8.7297,8.5476,8.5505,8.7054,9.0817,9.4391,9.7848,10.1117,10.3082,10.3322,0.0,10.3001,0.0,10.3218,10.3909,10.4713,0.0,10.4494,10.4009,10.431,10.3884,10.3491,10.3011,10.1696,10.0613,9.9878,9.9027,9.8632,9.8593,9.7286,9.6628,9.659,9.5739,9.5127,9.4779,0.0,9.4346,9.365,9.3186,9.2753,9.2296,9.0942,9.0633,9.0826,8.9634,8.9124,8.8892,0.0,0.0,0.0,0.0,0.0,0.0,0.0,0.0,0.0,0.0,0.0,0.0,0.0,0.0,0.0,0.0,0.0,0.0,0.0,0.0,5.4311,5.5768,5.5663,5.6256,5.7736,5.8398,5.9427,6.0959,6.2184,6.3191,6.3946,6.484,6.5266,6.5344,6.5748,6.6456,6.7305,6.6791,6.6717,6.6788,6.5393,6.4849,6.4725,0.0,6.4054,6.5444,6.6027,6.9208,7.3771,7.7949,7.9023,7.9089,8.2116,8.4362,8.644,8.9396,9.1472,9.3122,9.4583,9.6714,9.8315,9.7564,9.7551,9.7341,9.5683,9.4234,9.2643,9.0672,8.7787,8.5354,8.4383,8.4373,8.5955,9.0297,9.3176,9.6631,10.169,10.3095,10.3407,10.2716,10.3909,10.479,10.4906,10.4906,10.5603,10.7189,10.6686,10.6291,10.6105,10.5904,10.5401,10.4403,10.3591,10.2508,10.1007,9.9955,9.9483,9.9444,9.8524,9.8098,9.806,9.7209,9.6396,9.5661,9.5545,9.4694,9.3294,9.3101,9.2567,9.1793,9.1058,9.1135,9.1561,9.0323,9.0168,9.0478,0.0,0.0,0.0,0.0,0.0,0.0,0.0,0.0,0.0,0.0,4.7157,4.764,0.0,0.0,0.0,0.0,0.0,0.0,0.0,0.0,0.0,5.3875,5.5284,5.6222,5.6496,5.7279,5.7825,5.8098,5.8355,5.8653,5.8948,5.9137,5.9393,5.9713,5.9788,6.0413,6.1379,6.1341,6.1705,6.2381,6.2874,6.3051,6.3245,6.5102,0.0,0.0,7.0308,7.2979,7.5756,8.153,8.4011,8.5096,8.7391,9.0077,9.2421,9.2699,9.4035,9.5432,9.5336,9.6387,9.7515,9.7363,9.7173,9.6601,9.5161,9.3775,9.1796,8.821,8.6347,8.49,8.3358,8.4203,8.6791,9.1785,9.4765,9.7978,10.2399,10.4304,10.5217,0.0,10.589,10.6802,10.7614,10.7614,0.0,0.0,10.9587,10.9316,10.7885,10.7189,10.5989,10.4519,10.3591,10.3088,10.2779,10.1193,10.0388,10.0388,9.8833,9.8098,9.806,9.7209,9.6706,9.6512,9.5816,0.0,9.4965,9.3572,9.2908,9.276,9.2605,9.2218,9.1832,9.2922,9.2528,9.1445,0.0,0.0,0.0,0.0,0.0,0.0,0.0,4.5658,4.681,4.9299,4.9299,4.952,5.0798,5.1291,5.1736,0.0,0.0,0.0,0.0,0.0,0.0,5.4031,5.4988,5.5527,5.5527,5.636,5.6611,5.6243,0.0,5.6768,5.6556,5.6663,5.6812,5.7025,5.7564,5.8302,5.927,5.974,6.0416,6.1229,6.2125,6.3034,6.4041,6.5708,0.0,0.0,7.1898,7.3867,7.5761,8.0681,8.4104,8.6976,9.0465,9.2896,9.432,9.3674,9.5041,9.6475,9.5409,9.6794,9.8494,9.8091,9.7801,9.6695,9.337,9.1707,8.9557,8.4984,8.3643,8.3083,8.2277,8.3515,8.6223,9.0903,9.3418,9.6783,10.2392,10.4287,10.5478,10.6918,10.798,10.8679,10.8912,10.9101,10.9499,11.0111,11.0593,11.0283,10.9007,10.7691,10.6608,10.5796,10.4094,10.3204,10.3204,10.1889,10.1317,10.1317,9.9994,9.9143,9.871,9.7866,9.7247,9.6744,9.5893,9.5236,9.4779,9.3959,9.3108,9.2373,9.2837,9.2489,9.187,9.3108,9.2799,9.1754,0.0,0.0,0.0,0.0,0.0,0.0,0.0,4.6884,4.8184,5.1491,5.2048,5.2159,5.2159,5.2568,5.2865,0.0,0.0,0.0,0.0,0.0,0.0,0.0,0.0,0.0,5.4956,0.0,0.0,5.553,5.6134,0.0,0.0,0.0,0.0,0.0,5.7239,5.8062,5.8918,5.9614,6.046,0.0,0.0,6.3804,6.5317,0.0,0.0,0.0,0.0,7.3675,7.5062,7.9169,8.2726,8.6197,9.062,9.329,9.4692,9.4048,9.5475,9.7054,9.593,9.7674,9.9645,9.9038,9.8571,9.7058,9.2321,9.0119,8.777,8.3051,8.1768,8.1575,8.1729,8.2896,8.5262,8.9665,9.1561,9.4888,10.1889,10.348,10.5091,10.7998,10.9205,0.0,10.9697,10.9915,0.0,11.0907,11.0812,11.0515,10.9819,10.8388,10.7506,10.7313,10.479,10.3514,10.3514,10.2392,10.1889,10.1889,10.1007,10.0187,9.9522,9.8562,9.7711,9.7015,9.5739,0.0,9.416,9.3812,9.2876,9.1793,9.2676,9.2489,9.1832,9.2876,9.2605,9.1832,0.0,0.0,0.0,0.0,0.0,0.0,0.0,4.8221,4.9856,5.3153,5.423,5.4676,5.4676,5.4082,5.3683,0.0,0.0,0.0,0.0,0.0,0.0,0.0,0.0,0.0,0.0,0.0,0.0,5.6573,5.6649,0.0,0.0,0.0,0.0,0.0,0.0,5.8956,5.9807,5.9885,0.0,0.0,0.0,0.0,0.0,0.0,0.0,0.0,0.0,7.3177,7.4105,7.9562,8.162,8.2513,8.5763,9.0472,9.4806,9.473,9.593,9.7433,9.8091,9.9,9.9796,9.972,9.899,9.7364,9.3759,9.1014,8.8164,8.4598,8.2587,8.1729,8.2509,8.2825,8.4566,8.9588,9.0516,9.3302,10.0883,10.2312,10.3992,10.8216,10.8301,0.0,11.0218,10.9683,10.9802,11.1207,11.1016,11.0786,11.0709,10.9819,10.8891,10.8194,10.5719,10.4287,10.4287,10.2701,10.1889,10.1889,10.1007,10.062,10.0388,9.8833,9.806,9.7827,9.539,0.0,0.0,9.2567,9.1832,9.1793,9.2676,9.2489,9.1909,9.3495,9.307,9.1832,0.0,0.0,0.0,0.0,0.0,0.0,4.733,4.7961,4.9522,5.3302,5.449,5.5196,5.5726,5.5493,5.4957,5.4047,0.0,0.0,0.0,0.0,0.0,0.0,0.0,0.0,0.0,0.0,5.6355,5.6885,5.7423,0.0,0.0,0.0,0.0,0.0,0.0,5.9575,5.9923,6.0422,0.0,0.0,0.0,0.0,0.0,0.0,0.0,0.0,0.0,0.0,7.3335,7.6474,7.8532,7.9878,8.0613,8.4181,8.8362,8.9904,9.2595,9.5248,9.6082,9.8015,9.9796,9.9796,9.9028,9.7288,9.3328,9.0697,8.8048,8.414,8.2355,8.1613,8.1968,8.2006,8.3167,8.6764,8.7345,8.9905,9.7363,9.8497,10.0978,10.7523,10.7902,10.8318,11.0194,11.0207,11.0099,11.0198,11.0081,11.0012,11.0012,10.9703,10.9393,10.9007,10.6995,10.5719,10.5208,10.3514,10.2701,10.2701,10.1812,10.1084,10.062,9.9916,9.9065,9.8021,9.6435,0.0,0.0,9.3502,9.2605,9.1793,9.2676,9.2489,9.1832,9.3031,9.2721,9.1832,0.0,0.0,0.0,0.0,0.0,4.4841,4.733,4.7887,4.9447,5.3311,5.4304,5.5047,5.6172,5.5945,5.5436,5.4698,5.3619,0.0,0.0,0.0,0.0,0.0,0.0,0.0,0.0,0.0,5.7006,5.7486,5.8335,5.8969,0.0,0.0,5.9343,5.9382,0.0,0.0,0.0,0.0,0.0,0.0,0.0,0.0,0.0,0.0,0.0,0.0,0.0,0.0,0.0,0.0,0.0,7.7532,7.6976,7.9024,8.232,8.5673,8.9752,9.3504,9.4831,9.7636,10.0186,10.0103,9.9159,9.7218,9.3082,9.0385,8.7693,8.3947,8.2471,8.1813,8.1536,8.1923,8.2928,8.4985,8.5607,8.8112,9.4592,9.5713,9.8274,10.4883,10.5504,10.6405,10.88,10.9887,11.0408,11.0119,10.9721,10.9703,11.0206,10.9819,10.9393,10.92,10.7498,10.6299,10.571,10.4017,10.3204,10.3204,10.2315,10.1417,10.0581,10.0605,9.9793,9.837,9.7278,0.0,0.0,9.4044,9.2992,9.1754,9.2373,9.2257,9.1754,9.2412,9.2412,9.2141,0.0,0.0,0.0,0.0,0.0,0.0,4.733,4.837,5.0079,5.3376,5.3831,5.4453,5.6134,5.5108,5.4727,5.578,5.4375,0.0,0.0,0.0,0.0,0.0,0.0,0.0,0.0,0.0,5.753,5.8569,5.9455,6.0306,6.1079,6.1079,6.1079,6.1079,0.0,0.0,0.0,0.0,0.0,0.0,0.0,0.0,6.9484,0.0,0.0,0.0,0.0,0.0,0.0,0.0,0.0,0.0,0.0,7.6187,7.8085,8.3392,8.8426,9.286,9.5387,9.8545,10.1016,10.0694,9.9454,9.7319,9.3557,9.0196,8.7183,8.4637,8.3405,8.2509,8.1652,8.2896,8.4327,8.5178,8.6339,8.8802,9.3462,9.4741,9.6477,9.9855,10.0598,10.2086,10.561,10.8392,11.0406,11.1186,11.0187,0.0,11.2015,11.0399,10.9084,10.831,10.6608,10.571,10.571,10.4017,10.3204,10.3204,10.2315,10.1386,10.0494,10.062,10.011,9.9103,0.0,0.0,0.0,9.3688,9.2489,9.1716,9.1716,9.1716,9.1716,9.1716,9.2257,9.2869,0.0,0.0,0.0,0.0,0.0,0.0,0.0,4.629,4.7404,5.0116,5.1146,5.2243,5.3942,5.4428,5.4799,5.5184,5.432,0.0,0.0,0.0,0.0,0.0,0.0,0.0,0.0,0.0,5.8253,5.8608,5.9964,6.0795,6.1022,6.0757,6.0621,6.0615,6.0393,6.0237,0.0,0.0,0.0,0.0,0.0,6.8412,6.9283,0.0,0.0,0.0,0.0,0.0,0.0,0.0,0.0,0.0,0.0,0.0,0.0,7.9284,8.3349,8.7298,8.912,9.1631,9.369,9.3591,9.2934,9.1801,9.0025,8.7665,8.5293,8.333,8.2067,8.1385,8.1692,8.1739,8.2785,8.6011,8.6102,8.7595,9.288,9.4282,9.6738,10.201,10.5588,10.8009,10.8901,10.9616,11.03,11.0891,10.948,10.8891,10.9509,10.8388,10.8194,10.9084,10.8117,10.7189,10.6608,10.5487,10.4589,10.4017,10.3204,10.2004,10.0494,10.12,10.069,0.0,0.0,0.0,9.6241,9.4539,9.365,9.334,9.2799,9.2598,9.2598,9.2598,9.276,9.2953,0.0,0.0,0.0,0.0,0.0,0.0,0.0,4.5166,4.615,4.8369,4.9315,5.0636,5.2926,5.3734,5.4338,5.5032,5.5133,0.0,0.0,0.0,0.0,0.0,0.0,0.0,5.6008,5.7714,5.8754,5.904,6.0545,6.1434,6.1708,6.1332,6.0985,6.0641,6.0448,6.0311,0.0,0.0,0.0,0.0,6.6913,6.7911,6.8622,0.0,0.0,0.0,0.0,0.0,0.0,0.0,0.0,0.0,0.0,0.0,0.0,0.0,7.9541,8.2899,8.5818,8.8624,9.0738,9.061,9.0034,8.9225,8.8255,8.607,8.401,8.3293,8.2529,8.2122,8.2542,8.2636,8.3465,8.595,8.6305,8.7593,9.1388,9.3565,9.6754,10.2104,10.6501,10.9085,10.9292,10.9588,11.0217,11.1186,10.9084,10.8194,10.92,10.7807,10.7498,10.8504,10.8078,10.7498,10.7003,10.6105,10.5285,10.4403,10.3591,10.2314,10.0494,10.151,10.1115,0.0,0.0,9.8555,0.0,9.539,9.4508,9.416,9.365,9.3456,9.3456,9.3456,9.365,9.3921,0.0,0.0,0.0,0.0,0.0,0.0,0.0,4.4931,4.6083,4.7905,4.8273,4.959,5.2816,5.3105,5.3662,5.522,0.0,0.0,0.0,0.0,0.0,0.0,0.0,0.0,5.6085,5.7753,5.8992,5.9775,6.1115,6.2138,6.2773,6.2483,6.1885,6.1088,6.1072,6.0982,0.0,0.0,0.0,0.0,6.6341,6.7187,0.0,0.0,0.0,0.0,0.0,0.0,0.0,0.0,0.0,0.0,0.0,0.0,0.0,0.0,0.0,0.0,0.0,8.8296,9.0564,9.0303,8.9519,8.8545,8.7493,8.5028,0.0,8.4059,8.4231,8.4176,8.3926,8.5045,8.5841,8.5342,8.6917,8.8535,8.9579,9.3191,9.7092,10.0782,10.4285,10.67,10.7418,10.8806,11.0322,11.1899,10.9007,10.8194,11.0593,10.8388,10.7003,10.6887,10.6887,10.6887,10.6887,10.6105,10.5208,10.4318,10.3583,10.2306,10.0408,10.1386,10.1386,0.0,0.0,9.8864,9.806,9.6241,9.505,9.4392,9.4315,9.4276,9.4276,9.4276,9.4817,9.539,0.0,0.0,0.0,0.0,0.0,0.0,0.0,0.0,0.0,0.0,4.7767,4.9045,5.1796,5.34,5.4453,0.0,0.0,0.0,0.0,0.0,0.0,0.0,0.0,0.0,5.6975,5.7983,5.8803,5.9423,6.0898,6.16,6.1529,6.1751,6.1547,6.1017,6.0769,6.1149,0.0,0.0,0.0,0.0,6.8065,6.8585,0.0,0.0,0.0,0.0,6.9344,7.0309,0.0,0.0,0.0,0.0,0.0,0.0,0.0,0.0,7.7373,7.8441,8.0268,0.0,8.2384,8.265,8.2572,8.2448,0.0,8.2334,8.1942,8.2468,8.3117,8.3856,8.4633,8.4996,8.5535,8.661,8.7552,8.8973,9.1469,9.762,10.2512,10.3884,10.7611,10.9402,10.752,10.9899,11.1396,11.1087,10.9703,10.92,10.9819,10.8001,10.6686,10.5981,10.5989,10.5989,10.5989,10.5788,10.4913,10.3309,10.3907,10.2513,9.9476,10.1091,10.1386,0.0,9.9646,9.9174,9.8826,9.6474,9.5777,9.6125,9.5429,9.5204,9.5204,9.5204,9.5313,9.539,0.0,0.0,0.0,0.0,0.0,0.0,0.0,0.0,0.0,0.0,0.0,4.887,5.1005,5.2986,0.0,0.0,0.0,0.0,0.0,0.0,0.0,0.0,0.0,5.682,5.7284,5.8423,5.9276,5.9791,6.0764,6.1511,6.2129,6.2194,6.2212,6.2091,6.1998,6.2362,0.0,0.0,0.0,6.6802,6.811,0.0,0.0,0.0,0.0,0.0,7.0016,7.1089,0.0,7.2703,7.3625,7.4702,0.0,0.0,0.0,0.0,7.8172,7.8748,7.9201,8.0015,8.0894,8.1529,8.14,8.1426,8.2633,8.1728,8.1063,8.266,8.3202,8.379,8.502,8.5618,8.6229,8.7152,8.8501,9.0961,9.5154,9.8835,10.2318,10.5488,10.7804,10.9098,10.8885,11.0494,11.1521,11.1396,11.0206,10.9703,11.009,10.8504,10.6995,10.571,10.5285,10.5285,10.571,10.5285,10.4402,10.3013,10.359,10.2405,9.9771,10.1215,10.1595,0.0,9.9815,9.9259,9.9135,9.6939,9.6366,9.6744,9.628,9.6087,9.6087,9.6087,9.5855,9.5429,0.0,0.0,0.0,0.0,0.0,0.0,0.0,0.0,0.0,0.0,0.0,0.0,0.0,0.0,0.0,0.0,0.0,0.0,0.0,0.0,0.0,0.0,5.7361,5.7348,5.7441,5.8734,5.9702,6.0302,6.0925,6.1922,6.3238,6.3577,6.3804,6.3934,6.3983,6.3993,0.0,0.0,0.0,6.663,6.7893,0.0,0.0,0.0,0.0,0.0,0.0,0.0,0.0,7.3656,7.4308,7.5208,7.5787,0.0,0.0,0.0,0.0,0.0,8.0119,8.1387,8.2673,8.3036,8.2624,8.2472,8.3914,8.2044,8.0735,8.3443,8.3931,8.4345,8.5779,8.698,8.7765,8.7847,8.9976,9.3564,9.9194,9.9315,10.0793,10.6102,10.7216,10.8304,11.0105,11.0618,11.1087,11.1783,11.0399,10.9819,11.0593,10.9084,10.7382,10.5594,10.4782,10.4713,10.5285,10.4589,10.3783,10.3013,10.3087,10.2314,10.0494,10.151,10.1889,10.1812,0.0,0.0,9.9174,9.7565,9.6877,9.6783,9.6783,9.6783,9.6783,9.6783,9.6241,9.5468,0.0,0.0,0.0,0.0,0.0,0.0,0.0,0.0,0.0,0.0,0.0,0.0,0.0,0.0,0.0,0.0,0.0,0.0,0.0,0.0,0.0,5.8453,5.7671,5.7573,5.813,5.8319,5.8917,5.9992,6.2058,6.3056,6.3114,6.6134,6.7101,6.626,6.5728,6.5242,6.4922,0.0,0.0,6.8116,6.9551,0.0,0.0,0.0,0.0,0.0,0.0,0.0,0.0,7.4418,7.5549,7.6724,7.6097,0.0,0.0,0.0,0.0,0.0,8.2034,8.3427,8.4087,8.2302,8.1795,8.1757,8.2024,8.1699,8.1715,8.3199,8.4925,8.6767,8.8603,8.9809,9.0504,9.0504,9.2449,9.5787,10.0979,10.3203,10.5001,10.6485,10.941,11.0485,10.8693,10.9884,11.0902,11.1018,11.009,10.9587,10.9703,10.8813,10.7189,10.4713,10.4519,10.4086,10.3591,10.3514,10.328,10.3013,10.3087,10.2314,10.0494,10.151,10.1889,10.1812,0.0,9.9986,9.9212,9.8276,9.7464,9.6783,9.6783,9.6783,9.6783,9.6783,9.6241,9.5313,0.0,0.0,0.0,0.0,0.0,0.0,0.0,0.0,0.0,0.0,0.0,0.0,0.0,0.0,0.0,0.0,0.0,0.0,0.0,0.0,5.973,5.9304,5.8913,5.88,5.8984,5.9306,6.0032,6.1267,6.316,6.4556,6.5491,6.7455,6.8206,6.7799,6.7049,6.6593,6.6485,6.8334,6.9161,6.9225,0.0,0.0,0.0,0.0,0.0,0.0,0.0,0.0,0.0,0.0,7.6623,7.7197,7.6767,0.0,0.0,0.0,0.0,0.0,8.17,8.2701,8.3476,8.3393,8.4049,8.4509,8.358,8.3532,8.3878,8.4672,8.6239,8.7811,8.9152,9.0871,9.2836,9.5107,9.7421,9.9933,10.2788,10.3887,10.4995,10.6617,10.8607,10.981,10.9496,11.0309,11.1018,11.1521,11.0283,10.9703,11.0206,10.9007,10.7305,10.5208,10.4589,10.4017,10.3204,10.2701,10.2391,10.2387,10.2507,10.1811,10.0494,10.151,10.158,10.1115,0.0,9.9375,9.8593,9.7705,9.7132,9.686,9.7325,9.7209,9.6744,9.628,9.5545,9.4624,0.0,0.0,0.0,0.0,0.0,0.0,0.0,0.0,0.0,0.0,0.0,0.0,0.0,0.0,0.0,0.0,0.0,0.0,0.0,5.9304,5.9885,5.9885,5.9848,5.9827,5.9804,6.045,6.1516,6.2981,6.4714,6.6679,6.8794,6.8943,6.901,6.8955,6.8165,6.7673,6.7596,6.9286,6.9938,6.9934,0.0,0.0,0.0,0.0,0.0,0.0,0.0,0.0,0.0,0.0,0.0,0.0,0.0,0.0,0.0,7.9592,8.0439,8.1208,8.1593,8.2131,8.2901,8.4247,8.5401,8.6132,8.5863,8.5657,8.5809,8.6643,8.7734,8.8846,8.9702,9.2274,9.5364,9.8783,10.1504,10.36,10.4706,10.4589,10.5196,10.689,10.8092,10.9213,11.0295,11.0511,11.0786,11.1396,11.009,10.9393,10.9896,10.8697,10.7111,10.5216,10.4519,10.3707,10.2895,10.2199,10.2012,10.2102,10.2012,10.151,10.0912,10.1595,10.1502,10.0883,9.9931,9.9081,9.8323,9.7411,9.6924,9.686,9.7518,9.7402,9.6706,9.5816,9.5081,9.4353,0.0,0.0,0.0,0.0,0.0,0.0,0.0,0.0,0.0,0.0,0.0,0.0,0.0,0.0,0.0,0.0,0.0,0.0,0.0,5.8952,5.9885,5.9885,5.9701,5.9875,6.0431,6.121,6.2633,6.4708,6.7115,6.9834,7.2671,7.1392,7.0494,6.9855,6.8988,6.8149,6.7531,6.9212,6.9885,6.9855,7.0645,0.0,0.0,0.0,0.0,0.0,0.0,0.0,0.0,0.0,0.0,0.0,0.0,0.0,7.97,7.9777,8.0439,8.1439,8.2986,8.3447,8.3524,8.3678,8.3178,8.367,8.7564,8.7192,8.6611,8.8496,8.96,9.058,9.1695,9.5325,9.8542,9.9657,10.249,10.5087,10.6786,10.7519,10.7894,10.8216,10.9617,11.0313,10.9694,10.9578,10.9587,10.9703,10.8891,10.8086,10.7313,10.7197,10.5989,10.3514,10.3282,10.2895,10.2005,10.1889,10.2315,10.3119,10.2315,10.1889,10.1804,10.1889,10.1897,10.1812,10.0883,9.9986,9.9135,9.8323,9.751,9.6822,9.686,9.686,9.6706,9.5816,9.5468,9.5158,0.0,0.0,0.0,0.0,0.0,0.0,0.0,0.0,0.0,0.0,0.0,0.0,0.0,0.0,0.0,0.0,0.0,0.0,0.0,5.8724,5.9575,6.0615,6.0316,6.0468,6.1096,6.1758,6.3772,6.721,7.0112,7.211,7.3169,7.1242,6.9883,6.9098,6.8799,6.8434,6.828,6.9916,7.0599,7.0574,7.0889,7.1466,0.0,0.0,0.0,0.0,0.0,0.0,0.0,0.0,7.8253,7.8484,7.8484,7.8715,7.9092,7.9631,8.0046,8.0554,8.1747,8.2793,8.3601,8.3601,8.4132,8.5093,8.6709,8.8632,9.0172,9.0579,9.2876,9.4853,9.4937,9.7864,10.0408,10.0907,10.4215,10.6887,10.7604,10.8385,10.8895,10.8998,11.009,11.0902,11.1087,11.0593,11.0283,11.0283,10.9084,10.7885,10.6995,10.6492,10.5293,10.3282,10.3204,10.2817,10.1889,10.1889,10.2082,10.2392,10.209,10.1889,10.1889,10.1889,10.1587,10.0999,10.0187,9.9336,9.8477,9.7634,9.7092,9.6783,9.6783,9.7131,9.7518,9.6628,9.5971,9.539,0.0,0.0,0.0,0.0,0.0,0.0,0.0,0.0,0.0,0.0,0.0,0.0,0.0,0.0,0.0,0.0,0.0,0.0,5.806,5.8308,5.9001,6.0429,6.0328,6.0633,6.159,6.212,6.4442,6.8602,7.2032,7.329,7.2438,7.0703,6.9574,6.899,6.869,6.887,6.9449,7.0548,7.1011,7.0972,7.0972,7.1632,0.0,0.0,0.0,0.0,0.0,0.0,0.0,0.0,7.8138,7.8215,7.8754,7.8561,7.833,7.9477,7.9815,7.9931,8.0516,8.1747,8.2838,8.2954,8.4549,8.6142,8.6363,8.9621,9.2774,9.3228,9.5154,9.6461,9.5664,9.8308,10.0806,10.1515,10.4802,10.748,10.7894,10.8806,10.9204,10.8805,10.9896,11.07,11.0515,11.0399,11.009,10.9316,10.8117,10.6995,10.592,10.5216,10.4287,10.2817,10.2817,10.2508,10.1889,10.1889,10.1812,10.1502,10.1502,10.158,10.1889,10.158,10.1201,10.0504,9.9413,9.8601,9.8021,9.717,9.6783,9.6783,9.6783,9.717,9.7634,9.7015,9.6435,9.5855,0.0,0.0,0.0,0.0,0.0,0.0,0.0,0.0,0.0,0.0,0.0,0.0,0.0,0.0,0.0,0.0,0.0,0.0,5.7144,5.7614,5.8278,5.9166,5.946,6.0263,6.1761,6.2398,6.4662,6.8601,7.2614,7.3245,7.0657,7.0125,6.9877,6.982,6.8949,6.9457,7.0998,7.0925,7.0898,7.0898,7.0898,7.1937,7.3392,0.0,0.0,0.0,0.0,0.0,0.0,0.0,7.733,7.7599,7.9285,7.8669,7.7676,7.9361,7.9815,7.9815,7.9815,8.0477,8.1197,8.1536,8.3889,8.6319,8.6989,9.0129,9.3701,9.654,9.6012,9.4622,9.3217,9.6385,9.9676,10.1105,10.4186,10.6796,10.7787,10.8806,10.8788,10.718,10.92,10.9819,10.7313,10.8504,10.8388,10.5904,10.571,10.4984,10.3282,10.3204,10.2817,10.1889,10.1889,10.1889,10.1889,10.1889,10.1386,10.062,10.062,10.0999,10.1812,10.1007,10.062,10.0504,9.8833,9.8098,9.8021,9.717,9.6783,9.6783,9.6783,9.6783,9.6783,9.6783,9.6783,9.6667,0.0,0.0,0.0,0.0,0.0,0.0,0.0,0.0,0.0,0.0,0.0,0.0,0.0,0.0,0.0,0.0,0.0,0.0,5.7647,5.7303,5.7602,5.8786,5.867,5.9,6.002,6.2756,6.5604,6.8526,7.1474,7.1595,6.9088,6.8924,6.854,6.8001,6.9515,7.0156,7.0156,7.1335,7.1475,7.0898,7.0898,7.1591,7.2629,0.0,0.0,0.0,0.0,0.0,0.0,0.0,0.0,0.0,7.9438,8.0285,8.09,8.14,8.1554,8.1554,8.1554,8.217,8.2885,8.2962,8.5635,8.8662,9.0512,9.1952,9.3835,9.7043,9.8348,9.8509,9.7283,9.9035,10.0785,10.1414,10.3414,10.5395,10.6914,10.7513,10.7821,10.7885,10.8581,10.8697,10.8001,10.8388,10.7807,10.5788,10.571,10.4984,10.3282,10.3204,10.2817,10.1889,10.1309,10.1007,10.1007,10.038,9.9955,9.9684,9.9684,9.9839,10.011,9.98,9.9684,9.9645,9.8562,9.8098,9.8021,9.717,9.6783,9.6783,9.6783,9.6783,9.6783,9.6783,9.6783,9.6744,0.0,0.0,0.0,0.0,0.0,0.0,0.0,0.0,0.0,0.0,5.5993,5.6116,0.0,0.0,0.0,0.0,0.0,0.0,0.0,5.6629,5.6715,5.7853,5.7997,5.8814,6.0426,6.3786,6.6066,6.7241,6.9902,7.0244,6.8391,6.8737,6.8975,6.9212,7.1091,7.1668,7.1276,7.2283,7.2206,7.1398,7.1052,7.1629,7.2745,0.0,0.0,0.0,0.0,0.0,0.0,0.0,0.0,0.0,7.89,7.9977,8.0862,8.1208,8.1554,8.1792,8.1568,8.2369,8.3441,8.4029,8.6948,9.0096,9.198,9.3497,9.5046,9.6772,9.8022,9.8617,9.8072,9.9337,10.0683,10.1497,10.3088,10.4707,10.6108,10.6705,10.6879,10.6802,10.7691,10.7885,10.6879,10.7382,10.6918,10.4906,10.4713,10.4094,10.2779,10.2701,10.2315,10.1394,10.0891,10.038,10.011,9.956,9.9135,9.8826,9.8826,9.864,9.833,9.8671,9.8826,9.8794,9.7943,9.7595,9.7557,9.7015,9.6783,9.6783,9.6783,9.6783,9.6783,9.6783,9.6783,9.6783,0.0,0.0,0.0,0.0,0.0,0.0,0.0,0.0,0.0,0.0,5.5932,5.6242,0.0,0.0,0.0,0.0,0.0,0.0,0.0,5.6024,5.6012,5.683,5.7758,5.9543,6.2324,6.4992,6.6017,6.5291,6.8178,6.9129,6.8314,6.9321,7.0615,7.2056,7.3087,7.3411,7.3159,7.3159,7.2681,7.1871,7.1056,7.1801,7.3315,7.2514,0.0,0.0,0.0,0.0,0.0,0.0,0.0,0.0,7.8023,7.8677,7.8984,7.9785,8.0569,8.1088,8.0762,8.1719,8.3237,8.5022,8.808,9.0912,9.19,9.4437,9.6382,9.5649,9.6097,9.6686,9.6822,9.8315,10.01,10.1804,10.3289,10.4485,10.5508,10.6288,10.6183,10.4597,10.6492,10.6995,10.4519,10.568,10.5688,10.3282,10.3088,10.2701,10.1812,10.1897,10.1502,10.0496,10.0504,10.011,9.9212,9.9096,9.8717,9.7982,9.7982,9.7557,9.6822,9.7634,9.7982,9.7943,9.7131,9.6783,9.6783,9.6783,9.6783,9.6783,9.6783,9.6783,9.6783,9.6783,9.6783,9.6783,0.0,0.0,0.0,0.0,0.0,0.0,0.0,0.0,0.0,0.0,0.0,0.0,0.0,0.0,0.0,0.0,0.0,0.0,0.0,5.7127,5.7273,5.8084,5.9568,6.1408,6.3642,6.4298,6.4863,6.5291,6.7564,6.8237,6.7443,6.9629,7.0688,7.0813,7.2988,7.2686,7.053,7.0557,7.0273,6.9758,6.9567,7.0707,7.2476,7.229,7.3245,0.0,0.0,0.0,0.0,0.0,0.0,0.0,7.8407,7.9869,8.1516,8.1708,8.1628,8.1764,8.298,8.3085,8.3753,8.7323,9.0329,9.2257,9.1911,9.2202,9.2674,9.3177,9.6814,9.9501,9.8249,10.0399,10.2406,10.2884,10.3705,10.458,10.5515,10.5316,10.479,10.4395,10.4906,10.479,10.3591,10.3784,10.3514,10.2315,10.2199,10.1812,10.0891,10.1502,10.1193,9.9638,9.9568,9.9181,9.8369,9.7673,9.7247,9.7092,9.7092,9.6976,9.6822,9.6976,9.7092,9.7054,9.686,9.6783,9.6783,9.6783,9.6783,9.6783,9.6783,9.6783,9.6783,9.6783,9.6783,9.6783,0.0,0.0,0.0,0.0,0.0,0.0,0.0,0.0,0.0,0.0,0.0,0.0,0.0,0.0,0.0,0.0,0.0,0.0,0.0,0.0,5.7939,5.9314,6.0787,6.242,6.4297,6.436,6.4694,6.5291,6.6606,6.7225,6.7187,6.9701,7.1006,7.1318,7.3448,7.2851,7.0356,7.0764,7.0363,6.9455,6.9614,7.0585,7.1888,7.1657,7.236,7.3553,7.3969,0.0,0.0,0.0,0.0,0.0,0.0,0.0,8.1208,8.1593,8.1818,8.2235,8.3706,8.3918,8.466,8.8585,9.0953,9.2069,9.1149,9.1237,9.1514,9.1582,9.4865,9.7611,9.7266,9.9886,10.2414,10.3202,10.3887,10.4498,10.5006,10.4403,10.3707,10.3282,10.3591,10.3514,10.2701,10.3011,10.2701,10.1394,10.1317,10.0883,9.9994,10.0419,10.011,9.8748,9.8717,9.833,9.7479,9.7015,9.6783,9.6783,9.6783,9.6783,9.6783,9.6783,9.6783,9.6783,9.6783,9.6783,9.6783,9.6783,9.6783,9.6783,9.6783,9.6783,9.6783,9.6783,9.6783,9.6783,0.0,0.0,0.0,0.0,0.0,0.0,0.0,0.0,0.0,0.0,0.0,0.0,0.0,0.0,0.0,0.0,0.0,0.0,0.0,0.0,0.0,6.0436,6.1713,6.3032,6.4469,6.471,6.4955,6.531,6.5843,6.6749,6.8016,7.0346,7.1844,7.2586,7.4071,7.3121,7.0388,7.0927,7.0334,6.9067,6.9529,7.0175,7.0918,7.0844,7.128,7.2098,7.2976,7.3892,7.474,7.5083,0.0,0.0,0.0,0.0,7.9592,8.0592,8.1169,8.1862,8.3448,8.4567,8.5999,8.9105,9.0841,9.146,9.0255,9.0737,9.12,9.0456,9.2342,9.4451,9.5547,9.873,10.1583,10.2912,10.3791,10.4314,10.4387,10.3591,10.2701,10.2005,10.2508,10.2701,10.2005,10.2392,10.2199,10.0698,10.0504,9.9994,9.9135,9.9212,9.8864,9.7905,9.8021,9.7673,9.6822,9.6783,9.6783,9.6783,9.6783,9.6783,9.6783,9.6783,9.6783,9.6783,9.6783,9.6783,9.6783,9.6783,9.6783,9.6783,9.6783,9.6783,9.6783,9.6783,9.6783,9.6783,0.0,0.0,0.0,0.0,0.0,0.0,0.0,0.0,0.0,0.0,5.5329,0.0,0.0,0.0,0.0,0.0,0.0,0.0,5.8229,0.0,0.0,6.1315,6.2495,6.3429,6.4089,6.481,6.5259,6.5384,6.6141,6.8107,7.1137,7.287,7.3687,7.3789,7.4468,7.2197,6.774,6.7156,6.6554,6.6069,6.6882,6.7627,6.8456,6.9833,7.0669,7.1206,7.2052,7.3399,7.4692,7.4771,7.5824,0.0,0.0,0.0,7.7938,7.9515,7.9224,7.907,8.2158,8.5366,8.809,8.8791,9.0575,9.165,8.9809,8.987,9.0174,8.9585,9.1789,9.4099,9.4975,9.8821,10.1893,10.2084,10.3385,10.4387,10.4395,10.3088,10.2005,10.1889,10.2005,10.2005,10.1889,10.1309,10.0891,10.062,9.9916,9.9135,9.8292,9.8903,9.8593,9.7015,9.7711,9.7673,9.6822,9.6783,9.6783,9.6783,9.6783,9.6783,9.6783,9.6783,9.6783,9.6783,9.6783,9.6783,9.6783,9.6783,9.6783,9.6783,9.6783,9.6783,9.6783,9.6783,9.6783,9.6783,0.0,0.0,0.0,0.0,0.0,0.0,0.0,0.0,0.0,0.0,0.0,5.5927,0.0,0.0,0.0,5.5708,5.6863,5.7973,5.8896,6.0127,6.1018,6.1468,6.2275,6.3017,6.369,6.4141,6.4677,6.54,6.5523,6.8608,7.4485,7.5489,7.5759,7.5521,7.6436,7.4055,6.9286,6.8726,6.7472,6.5869,6.6674,6.7154,6.7652,6.9337,7.0057,0.0,0.0,0.0,0.0,7.4113,7.5019,7.5985,7.6691,0.0,0.0,0.0,7.8612,7.8827,8.2016,8.5446,8.8115,8.8091,8.9803,9.09,8.8757,8.9167,8.9779,8.9161,9.0999,9.3018,9.3944,9.8005,10.129,10.1722,10.279,10.3612,10.3699,10.2701,10.1889,10.1889,10.1889,10.1696,10.1193,10.0814,10.0195,9.9259,9.8833,9.8253,9.7402,9.7711,9.7557,9.6822,9.717,9.7209,9.6783,9.6783,9.6783,9.6783,9.6783,9.6783,9.6783,9.6783,9.6783,9.6783,9.6783,9.6783,9.6783,9.6783,9.6783,9.6783,9.6783,9.6783,9.6783,9.6783,9.6783,9.6783,0.0,0.0,0.0,0.0,0.0,0.0,0.0,0.0,0.0,0.0,0.0,0.0,0.0,0.0,0.0,0.0,5.6632,5.7681,5.9264,6.0186,6.0795,6.104,6.179,6.2365,6.2729,6.342,6.415,6.4934,6.5072,6.8863,7.5979,7.7381,7.8225,7.8664,7.8972,7.6584,7.2274,7.1156,6.9451,6.7488,6.7511,6.7217,6.6902,6.8571,0.0,0.0,0.0,0.0,0.0,0.0,0.0,0.0,7.6007,7.6605,0.0,0.0,0.0,7.8961,8.1733,8.4452,8.6653,8.724,8.9092,9.0272,8.8466,8.9215,9.0062,8.915,9.0657,9.2366,9.3122,9.7219,10.0696,10.1196,10.2195,10.3022,10.3087,10.2415,10.1812,10.1587,10.1587,10.1193,10.038,10.0303,9.9762,9.8485,9.8214,9.7827,9.717,9.6938,9.6783,9.6783,9.7015,9.7131,9.7131,9.7131,9.7015,9.6783,9.6783,9.6783,9.6783,9.6783,9.6783,9.6783,9.6783,9.6783,9.6783,9.6783,9.6783,9.6783,9.6783,9.6783,9.6783,9.6783,9.6783,9.6783,0.0,0.0,0.0,0.0,0.0,0.0,0.0,0.0,0.0,0.0,0.0,0.0,5.6907,5.6209,5.6016,5.6863,5.6983,5.7568,5.8945,5.9856,6.0187,5.9896,6.1372,0.0,6.067,6.295,6.4021,6.3699,6.5274,6.8852,7.4301,7.7976,8.1306,8.4188,8.1881,7.9142,7.6013,7.2868,7.1396,7.1051,0.0,0.0,0.0,0.0,0.0,0.0,0.0,0.0,0.0,0.0,0.0,0.0,0.0,0.0,7.5939,0.0,0.0,0.0,8.0806,8.2074,8.3444,8.6327,8.8708,9.0174,8.9613,9.0511,9.1069,8.973,9.1211,9.2764,9.2813,9.6871,10.0199,10.0303,10.1804,10.2996,10.3005,10.2383,10.1587,10.0814,10.0698,10.0303,9.9444,9.9367,9.9328,9.9251,9.8524,9.8098,9.8021,9.7247,9.6783,9.6783,9.7595,9.8021,9.8021,9.8021,9.7634,9.6783,9.6783,9.6783,9.6783,9.6783,9.6783,9.6783,9.6783,9.6783,9.6783,9.6783,9.6783,9.6783,9.6783,9.6783,9.6783,9.6783,9.6783,9.6783,0.0,0.0,0.0,0.0,0.0,0.0,0.0,0.0,0.0,0.0,0.0,0.0,0.0,5.6209,5.6055,5.6907,5.779,5.8483,5.8949,5.9611,5.9804,5.9432,6.0988,6.159,6.0947,6.2838,6.3992,6.4371,6.4445,6.7531,7.3357,7.5312,7.8101,8.1637,8.3448,8.1987,7.8022,7.5825,7.2957,0.0,0.0,0.0,0.0,0.0,0.0,0.0,0.0,0.0,0.0,0.0,0.0,0.0,0.0,0.0,0.0,7.5577,7.6465,7.7691,7.9064,8.0817,8.2557,8.3789,8.7076,8.9565,8.7927,8.9521,9.0985,8.9541,9.1049,9.2642,9.2721,9.6342,9.9335,9.936,10.0888,10.1915,10.1311,10.1006,10.0607,9.9727,9.965,9.9294,9.8436,9.8822,9.8938,9.8397,9.7548,9.734,9.7936,9.6669,9.6189,9.6783,9.7092,9.7518,9.8098,9.8593,9.8446,9.7634,9.7634,9.7325,9.6783,9.6783,9.6783,9.6783,9.6783,9.6783,9.6783,9.6783,9.6783,9.6783,9.6783,9.6783,9.6783,9.6783,9.6783,9.6783,0.0,0.0,0.0,0.0,0.0,0.0,0.0,0.0,0.0,5.8329,0.0,0.0,0.0,0.0,5.6824,5.7401,5.8297,5.8939,5.9237,5.9476,5.9687,5.984,6.0943,6.1446,6.1187,6.2513,6.3442,6.3999,6.3739,6.6161,7.1032,7.2635,7.5491,7.9457,8.158,8.1919,8.0844,7.9399,0.0,7.355,0.0,0.0,6.9651,0.0,0.0,0.0,0.0,0.0,0.0,0.0,0.0,0.0,0.0,0.0,0.0,0.0,0.0,7.6206,7.7158,7.9038,8.1126,8.2789,8.5395,8.7677,8.7946,8.9166,9.0165,8.9792,9.1119,9.246,9.2847,9.5652,9.8125,9.8766,9.9843,10.0496,10.0289,10.0102,9.9587,9.8777,9.8661,9.8314,9.7457,9.8421,9.8846,9.8267,9.7958,9.8061,9.8651,9.7123,9.649,9.7125,9.7434,9.7859,9.8439,9.9274,9.929,9.8486,9.8238,9.7943,9.7634,9.7054,9.6976,9.7209,9.6938,9.6783,9.6783,9.6783,9.6783,9.6783,9.6783,9.6783,9.6783,9.6783,9.6783,9.6783,0.0,0.0,0.0,0.0,0.0,0.0,0.0,0.0,5.94,5.8461,0.0,0.0,0.0,0.0,0.0,5.8406,5.8549,5.8965,5.9706,5.9463,5.983,6.1123,6.1224,6.1261,6.1261,6.2041,6.2439,6.2439,6.3219,6.4853,6.728,7.0192,7.3932,7.8145,7.6224,7.8685,8.4218,8.3138,8.2626,8.2005,0.0,7.4403,7.5534,0.0,0.0,0.0,7.4077,7.3312,0.0,0.0,0.0,0.0,0.0,0.0,0.0,0.0,0.0,0.0,0.0,0.0,0.0,8.3296,8.372,8.4487,8.9717,8.9447,8.8577,9.0426,9.1402,9.2176,9.3168,9.4839,9.6636,9.8423,9.8834,9.9206,10.0006,9.9518,9.873,9.7873,9.7757,9.741,9.66,9.8066,9.903,9.903,9.9763,10.0187,10.0303,9.873,9.7843,9.7843,9.8653,9.9116,9.9154,10.0019,10.0099,9.921,9.8517,9.8555,9.9205,9.7588,9.7278,9.8013,9.7162,9.6776,9.6776,9.6783,9.6783,9.6783,9.6783,9.6783,9.6783,9.6783,9.6783,9.6783,0.0,0.0,0.0,0.0,0.0,6.0698,6.0681,6.0624,6.0223,0.0,0.0,0.0,5.8665,5.9811,6.0769,6.1095,6.1478,6.1516,6.1178,6.0811,6.0821,6.1187,6.177,6.2068,6.2068,6.2848,6.3256,6.3256,6.3479,6.4259,6.5534,6.7208,6.9337,7.1761,7.3342,7.5104,7.6979,7.7637,0.0,7.6683,7.6342,7.4822,0.0,0.0,0.0,0.0,0.0,7.4041,0.0,0.0,7.5754,7.6217,0.0,0.0,0.0,0.0,0.0,0.0,7.528,0.0,0.0,0.0,0.0,0.0,8.3986,8.4516,8.5436,8.8452,8.919,8.9917,9.2133,9.3966,9.5541,9.6674,9.7962,9.8912,9.9143,9.8469,9.7641,9.6832,9.6717,9.664,9.637,9.7333,9.7949,0.0,9.7602,9.7976,9.9233,9.8918,9.873,9.873,9.8962,9.9386,9.9965,10.0183,10.0192,9.9999,9.9793,9.9183,9.8188,9.7724,9.73,9.6914,9.6682,9.6566,9.6574,9.6738,9.6753,9.6738,9.6738,9.6738,9.6738,9.6738,9.6777,9.6776,0.0,0.0,0.0,0.0,0.0,6.1649,6.2037,6.1698,6.1318,0.0,0.0,0.0,6.0681,6.2306,6.3199,6.2744,6.2699,6.2562,6.2208,6.157,6.1521,6.2179,6.2328,6.255,6.2885,6.3368,6.359,6.359,6.359,6.385,6.4296,6.5359,6.6646,6.8173,6.9519,7.1171,7.2928,7.2662,0.0,0.0,7.6729,0.0,0.0,7.6199,7.5923,0.0,0.0,0.0,7.8101,7.705,7.7105,0.0,0.0,0.0,0.0,0.0,0.0,0.0,0.0,0.0,0.0,0.0,0.0,0.0,8.2515,8.2646,8.3358,8.7162,8.7874,8.8634,9.126,9.2819,9.412,9.5309,9.6127,9.702,9.8096,9.7519,9.6826,9.6365,9.6288,9.6288,9.6288,9.7019,9.7519,9.7519,9.7403,9.7778,9.8796,9.8928,9.8809,9.8463,9.8809,9.9041,9.9118,9.95,9.9903,10.0289,9.96,9.9116,9.8807,9.7727,9.7187,9.7032,9.6647,9.6724,9.7041,9.7178,9.6962,9.6651,9.7038,9.7153,9.7192,9.7578,9.7726,9.772,0.0,0.0,6.1539,6.238,6.2578,6.289,6.3729,6.302,6.2716,0.0,6.314,6.3194,6.4474,6.5673,6.5698,6.4085,6.3327,6.2976,6.3093,6.2172,6.2179,6.3553,6.2996,6.2996,6.3702,6.387,6.3907,6.3888,6.3833,6.3833,6.3888,6.4576,6.5451,6.6514,6.5701,6.7382,7.0654,6.8447,0.0,7.8631,7.677,7.8912,0.0,0.0,8.0108,0.0,8.1034,8.0831,8.0316,7.8439,7.7395,0.0,0.0,0.0,0.0,0.0,7.4686,0.0,0.0,0.0,0.0,0.0,0.0,0.0,8.2794,8.2106,8.1826,8.5797,8.6567,8.7376,9.0014,9.1194,9.2219,9.3619,9.3688,9.4436,9.6875,9.6577,9.6125,9.6134,9.6249,9.6288,9.6288,9.6942,9.7365,9.7365,9.8173,9.8673,9.8673,9.875,9.8442,9.7673,9.8288,9.8327,9.7634,9.8381,9.9197,9.9997,9.8584,9.8619,9.9891,9.7654,9.6999,9.7577,9.6806,9.696,9.777,9.777,9.7354,9.6823,9.7633,9.7903,9.8019,9.879,9.9107,9.8962,0.0,6.1655,6.2414,6.3214,6.3938,6.464,6.5344,6.4731,6.4508,6.5313,6.6131,6.7106,6.8429,6.8462,6.8168,6.756,6.6767,6.578,6.4495,6.423,6.3962,6.359,6.4073,6.4408,6.4556,6.5554,6.5939,6.5596,6.5229,6.5218,6.5608,6.5394,6.5351,6.5501,6.5303,6.5614,6.6256,6.6372,0.0,7.2686,7.5288,0.0,7.8968,8.0134,7.9826,7.894,8.0434,8.0779,8.0582,0.0,8.0359,7.9542,0.0,0.0,0.0,0.0,0.0,0.0,0.0,0.0,0.0,0.0,0.0,0.0,7.7934,7.8331,7.954,8.1772,8.2012,8.2826,8.6123,8.7962,8.8874,8.8653,9.1328,9.387,9.5166,9.5176,9.5127,9.5249,9.5865,9.6288,9.6288,9.6442,9.6519,9.6519,9.7288,9.775,9.775,9.8404,9.8711,9.8557,9.8019,9.8019,9.8519,9.8038,9.8201,9.9048,9.8758,9.8421,9.8036,9.7536,9.7036,9.6574,9.642,9.6805,9.7575,9.7575,9.789,9.8454,9.8608,9.8685,9.8723,9.8877,9.9008,9.8992,6.1659,6.2349,6.3343,6.4585,6.5137,6.5946,6.7576,6.7115,6.7006,6.8212,6.9483,7.0041,6.9446,6.9939,6.9656,6.8059,6.7528,6.6599,0.0,6.4816,6.4445,6.3628,6.4371,6.4816,6.4816,6.6221,6.6493,6.5448,6.5635,6.5449,6.4865,6.4935,6.4543,6.3731,6.4484,6.4641,6.436,6.4754,6.6962,7.059,7.4541,0.0,7.8525,8.0782,8.077,7.9725,8.1087,8.1513,8.1271,8.0747,8.1094,0.0,0.0,7.8311,7.8891,0.0,7.7827,7.7496,0.0,0.0,0.0,7.855,0.0,0.0,0.0,7.7466,7.7714,8.0057,8.0121,8.0726,8.3946,8.553,8.6289,8.6279,8.8854,9.0982,9.1424,9.3735,9.5204,9.4907,9.5646,9.6213,9.6213,9.626,9.6288,9.6288,9.6673,9.7096,9.748,9.7904,9.8134,9.8134,9.775,9.7519,9.7557,9.7134,9.7326,9.8134,9.775,9.7519,9.748,9.7096,9.6673,9.6326,9.6711,9.7365,9.8173,9.8634,9.9317,10.0086,9.9672,9.9518,9.9556,9.9932,10.0114,10.0083,6.2502,6.3152,6.4227,6.572,6.6367,6.7371,6.9445,6.9277,6.9448,7.1038,7.2446,7.2659,7.1062,7.1524,0.0,0.0,0.0,0.0,0.0,0.0,6.4928,6.3665,6.4519,6.5039,6.5039,6.6582,6.6779,6.5522,6.5975,6.5517,6.4262,6.4628,6.4113,6.2868,6.4003,6.4538,6.4551,6.4082,6.6387,7.067,0.0,7.6698,7.8352,8.1148,8.1518,8.0697,8.1928,8.2439,8.2259,8.0505,0.0,8.2195,7.8082,7.9016,0.0,0.0,0.0,0.0,0.0,0.0,0.0,0.0,0.0,7.865,0.0,0.0,0.0,7.8716,7.8901,7.9491,8.214,8.3176,8.3792,8.4251,8.6097,8.7331,8.7025,9.1277,9.4288,9.3983,9.481,9.5435,9.5569,9.555,9.5721,9.6221,9.5971,9.6249,9.7211,9.7288,9.7288,9.7288,9.7288,9.698,9.6326,9.6288,9.6634,9.725,9.6596,9.6634,9.725,9.6596,9.6288,9.6326,9.7134,9.798,9.8865,9.976,10.0596,10.1202,10.0596,10.0289,10.0404,10.1096,10.1279,10.1212,6.3643,6.404,6.491,6.5777,6.7807,6.9438,6.9687,7.0251,7.1101,7.2396,7.3993,7.5607,0.0,0.0,0.0,0.0,0.0,0.0,6.8753,0.0,0.0,6.3739,6.5113,6.5931,6.5856,6.7157,6.7905,6.8085,6.6982,6.6527,6.6678,6.5952,6.541,6.5127,6.4921,6.5952,6.7627,6.5424,6.7491,0.0,7.4481,7.5002,0.0,7.9822,8.0487,7.9218,8.194,8.3241,8.3562,0.0,8.2403,8.2403,0.0,8.0362,0.0,0.0,0.0,0.0,0.0,0.0,0.0,0.0,8.0796,0.0,0.0,0.0,7.659,7.5979,0.0,7.7994,7.957,0.0,0.0,8.0175,8.2721,8.4232,8.2741,8.6267,8.9569,9.1136,9.2162,9.2997,9.3639,9.3141,9.3697,9.5963,9.4818,9.4711,9.6365,9.6442,9.6442,9.6442,9.6442,9.6403,9.6288,9.6288,9.6365,9.6442,9.6326,9.6365,9.6442,9.6326,9.6288,9.6326,9.7134,9.798,9.8865,9.976,10.0596,10.1279,10.1212,10.1212,10.1212,10.1289,10.1279,10.1212,6.5818,6.5516,6.585,6.7128,6.8668,7.0047,7.1021,7.3129,7.4712,7.4971,7.6065,7.7426,0.0,0.0,0.0,0.0,0.0,7.4116,0.0,0.0,0.0,0.0,0.0,0.0,6.6079,6.7044,6.7345,6.6925,6.5889,6.5682,6.6199,6.5287,6.5077,6.5469,6.5238,6.6432,6.8594,6.7548,6.865,0.0,0.0,0.0,0.0,7.9566,8.1652,8.1407,8.3287,8.4015,8.3742,0.0,8.2213,0.0,0.0,0.0,0.0,0.0,0.0,0.0,0.0,0.0,0.0,0.0,0.0,0.0,0.0,0.0,7.5676,0.0,0.0,0.0,0.0,0.0,0.0,0.0,8.1555,8.2665,8.1486,8.3959,8.6545,8.8317,8.943,9.056,9.1884,9.1777,9.2228,9.3793,9.2841,9.2964,9.4711,9.4788,9.5249,9.6288,9.5826,9.5788,9.6288,9.6288,9.6288,9.6288,9.6288,9.6288,9.6288,9.6288,9.6288,9.6365,9.7673,9.8442,9.8904,10.0212,10.1019,10.1298,10.1015,10.099,10.1298,10.1004,10.099,10.1211,6.8898,0.0,6.6744,6.8468,6.9468,7.0667,7.2591,7.519,7.7055,7.7288,0.0,0.0,8.1159,7.9656,0.0,0.0,7.9697,7.7926,0.0,0.0,7.1578,0.0,0.0,0.0,0.0,6.7183,6.6974,6.642,6.536,6.5299,6.6198,6.5506,6.5516,6.6118,6.6364,6.7734,6.9889,0.0,7.097,7.2657,7.5382,7.5573,7.4808,7.9537,8.2046,8.3148,8.4189,8.4508,8.4077,8.1716,8.2436,0.0,8.0013,0.0,0.0,0.0,0.0,0.0,8.2274,0.0,0.0,0.0,0.0,0.0,0.0,0.0,0.0,0.0,0.0,0.0,0.0,0.0,0.0,0.0,0.0,8.078,8.0175,8.1603,8.3473,8.553,8.6736,8.7963,8.939,8.9257,8.9621,9.1059,9.0472,9.092,9.2867,9.324,9.4172,9.5903,9.5335,9.5403,9.6288,9.6288,9.6288,9.6288,9.6288,9.6288,9.6326,9.6519,9.6519,9.6403,9.8057,9.8673,9.8596,10.0289,10.1019,10.0894,10.0606,10.0705,10.1018,10.0516,10.0604,10.099,7.2969,6.9937,0.0,6.936,7.0321,7.1706,7.4238,7.5471,7.6876,0.0,0.0,0.0,0.0,0.0,0.0,0.0,0.0,7.9951,7.9118,0.0,7.4139,0.0,0.0,6.8742,0.0,0.0,6.7407,6.8021,6.6319,6.6292,6.7802,6.7657,6.759,6.7691,6.8836,7.0507,7.2414,7.2815,7.5059,7.8405,7.9302,8.055,8.1599,0.0,8.0478,8.3106,8.3916,0.0,0.0,8.3971,8.3757,0.0,0.0,0.0,0.0,0.0,0.0,0.0,0.0,0.0,0.0,7.9867,0.0,0.0,0.0,0.0,7.5757,0.0,0.0,0.0,0.0,0.0,0.0,0.0,0.0,0.0,0.0,0.0,0.0,0.0,0.0,0.0,0.0,8.4642,8.5076,8.8107,8.7779,8.8511,9.1046,9.205,9.3287,9.4989,9.5027,9.5403,9.6288,9.6288,9.6288,9.6288,9.6288,9.6288,9.6326,9.7096,9.7057,9.6403,9.8057,9.8327,9.7673,9.9413,10.0106,10.0221,10.0388,10.0501,10.0492,9.9846,10.0,10.0486,0.0,0.0,0.0,0.0,0.0,7.1745,7.4315,7.5967,7.816,0.0,0.0,0.0,0.0,8.9893,8.87,0.0,0.0,8.5509,8.1748,7.9672,0.0,0.0,0.0,7.2639,0.0,0.0,0.0,0.0,6.6305,6.6817,6.9348,6.8241,6.8531,7.011,7.0496,7.194,7.4184,0.0,0.0,0.0,0.0,8.0395,8.2896,0.0,8.2134,8.315,8.4363,8.4998,0.0,8.4189,8.4063,8.4123,8.295,8.2524,8.2605,8.3398,8.3923,0.0,0.0,0.0,8.423,8.1485,0.0,0.0,0.0,0.0,0.0,0.0,0.0,0.0,0.0,0.0,0.0,0.0,0.0,0.0,0.0,0.0,7.7903,0.0,0.0,0.0,0.0,8.3104,8.3391,8.5504,8.4478,8.4654,8.6764,8.8768,9.0657,9.2441,9.3557,9.4826,9.6288,9.6288,9.6288,9.6288,9.6288,9.6596,9.7096,9.6826,9.6865,9.7134,9.7673,9.7557,9.7099,9.8785,9.9297,9.8994,9.9225,9.9566,9.9872,9.9687,9.9974,10.0501,7.5216,0.0,0.0,0.0,0.0,7.3129,7.5668,0.0,0.0,0.0,8.5791,0.0,9.4026,0.0,9.2043,0.0,9.024,8.8252,8.5053,8.1665,0.0,8.1119,7.7709,0.0,0.0,0.0,0.0,0.0,6.8241,6.8616,7.1456,6.977,6.9669,7.0903,7.1747,7.2863,7.4243,7.6995,7.8185,0.0,0.0,8.0851,0.0,0.0,8.2979,8.3695,0.0,8.4815,8.4694,8.4599,8.4414,8.4051,8.3366,8.3158,8.3302,8.3954,8.4511,8.4897,8.5059,8.4912,0.0,8.2406,8.0681,0.0,7.6717,0.0,0.0,0.0,0.0,0.0,0.0,0.0,0.0,0.0,0.0,0.0,0.0,7.6604,0.0,0.0,0.0,0.0,0.0,8.1289,8.1223,8.2501,8.16,8.169,8.3218,8.6035,8.8593,9.0663,9.2672,9.4557,9.6288,9.6288,9.6288,9.6288,9.6288,9.6557,9.7057,9.6826,9.6865,9.7096,9.7365,9.7017,9.6363,9.8044,9.8436,9.8001,9.8734,9.9273,9.9555,9.9372,9.9674,10.0188,0.0,0.0,0.0,0.0,7.4604,0.0,0.0,0.0,8.2559,0.0,8.8515,8.9813,9.3675,9.1946,9.1,9.2319,8.987,0.0,8.8499,8.283,0.0,0.0,7.9213,7.7556,8.0141,0.0,0.0,0.0,0.0,7.153,7.3967,7.2163,7.0866,7.022,7.2642,7.3303,7.2826,7.7723,7.9832,8.0,8.1274,8.2005,8.2263,8.1911,8.2964,8.4609,8.4499,8.4022,8.3638,8.5159,8.4682,8.3454,8.3454,8.3454,8.3454,8.3454,8.4022,8.4646,8.4646,8.4115,8.3381,8.2517,0.0,0.0,0.0,0.0,8.1758,0.0,0.0,0.0,0.0,0.0,0.0,0.0,0.0,0.0,0.0,0.0,0.0,0.0,0.0,0.0,0.0,7.9231,7.8704,7.9188,7.9268,7.9701,0.0,8.3995,8.7038,8.9692,9.224,9.4441,9.6211,9.6249,9.6249,9.6288,9.6288,9.6326,9.6403,9.7134,9.7096,9.6403,9.7154,9.668,9.5477,9.7085,9.7437,9.7139,9.8846,9.9569,9.9593,9.9012,9.9158,9.9661,7.8365,7.7253,7.6418,0.0,7.6829,7.7753,0.0,0.0,0.0,0.0,9.1115,9.4216,9.6795,9.7865,9.6489,9.1794,9.1571,0.0,0.0,0.0,0.0,8.7293,8.4996,8.3126,8.1891,7.9912,0.0,7.6298,0.0,7.2746,7.3967,7.2163,7.0866,7.022,7.3266,7.3817,7.2826,7.7723,8.0392,8.1304,8.1404,8.2361,8.354,0.0,8.2964,8.4425,8.3251,8.3067,8.3454,8.3858,8.4132,8.4278,8.4278,8.4278,8.4278,8.4278,8.4866,8.549,8.549,8.5783,8.573,8.4315,8.3398,8.2353,0.0,0.0,0.0,0.0,0.0,0.0,0.0,0.0,0.0,0.0,0.0,0.0,0.0,0.0,0.0,7.7851,0.0,0.0,7.9398,7.8694,7.8179,7.8319,7.7744,7.8103,7.9683,8.24,8.5143,8.7828,9.0382,9.2878,9.5288,9.5335,9.5672,9.6288,9.6288,9.6596,9.7211,9.7403,9.7403,9.7192,9.7002,9.6131,9.4857,9.5488,9.5441,9.5149,9.7215,9.8943,10.0287,10.0113,10.0112,10.0212,7.9599,0.0,0.0,7.7777,0.0,0.0,8.1555,8.3234,0.0,8.9966,9.2929,0.0,9.7659,9.9614,9.9209,9.532,9.2918,0.0,8.9259,0.0,0.0,8.8842,8.7096,8.5302,8.372,8.2276,0.0,7.8977,0.0,7.4474,7.5615,7.2684,7.097,7.0515,7.3444,7.4136,7.3514,7.8529,8.1096,8.1791,8.1969,8.2561,0.0,8.2586,8.3038,8.3985,8.3067,8.281,8.2994,8.3675,8.3765,8.3618,8.3985,8.4078,8.4078,8.4078,8.4903,8.58,8.58,8.6371,8.6757,8.5894,8.5289,8.4713,8.373,8.4105,8.4272,0.0,0.0,0.0,0.0,0.0,0.0,0.0,0.0,0.0,0.0,0.0,0.0,0.0,7.7793,0.0,7.8672,7.6953,7.6112,7.6838,7.5768,7.5544,7.6595,8.0514,8.342,8.4937,8.8897,9.169,9.3168,9.3983,9.4809,9.5646,9.5692,9.6557,9.8057,9.7673,9.7711,9.8038,9.7489,9.6429,9.5171,9.5436,9.5015,9.4425,9.6915,9.898,10.0501,10.0501,10.0283,10.0012,0.0,0.0,0.0,0.0,0.0,0.0,0.0,8.6134,0.0,9.337,0.0,9.5929,9.7594,9.922,10.0017,9.979,0.0,9.1515,9.3999,8.7926,8.5952,8.9754,8.7534,8.5921,8.5376,8.398,0.0,0.0,0.0,7.6238,7.7598,7.3319,7.1088,7.0847,7.334,7.4524,7.4993,7.9603,8.1649,8.1873,8.2675,8.2656,8.218,8.2708,8.3034,8.3271,8.3344,8.303,8.27,8.4022,8.3581,8.2627,8.3197,8.3381,8.3381,8.3271,8.4315,8.549,8.56,8.6224,8.6902,8.7061,8.7132,8.7097,8.6991,8.6899,8.6713,8.6367,8.5792,8.5436,0.0,0.0,0.0,0.0,0.0,0.0,0.0,0.0,0.0,0.0,0.0,0.0,0.0,7.531,7.4172,7.5395,7.4134,7.3441,0.0,0.0,8.1819,8.2394,8.7662,9.0665,9.1059,9.2776,9.409,9.5012,9.5097,9.6374,9.8596,9.8,9.8058,9.8644,9.8078,9.7134,9.5936,9.6057,9.5507,9.4887,9.7342,9.915,10.0395,10.0285,9.9923,9.9428,0.0,0.0,0.0,0.0,0.0,8.5822,9.0016,9.3849,9.6212,9.6176,9.9069,10.0595,9.9365,9.9951,9.9753,9.8116,9.5635,0.0,0.0,0.0,0.0,9.161,9.0138,8.8317,8.624,8.5498,8.459,0.0,0.0,0.0,7.6994,7.3208,7.1067,7.047,7.2909,7.5608,7.8461,7.9807,0.0,8.1873,8.2675,8.2542,8.1904,8.2229,8.2357,8.248,8.3161,8.3765,8.4132,8.3748,8.3858,8.4095,8.3564,8.3381,8.3271,8.259,8.3067,8.3968,8.4646,8.538,8.6303,8.7454,8.7746,8.7845,8.8319,8.7914,8.7229,8.6449,8.6593,8.6447,8.5154,0.0,0.0,0.0,0.0,0.0,0.0,0.0,0.0,0.0,0.0,7.8834,0.0,0.0,0.0,7.5586,7.5242,0.0,0.0,0.0,8.0339,0.0,8.6458,8.915,0.0,0.0,9.4462,9.6029,9.6048,9.6634,9.774,9.8532,9.8577,9.8035,9.7718,9.7032,9.6118,9.5716,9.6089,9.6964,9.7471,9.8541,9.9714,9.9216,9.8952,9.8832,0.0,0.0,0.0,0.0,0.0,0.0,0.0,9.7574,0.0,9.7472,9.8902,9.9972,9.9402,10.0494,10.1122,10.0604,9.7967,9.6329,9.6351,9.3746,9.23,9.2576,9.1134,0.0,8.6067,8.5993,8.5325,8.3936,0.0,0.0,7.8141,7.3698,7.1288,7.0828,7.3237,7.6236,7.9567,0.0,0.0,8.1881,8.2847,8.2723,8.2064,8.2594,8.3067,8.3434,8.3418,8.4205,8.5049,8.3821,8.3638,8.3838,8.303,8.2774,8.27,8.2296,8.3067,8.4115,8.4499,8.5721,8.7041,8.773,8.8144,8.8521,8.9116,8.8606,8.7978,8.7871,8.7395,8.6497,8.4811,8.4111,0.0,0.0,0.0,0.0,0.0,0.0,0.0,0.0,0.0,0.0,0.0,0.0,0.0,0.0,0.0,0.0,0.0,0.0,7.9392,0.0,0.0,0.0,9.1529,0.0,9.5146,9.6876,9.6923,9.7827,9.9471,9.9619,9.9668,9.9626,9.9251,9.8548,9.7647,9.6381,9.6487,9.7493,9.7493,9.8369,9.9539,9.8922,9.8717,9.867,0.0,8.4764,0.0,0.0,8.9292,0.0,9.4278,9.8966,10.14,9.8828,9.88,9.9221,9.9746,10.1102,10.2005,10.21,9.9501,9.7577,9.7015,9.4787,9.3099,9.2245,9.1237,8.929,8.6326,8.6452,8.5887,0.0,0.0,0.0,0.0,7.4472,7.2049,7.1712,7.4544,0.0,0.0,0.0,8.1986,8.197,8.2969,8.292,8.226,8.292,8.3544,8.4058,8.3765,8.4352,8.5123,8.4055,8.3671,8.3528,8.292,8.2623,8.2508,8.2508,8.3296,8.4301,8.4711,8.6106,8.756,8.8123,8.8635,8.9167,8.9751,8.9377,8.895,8.9259,8.8099,8.6724,8.555,8.6008,0.0,0.0,0.0,0.0,0.0,0.0,0.0,0.0,0.0,0.0,0.0,0.0,0.0,0.0,0.0,0.0,7.2053,0.0,0.0,0.0,0.0,8.7838,9.0628,0.0,9.5781,9.7693,9.776,9.8904,10.101,10.0316,10.0314,10.0822,10.0088,9.9436,9.8731,9.7191,9.6966,9.7593,9.7695,9.8432,9.9372,9.8877,9.8717,9.8624,0.0,0.0,0.0,0.0,0.0,0.0,9.6416,9.809,9.9757,10.1408,10.2294,10.2611,10.2084,10.1622,10.051,9.8575,9.8736,9.6768,9.1599,9.3727,9.3508,8.9793,9.0647,9.0379,8.8518,8.755,8.6833,0.0,0.0,0.0,0.0,0.0,0.0,0.0,0.0,0.0,0.0,8.1799,8.2551,8.2247,8.3084,8.292,8.2186,8.226,8.237,8.259,8.3985,8.4132,8.3744,8.4445,8.4579,8.4462,8.4389,8.3954,8.3459,8.3459,8.3187,8.3297,8.509,8.5738,8.6501,8.8934,8.9553,8.9763,9.0383,9.0443,9.0186,8.9436,8.8606,8.8148,8.8721,8.7078,8.554,0.0,0.0,0.0,0.0,0.0,0.0,0.0,0.0,0.0,0.0,7.7105,0.0,0.0,7.1642,0.0,0.0,0.0,0.0,8.0372,8.3189,8.6317,8.9784,9.315,9.6117,9.8663,9.8673,9.9211,10.0202,9.9572,9.9335,9.9301,9.801,9.7492,9.7651,9.7455,9.759,9.7915,9.8407,9.8688,9.8771,9.871,9.8717,9.8624,0.0,0.0,0.0,0.0,0.0,0.0,0.0,9.9548,10.0881,10.0409,10.0412,10.0587,10.0889,10.0579,10.028,9.9892,10.0509,9.9427,9.6131,9.6695,9.5966,9.3309,9.2778,9.2007,9.0862,8.969,8.8782,0.0,0.0,0.0,0.0,0.0,0.0,0.0,0.0,7.9986,8.0798,8.1477,8.1934,8.2223,8.2553,8.2545,8.2295,8.2295,8.2707,8.3229,8.3413,8.356,8.3744,8.414,8.4134,8.3946,8.3565,8.3277,8.3066,8.3066,8.3444,8.4101,8.5373,8.6564,8.7802,8.9338,8.9979,9.0279,9.054,9.0201,8.9857,9.0048,8.9818,8.9561,8.9332,8.8912,8.8558,0.0,0.0,0.0,0.0,0.0,0.0,0.0,0.0,0.0,0.0,0.0,0.0,0.0,0.0,0.0,0.0,0.0,0.0,8.121,0.0,8.7609,9.2709,9.5128,9.7693,10.0289,10.0289,10.0519,10.0779,10.0609,10.0488,10.039,9.8956,9.8502,9.8687,9.7854,9.7849,9.8413,9.8608,9.8922,9.9216,9.8832,9.8717,9.8699,9.8058,0.0,9.5757,0.0,9.8307,9.8375,9.8263,10.0604,10.1495,9.9043,9.9166,9.9656,10.0203,10.0316,10.0206,9.9992,10.1007,10.0489,9.7914,9.8091,9.7484,9.5564,9.4503,0.0,9.2815,9.1642,9.0721,9.0166,8.7012,0.0,0.0,0.0,0.0,0.0,8.0905,8.1459,8.157,8.195,8.221,8.2369,8.2606,8.2743,8.2876,8.3097,8.3619,8.421,8.3878,8.3988,8.4284,8.459,8.4284,8.3709,8.3493,8.3281,8.3121,8.3283,8.4032,8.5054,8.6323,8.7663,8.8938,9.0102,9.0481,9.0583,9.0583,9.0124,8.9857,9.0468,9.0583,9.0392,8.9791,9.0392,9.0774,9.0315,0.0,0.0,0.0,0.0,0.0,0.0,0.0,7.8634,7.7373,7.5577,0.0,0.0,0.0,0.0,0.0,0.0,0.0,0.0,0.0,0.0,9.3611,9.5838,9.8432,10.1279,10.1279,10.1279,10.1279,10.1096,10.0804,10.0415,9.9281,9.8997,9.9226,9.7997,9.7966,9.8695,9.8832,9.9287,9.9727,9.9129,9.9043,9.9222,10.2808,10.1996,10.1807,10.4279,10.3592,10.1774,9.9452,10.0492,10.0586,9.8226,9.9818,10.1211,10.1217,10.1217,10.0089,9.7395,9.9379,9.8762,9.3896,9.6602,9.7309,0.0,0.0,9.5014,9.4201,9.3074,9.2479,9.247,0.0,0.0,8.4643,0.0,8.146,8.0267,8.4671,8.4593,8.1376,8.3754,8.3961,8.2754,8.3566,8.3862,8.3988,8.4764,8.506,8.517,8.5983,8.5761,8.5239,8.6249,8.546,8.4207,8.4849,8.4616,8.4196,8.4713,8.5017,8.5749,8.8269,8.8945,8.9403,9.1441,9.1278,9.0583,9.0583,9.0583,9.0583,9.0583,9.0583,9.0583,9.0583,9.1243,9.1243,8.96,0.0,0.0,0.0,0.0,0.0,0.0,8.2264,8.0124,7.593,7.6991,0.0,0.0,0.0,0.0,0.0,0.0,0.0,8.0353,8.2158,0.0,9.0906,9.4271,9.7748,10.1279,10.1279,10.1279,10.1289,10.0491,9.9447,9.8305,9.8027,9.8224,9.8633,9.7807,9.7973,9.8763,9.9201,9.9779,10.02,9.9593,9.9902,10.0311,9.9529,10.1208,10.2794,10.2413,10.2893,10.3097,10.2108,10.2885,10.3096,10.1807,10.1708,10.202,10.2315,10.1912,10.1014,0.0,9.9614,9.9235,0.0,9.8071,9.7948,9.7514,9.6526,9.5895,9.5626,9.4685,9.3912,9.3326,0.0,0.0,0.0,8.7362,8.6616,8.5221,8.6943,8.6533,8.4506,8.4288,8.422,8.4321,8.4025,8.4326,8.4953,8.5212,8.5349,8.5479,8.5739,8.5664,8.5479,8.58,8.582,8.5718,8.5938,8.5466,8.4989,8.5729,8.643,8.7317,8.8646,8.9651,9.0588,9.1725,9.1771,9.1528,9.1455,9.1003,9.0583,9.0583,9.0583,9.0774,9.1319,9.1625,9.1816,9.1892,9.1854,0.0,0.0,0.0,0.0,0.0,7.9551,7.7564,7.5662,7.5968,0.0,0.0,0.0,0.0,0.0,0.0,0.0,0.0,8.5804,0.0,9.3235,9.5477,9.7781,10.0099,10.0099,10.0099,10.0099,9.987,9.9569,9.9125,9.8087,9.8038,9.8611,9.7714,9.8095,9.9216,9.9699,10.0405,10.0989,10.081,10.0995,10.1391,10.05,10.2096,10.3507,10.3005,10.3488,10.3792,10.3014,10.3814,10.4193,10.2994,10.3187,10.3286,10.2913,10.2716,0.0,10.0886,10.0311,10.0314,10.101,9.9895,9.9403,9.974,9.8442,9.7557,9.725,9.6711,0.0,9.5634,9.407,9.2468,9.0752,9.0098,8.9188,8.8121,8.8188,8.7325,8.5787,8.5181,8.5039,8.5249,8.5064,8.5349,8.5977,8.6273,8.6484,8.6524,8.6524,8.6524,8.657,8.6736,8.7047,8.7445,8.7922,8.7877,8.7611,8.7473,8.7908,8.8685,8.9972,9.0877,9.1567,9.1978,9.2051,9.1962,9.1848,9.1395,9.1041,9.1041,9.0812,9.085,9.1663,9.2083,9.258,9.3459,9.2847,9.1892,9.0774,0.0,0.0,0.0,0.0,0.0,0.0,7.8528,7.9466,0.0,0.0,0.0,0.0,0.0,0.0,8.511,8.7837,0.0,9.4821,9.622,9.7815,9.962,9.962,9.9497,9.9287,9.9511,9.9523,9.9359,9.8719,9.8577,9.8824,9.8397,9.8907,9.992,10.03,10.1179,10.2091,10.1903,10.2094,10.2516,10.4414,10.4092,10.4186,0.0,10.5121,10.4201,10.2601,10.3688,10.4205,10.2601,10.4189,10.4817,10.32,10.3502,10.3097,10.1394,0.0,0.0,0.0,10.1682,10.1211,10.1279,10.0481,9.9644,9.8827,9.8788,9.8827,9.8904,9.6269,9.496,9.4738,9.1567,8.9818,8.9259,8.8756,8.7471,8.5772,8.6476,8.6422,8.5929,8.6598,8.6895,8.6969,8.7787,8.8084,8.81,8.8146,8.8162,8.8217,8.8776,8.9027,8.9327,9.0625,9.1393,9.1507,8.9947,8.946,8.9954,9.2005,9.2532,9.2478,9.2402,9.2255,9.2105,9.1913,9.1892,9.1854,9.1816,9.1243,9.1003,9.1739,9.2618,9.3459,9.4327,9.365,9.2389,9.0659,0.0,0.0,0.0,0.0,0.0,0.0,8.362,8.4462,0.0,0.0,0.0,0.0,0.0,8.2557,8.6815,8.8697,9.1579,9.5643,9.6512,9.7818,9.9497,9.9497,9.9201,9.867,9.923,9.9299,9.9041,9.953,9.9539,9.9185,9.9652,10.0217,10.0894,10.1196,10.2194,10.3282,10.2804,10.3102,10.368,0.0,0.0,10.4217,10.3719,10.4595,10.5293,10.5376,10.57,10.5804,10.5394,10.53,10.4788,10.379,10.3191,10.252,10.1394,10.0303,10.0212,10.149,10.0408,10.0222,10.1308,9.9904,9.9029,9.8788,9.8788,9.9144,9.9798,9.8588,9.7326,9.6043,9.4755,9.314,9.1388,9.141,9.0569,8.9107,8.879,8.8573,8.8381,8.7935,8.7787,8.7787,8.801,8.8084,8.8162,8.8494,8.8616,8.8828,8.9991,9.0684,9.1187,9.2127,9.2786,9.3064,9.2275,9.2303,9.2755,9.3269,9.3894,9.4329,9.4147,9.3956,9.3644,9.2962,9.2809,9.2618,9.193,9.2198,9.258,9.2771,9.3497,9.4376,9.5178,9.3497,9.1319,8.9027,8.6849,0.0,0.0,8.2646,8.3792,8.2541,8.4601,8.6023,0.0,0.0,0.0,8.7346,8.745,8.8115,8.9562,9.2417,9.4707,9.6339,9.7234,9.7864,9.8303,9.8303,9.8242,9.8091,9.8258,9.8253,9.8206,9.8341,9.8859,9.9684,10.0118,10.1002,10.2096,10.2588,10.3295,10.4105,10.3996,10.4519,10.518,10.2408,10.378,10.4888,10.4591,10.5311,10.6002,10.6287,10.6188,10.6018,10.6018,10.4982,10.4,10.3197,10.2317,10.1606,10.1011,10.0502,10.0509,10.1192,10.0607,10.0509,10.1308,10.0404,9.9816,9.9574,9.9574,9.9671,9.987,9.9035,9.8174,9.7237,9.5767,9.4242,9.2749,9.2235,9.1386,9.0332,8.9612,8.9496,8.9793,8.8976,8.8641,8.8688,8.8906,8.9026,8.904,8.9146,8.9699,9.0432,9.1046,9.1963,9.3016,9.4094,9.4926,9.5366,9.5107,9.4388,9.3796,9.4181,9.4643,9.4943,9.4771,9.4547,9.4288,9.3803,9.3688,9.3573,9.3077,9.3038,9.3344,9.4108,9.4299,9.4518,9.4987,9.2924,9.0364,8.7842,8.6046,0.0,8.2913,8.4709,8.6189,8.6467,8.802,8.8824,8.8329,8.8255,0.0,8.9421,9.1141,9.2094,9.2187,9.4622,9.6369,9.7186,9.7669,9.7892,9.7892,9.7892,9.7892,9.7892,9.7892,9.8115,9.8466,9.906,9.9702,10.0403,10.1504,10.2387,10.3115,10.359,10.431,10.4998,10.4998,10.5303,10.5597,10.5408,10.5495,10.5615,10.6101,10.6117,10.6117,10.6117,10.5701,10.5421,10.5421,10.4282,10.3094,10.2208,10.1502,10.0908,10.0385,10.0798,10.108,10.119,10.119,10.1083,10.1011,10.1011,10.0804,10.0395,10.0383,10.0088,9.962,9.8705,9.8267,9.8253,9.5943,9.4584,9.3983,9.2554,9.1594,9.1019,9.0202,9.0164,9.061,8.9942,8.9633,8.9641,9.0105,9.0339,9.0405,9.0158,9.1036,9.2297,9.2357,9.3242,9.4568,9.6031,9.6865,9.7326,9.7326,9.5788,9.4249,9.4989,9.5163,9.5098,9.4915,9.4739,9.4567,9.4567,9.4567,9.4567,9.4441,9.3917,9.3917,9.5331,9.4987,9.4479,9.4403,9.2149,8.9551,8.7144,0.0,8.5435,8.6991,8.7666,8.8933,9.1223,9.2131,9.2,9.0589,9.2076,9.2532,9.1476,9.3748,9.4937,9.4565,9.6034,9.7149,9.7892,9.7892,9.7892,9.7892,9.7892,9.7892,9.7892,9.7892,9.8338,9.9153,10.0296,10.0987,10.1394,10.3018,10.3824,10.3994,10.4302,10.4921,10.5686,10.5418,10.5418,10.5418,10.5482,10.5495,10.5383,10.4994,10.4888,10.4888,10.4888,10.4806,10.4699,10.4699,10.4515,10.3814,10.2284,10.1995,10.1302,9.9855,9.9833,10.0113,10.0581,10.0615,10.0381,9.9898,9.9872,9.9833,9.9754,9.9754,9.9701,9.962,9.892,9.8599,9.8583,9.7027,9.623,9.6078,9.4491,9.3714,9.3582,9.2765,9.2059,9.1502,9.139,9.1181,9.098,9.108,9.1428,9.1938,9.2238,9.2559,9.3093,9.4944,9.5281,9.5175,9.6808,9.6942,9.648,9.648,9.6211,9.5942,9.6057,9.5934,9.5759,9.5729,9.5542,9.5407,9.5407,9.5407,9.5216,9.4529,9.4834,9.5293,9.556,9.5484,9.5178,9.4518,9.1652,8.8863,8.7068,0.0,8.7842,8.8797,9.172,9.4107,9.521,9.4154,9.4152,9.5899,9.4179,9.3784,9.5551,9.6065,9.6288,9.622,9.7186,9.7743,9.7892,9.7892,9.7892,9.7892,9.7892,9.7892,9.7892,9.7892,9.8338,9.9116,9.9752,10.1023,10.2697,10.3387,10.4415,10.5294,10.4706,10.4921,10.5482,10.4081,10.4004,10.4501,10.5595,10.5314,10.4891,10.4614,10.461,10.461,10.461,10.4281,10.4108,10.4108,10.3404,10.2504,10.1303,10.0703,10.0093,9.9213,9.9129,9.9245,9.9487,9.9833,9.9885,9.962,9.962,9.947,9.9129,9.8824,9.8677,9.8677,9.8397,9.8287,9.8233,9.76,9.6814,9.5923,9.518,9.4362,9.3508,9.2653,9.2356,9.2389,9.2235,9.2121,9.2044,9.2631,9.3019,9.3339,9.3833,9.432,9.4886,9.5953,9.6019,9.598,9.7673,9.7942,9.775,9.8211,9.7365,9.6288,9.6288,9.6107,9.591,9.591,9.5734,9.5598,9.5598,9.5598,9.5484,9.5102,9.5713,9.6439,9.6859,9.6592,9.6172,9.5828,9.2493,0.0,0.0,8.9179,8.9905,9.1204,9.3883,9.592,9.6756,9.5682,9.5432,9.6578,9.5181,9.4957,9.6517,9.6591,9.6814,9.7297,9.7706,9.7892,9.7892,9.7892,9.7892,9.7892,9.7892,9.7892,9.7892,9.8338,9.8865,9.9507,10.0419,10.1513,10.2696,10.3716,10.4188,10.4386,10.4386,10.4386,10.431,10.352,10.3393,10.3584,10.529,10.4794,10.4311,10.4199,10.4207,10.4207,10.4207,10.3808,10.3518,10.3518,10.25,10.1421,10.0418,9.9749,9.9157,9.8547,9.8519,9.8519,9.8519,9.896,9.9201,9.9201,9.9201,9.9005,9.8535,9.8108,9.7892,9.7892,9.7892,9.7892,9.7892,9.7892,9.7223,9.596,9.5774,9.4883,9.3508,9.2653,9.264,9.3168,9.2968,9.3158,9.3655,9.4474,9.4987,9.5327,9.5723,9.6288,9.6903,9.7134,9.7057,9.7134,9.8634,9.8942,9.8942,9.9606,9.8404,9.6865,9.6865,9.6568,9.6217,9.6217,9.5887,9.5598,9.5598,9.5751,9.5904,9.5904,9.6592,9.7432,9.8273,9.7738,9.705,9.6668,0.0,0.0,0.0,9.1347,9.2149,9.4032,9.5663,9.6917,9.7751,9.7012,9.6516,9.6516,9.6195,9.6257,9.6889,9.6889,9.7223,9.7892,9.7892,9.7892,9.7892,9.7892,9.7892,9.7892,9.8077,9.8221,9.8358,9.8974,9.9598,10.0306,10.1189,10.1883,10.2492,10.3604,10.3813,10.3202,10.3699,10.3584,10.3214,10.2705,10.2691,10.2791,10.4107,10.3792,10.3597,10.2897,10.2809,10.2809,10.2809,10.2793,10.2794,10.2794,10.272,10.2015,10.0492,10.0195,9.9581,9.809,9.7978,9.7978,9.7978,9.7992,9.8027,9.8027,9.8027,9.7992,9.7978,9.7926,9.7892,9.7892,9.7892,9.7892,9.7892,9.7892,9.7817,9.7669,9.6889,9.6034,9.518,9.4362,9.3919,9.3724,9.3708,9.4772,9.6387,9.6504,9.7333,9.8481,9.851,9.8557,9.875,9.9567,9.9298,9.8788,9.9721,9.9452,9.8788,9.8865,9.875,9.8634,9.8634,9.7874,9.7089,9.7089,9.6346,9.5598,9.5598,9.621,9.6783,9.6783,9.7471,9.8262,9.9152,9.8617,9.7498,9.5942,0.0,0.0,9.3038,9.3612,9.5014,9.7421,9.7817,9.8182,9.8975,9.8279,9.7775,9.7775,9.7723,9.7743,9.778,9.778,9.7817,9.7892,9.7892,9.7892,9.7892,9.7892,9.7892,9.7892,9.8672,9.9246,9.9654,9.9712,10.0397,10.1491,10.1285,10.1717,10.2402,10.2993,10.329,10.3087,10.24,10.2514,10.3023,10.1406,10.14,10.2115,10.4015,10.3485,10.2987,10.2683,10.2721,10.2721,10.2721,10.2721,10.2721,10.2721,10.2721,10.209,10.0492,10.0307,9.9638,9.804,9.7892,9.7892,9.7892,9.7892,9.7892,9.7892,9.7892,9.7892,9.7892,9.7892,9.7892,9.7892,9.7892,9.7892,9.7892,9.7892,9.7595,9.7092,9.7134,9.6692,9.5954,9.599,9.5918,9.5866,9.6248,9.685,9.7527,9.7884,9.8096,9.834,9.9278,9.9007,9.8427,9.9672,9.9529,9.8942,9.9837,9.9875,9.9721,10.0212,10.0404,10.0404,10.0404,9.9219,9.7894,9.7357,9.6806,9.6248,9.5713,9.6286,9.6898,9.6898,9.7967,9.8999,9.9343,9.9114,9.8846,9.8732,0.0,9.6172,9.6898,9.6821,9.715,9.8323,9.8616,9.874,9.8778,9.8258,9.7892,9.7892,9.7892,9.7892,9.7892,9.7892,9.7892,9.7892,9.7892,9.7892,9.7892,9.7892,9.8152,9.8635,9.8717,9.9095,9.9831,10.0093,10.069,10.1398,10.1297,10.1508,10.2105,10.229,10.2094,10.1597,10.1776,10.1797,10.1599,10.0987,10.0989,10.1395,10.3723,10.3093,10.2721,10.2721,10.2721,10.2721,10.2721,10.2721,10.2721,10.2721,10.2498,10.1793,10.0418,10.0084,9.9489,9.8375,9.804,9.8003,9.8263,9.804,9.7892,9.7892,9.7892,9.7892,9.7892,9.7892,9.7892,9.7892,9.7892,9.7892,9.7909,9.8057,9.7742,9.7034,9.7632,9.7333,9.6428,9.677,9.6885,9.6852,9.7274,9.7813,9.8406,9.8786,9.895,9.9102,10.0114,9.9831,9.9113,10.0114,10.0096,9.9673,10.0289,10.0491,10.0596,10.1087,10.1279,10.1279,10.1279,10.0294,9.9093,9.8201,9.7648,9.7127,9.6515,9.705,9.7662,9.77,9.9037,10.0107,9.984,9.9992,10.0183,10.0183,9.8999,9.8304,9.9076,9.89,9.8704,9.8826,9.8952,9.8877,9.8535,9.8142,9.7892,9.7892,9.7892,9.7892,9.7892,9.7892,9.8003,9.8263,9.8263,9.835,9.8484,9.8484,9.8782,9.9303,9.9424,9.9755,10.03,10.0613,10.1085,10.1801,10.1217,10.1293,10.1891,10.1585,10.12,10.07,10.1312,10.1304,10.088,10.088,10.0919,10.1102,10.3,10.2721,10.2721,10.2721,10.2721,10.2721,10.2721,10.2721,10.2721,10.2721,10.2015,10.1198,10.0418,9.9601,9.9118,9.9118,9.8375,9.8263,9.9043,9.8338,9.7892,9.7892,9.7892,9.7892,9.7892,9.7892,9.7892,9.7892,9.7892,9.7892,9.7926,9.844,9.8391,9.7944,9.8456,9.7926,9.6629,9.6609,9.6472,9.6208,9.6208,9.7423,9.9179,9.9179,10.0092,10.1308,10.1317,10.1317,10.1317,10.1279,10.1279,10.1279,10.1279,10.1279,10.1279,10.1279,10.1279,10.1279,10.1279,10.1206,10.0819,9.9926,9.89,9.8109,9.8109,9.877,9.9431,9.9431,10.0718,10.1585,10.0795,10.128,10.1406,9.9687,10.0107,10.0207,9.8884,9.9402,9.9723,9.9239,9.8838,9.8578,9.8488,9.8142,9.7892,9.7892,9.7892,9.7892,9.7892,9.7892,9.8263,9.9081,9.9081,9.9303,9.9798,9.9777,9.9793,9.9814,10.1106,10.1504,10.1187,10.1212,10.1903,10.3099,10.1406,10.11,10.1815,10.0986,10.0711,10.0787,10.0787,10.0902,10.1011,10.1011,10.1085,10.1216,10.2796,10.2721,10.2721,10.2721,10.2721,10.2721,10.2721,10.2721,10.2721,10.2721,10.2498,10.1774,10.0418,10.0084,9.9712,9.9155,9.8895,9.882,9.9081,9.8338,9.7892,9.7892,9.7892,9.7892,9.7892,9.7892,9.7892,9.7892,9.7892,9.8074,9.8456,9.8238,9.8254,9.8472,9.8624,9.8458,9.8113,9.8539,9.8659,9.8588,9.8588,9.896,9.9479,9.9479,9.9733,10.0188,10.0593,10.0705,10.0798,10.119,10.1279,10.1279,10.1279,10.1279,10.1279,10.1279,10.1279,10.1279,10.1279,10.119,10.0914,9.9947,9.937,9.8869,9.8374,9.9353,10.0397,10.0397,10.1687,10.2811,10.25,10.2094,10.17,10.1203,10.0606,10.0,9.9605,9.9477,9.9263,9.8823,9.8636,9.8397,9.8091,9.7958,9.7892,9.7892,9.7892,9.7892,9.7892,9.7892,9.8263,9.9081,9.8826,9.9315,10.0622,10.0114,9.999,10.0293,10.0384,10.0712,10.1187,10.09,10.1287,10.2209,10.11,10.11,10.1788,10.1117,10.0791,10.0798,10.0886,10.0983,10.1088,10.1088,10.1188,10.1317,10.2796,10.2721,10.2721,10.2721,10.2721,10.2721,10.2721,10.2721,10.2721,10.2721,10.2406,10.17,10.0418,10.0009,9.9638,9.9155,9.9378,9.9452,9.9118,9.8635,9.8226,9.7892,9.7892,9.7892,9.7892,9.7892,9.7992,9.8204,9.8204,9.8488,9.9056,9.89,9.8816,9.8732,9.8877,9.8763,9.8413,9.8763,9.893,9.893,9.893,9.9041,9.9221,9.9221,9.9552,10.0,10.0395,10.0589,10.0902,10.12,10.1279,10.1279,10.1279,10.1279,10.1279,10.1279,10.1279,10.1394,10.1712,10.171,10.1618,10.1315,10.0705,10.001,9.9923,10.0585,10.1504,10.1822,10.2888,10.3588,10.3093,10.2816,10.2411,10.1888,10.0904,10.0103,9.9883,9.932,9.877,9.8374,9.8308,9.8175,9.7926,9.7892,9.7892,9.7892,9.7892,9.7892,9.7892,9.8189,9.8702,9.9355,9.9448,9.999,10.1091,10.0617,10.0502,10.0814,10.0695,10.0811,10.1014,10.0688,10.11,10.1903,10.0994,10.1209,10.1908,10.1192,10.0886,10.1017,10.1004,10.1098,10.12,10.12,10.1307,10.1279,10.2907,10.2721,10.2721,10.2721,10.2721,10.2721,10.2721,10.2721,10.2721,10.2721,10.209,10.131,10.0492,9.9749,9.9303,9.9303,9.9972,10.0084,9.9378,9.9192,9.882,9.8152,9.7966,9.7966,9.8115,9.7966,9.8142,9.8624,9.8686,9.8982,9.9539,9.9974,9.9634,9.8732,9.9085,9.8754,9.7892,9.7892,9.7892,9.7892,9.7892,9.8171,9.8639,9.8701,9.9428,10.0404,10.0489,10.0804,10.1279,10.1279,10.1279,10.1279,10.1279,10.1279,10.1279,10.1279,10.1394,10.1597,10.2404,10.2604,10.2714,10.3493,10.2498,10.1492,10.22,10.2391,10.2687,10.3421,10.4086,10.4308,10.2994,10.3189,10.3183,10.1995,10.1098,10.0406,9.9863,9.9129,9.8523,9.8072,9.8003,9.8003,9.8003,9.7929,9.7892,9.7892,9.7892,9.7909,9.7961,9.863,9.9297,9.9863,10.051,10.1001,10.1198,10.12,10.1099,10.1189,10.1608,10.1406,10.0604,10.0615,10.1112,10.1812,10.1097,10.1307,10.1996,10.1313,10.1085,10.1216,10.1188,10.12,10.1279,10.1279,10.1279,10.1279,10.2703,10.2721,10.2721,10.2721,10.2721,10.2721,10.2721,10.2721,10.2721,10.2721,10.248,10.2109,10.131,10.1087,10.1012,10.1012,10.1106,10.1198,10.1012,9.9786,9.9303,9.9749,9.856,9.8486,9.9749,9.8523,9.7978,9.8057,9.8504,9.8756,9.8892,9.8997,9.8922,9.8701,9.8385,9.8111,9.7892,9.7892,9.7892,9.7892,9.7892,9.7958,9.8125,9.8551,9.9173,9.9859,10.0321,10.0804,10.1279,10.1279,10.1279,10.1279,10.1279,10.1279,10.1279,10.1279,10.1789,10.2404,10.252,10.3077,10.3605,10.3798,10.3585,10.3314,10.3385,10.3901,10.4292,10.4016,10.4606,10.4887,10.3988,10.3511,10.3111,10.2803,10.1712,10.0601,9.9889,9.9863,9.9649,9.8949,9.882,9.882,9.882,9.8263,9.7892,9.7892,9.7892,9.8044,9.8348,9.8551,9.9167,10.0285,10.0213,10.0492,10.1198,10.0887,10.0703,10.0703,10.0786,10.0795,10.0604,10.0708,10.0906,10.0982,10.099,10.1083,10.1209,10.121,10.1196,10.1188,10.1297,10.1308,10.1279,10.1279,10.1279,10.1279,10.3706,10.3186,10.2777,10.3186,10.3019,10.2721,10.2721,10.2721,10.2721,10.2721,10.2721,10.2424,10.1607,10.1495,10.1495,10.1495,10.1495,10.1495,10.1495,10.0715,10.0307,10.0307,9.9489,9.9452,10.0307,9.9489,9.918,9.9482,9.9782,9.9998,10.0298,9.981,9.9495,9.9249,9.8518,9.8057,9.7892,9.7892,9.7892,9.7892,9.7892,9.8061,9.8299,9.8577,9.9273,10.0088,10.0407,10.111,10.1894,10.1796,10.2094,10.2401,10.2017,10.1786,10.1912,10.2385,10.2597,10.2789,10.3597,10.4097,10.4597,10.4982,10.5097,10.501,10.4487,10.4705,10.5021,10.4994,10.5115,10.4982,10.4416,10.3683,10.3196,10.2898,10.1919,10.0986,10.0219,9.985,9.9563,9.9155,9.8746,9.8523,9.8523,9.8152,9.7892,9.7892,9.8095,9.8287,9.8525,9.9099,9.9675,10.0213,10.0408,10.0582,10.0887,10.0688,10.0589,10.0696,10.0589,10.0589,10.0696,10.0802,10.0782,10.0886,10.1004,10.1085,10.1095,10.1208,10.121,10.1287,10.1298,10.1279,10.1279,10.1279,10.1279,10.1279,10.469,10.3799,10.2889,10.3687,10.3204,10.2721,10.2721,10.2777,10.2889,10.2889,10.3,10.2796,10.2015,10.1793,10.1718,10.1718,10.1718,10.1718,10.1718,10.1607,10.131,10.0715,10.0418,10.0418,10.0715,10.0604,10.0716,10.1003,10.1116,10.1398,10.1691,10.0883,10.0187,9.9729,9.8798,9.8204,9.7909,9.7992,9.8044,9.8061,9.8142,9.8461,9.8862,9.8967,9.9647,10.0512,10.0593,10.1482,10.2577,10.2602,10.3109,10.3587,10.2896,10.2589,10.2801,10.3585,10.351,10.3289,10.4713,10.5213,10.5482,10.6203,10.6385,10.6182,10.55,10.5187,10.5322,10.5914,10.5508,10.4912,10.4395,10.3786,10.3299,10.2589,10.1886,10.1198,10.0418,9.9749,9.9378,9.9489,9.887,9.8327,9.803,9.8078,9.8128,9.8128,9.8429,9.8661,9.8792,9.981,10.0302,9.9986,10.0709,10.0913,10.0589,10.0589,10.0696,10.082,10.0719,10.0681,10.0782,10.088,10.0908,10.1004,10.1196,10.1198,10.1208,10.1288,10.1279,10.1279,10.1279,10.1279,10.1279,10.1279,10.1279,10.1279,10.3984,10.339,10.2703,10.2907,10.2796,10.2721,10.2721,10.3297,10.3799,10.3799,10.4393,10.4616,10.3724,10.3019,10.248,10.248,10.248,10.248,10.248,10.1904,10.1793,10.2295,10.0994,10.1012,10.2295,10.1718,10.1011,10.0411,10.0889,10.0997,10.0493,10.0195,9.9702,9.9146,9.8347,9.7961,9.7944,9.8413,9.8577,9.8639,9.9158,9.9428,9.9552,10.0088,10.0383,10.0597,10.099,10.1816,10.2712,10.3385,10.3708,10.3702,10.3587,10.351,10.3598,10.3685,10.418,10.4789,10.4982,10.5713,10.629,10.6405,10.6294,10.6182,10.6105,10.6018,10.5903,10.5384,10.5191,10.4788,10.3792,10.3589,10.3112,10.1882,10.1607,10.1198,10.0418,10.0195,10.0418,10.1087,10.0799,10.0,9.8541,9.8785,9.9005,9.9005,9.9064,9.9268,9.9696,9.989,10.0113,10.051,10.0598,10.0718,10.0802,10.0802,10.0782,10.0979,10.1006,10.1006,10.0989,10.1085,10.1213,10.1196,10.1297,10.1298,10.1308,10.1317,10.1279,10.1279,10.1279,10.1279,10.1279,10.1279,10.1279,10.1279,10.4505,10.3613,10.2907,10.3297,10.3,10.2721,10.2721,10.3409,10.3799,10.3297,10.4393,10.469,10.339,10.2889,10.2721,10.2721,10.2721,10.2721,10.2721,10.2387,10.2295,10.2721,10.2015,10.2015,10.2721,10.2387,10.2015,10.1589,10.1889,10.1889,10.1607,10.1086,10.0696,10.0418,9.9118,9.8748,9.9,9.878,9.8892,9.9245,9.9511,9.9807,10.0112,10.0419,10.071,10.1102,10.2296,10.3289,10.401,10.4421,10.4701,10.4796,10.3914,10.3914,10.4308,10.4383,10.4708,10.5223,10.5713,10.6097,10.6385,10.6284,10.6193,10.6205,10.6111,10.6001,10.5894,10.5609,10.4887,10.4298,10.4304,10.3307,10.2418,10.2018,10.1505,10.0992,10.0379,10.0086,10.0092,10.0184,10.0497,10.0224,9.902,9.9064,9.9196,9.9196,9.9424,9.9696,9.9882,10.0114,10.0387,10.0592,10.0711,10.0692,10.0787,10.0891,10.0989,10.1106,10.1106,10.1106,10.1106,10.1196,10.1208,10.1297,10.1308,10.1279,10.1279,10.1279,10.1279,10.1279,10.1279,10.1279,10.1279,10.1279,10.1279,10.1279]}]]